Time,TemperatureF,DewpointF,PressureIn,WindDirection,WindDirectionDegrees,WindSpeedMPH,WindSpeedGustMPH,Humidity,HourlyPrecipIn,Conditions,Clouds,dailyrainin,SoftwareType,DateUTC
2013-06-22 00:00:00,74.2,63.8,30.07,SE,136,0.0,1.0,70,0.00,,---,0.00,VWS V14.01,2013-06-22 04:00:00,
2013-06-22 00:01:00,74.2,64.2,30.07,SE,135,0.0,0.0,71,0.00,,---,0.00,VWS V14.01,2013-06-22 04:01:00,
2013-06-22 00:02:00,74.1,63.7,30.07,SE,136,0.0,0.0,70,0.00,,---,0.00,VWS V14.01,2013-06-22 04:02:00,
2013-06-22 00:03:00,74.0,63.6,30.07,SE,136,0.0,0.0,70,0.00,,---,0.00,VWS V14.01,2013-06-22 04:03:00,
2013-06-22 00:04:00,74.0,63.6,30.07,SE,136,0.0,0.0,70,0.00,,---,0.00,VWS V14.01,2013-06-22 04:04:00,
2013-06-22 00:05:00,74.0,63.6,30.07,SE,135,0.0,0.0,70,0.00,,---,0.00,VWS V14.01,2013-06-22 04:05:00,
2013-06-22 00:06:00,74.0,64.0,30.07,SE,136,0.0,0.0,71,0.00,,---,0.00,VWS V14.01,2013-06-22 04:06:00,
2013-06-22 00:07:00,74.0,64.0,30.07,SE,136,0.0,0.0,71,0.00,,---,0.00,VWS V14.01,2013-06-22 04:07:00,
2013-06-22 00:08:00,74.0,64.0,30.07,SE,136,0.0,0.0,71,0.00,,---,0.00,VWS V14.01,2013-06-22 04:08:00,
2013-06-22 00:09:00,73.9,63.9,30.07,SE,136,0.0,0.0,71,0.00,,---,0.00,VWS V14.01,2013-06-22 04:09:00,
2013-06-22 00:10:00,73.8,64.2,30.06,SE,136,0.0,0.0,72,0.00,,---,0.00,VWS V14.01,2013-06-22 04:10:00,
2013-06-22 00:11:00,73.7,64.1,30.06,SE,135,0.0,0.0,72,0.00,,---,0.00,VWS V14.01,2013-06-22 04:11:00,
2013-06-22 00:12:00,73.6,64.0,30.06,SE,136,0.0,0.0,72,0.00,,---,0.00,VWS V14.01,2013-06-22 04:12:00,
2013-06-22 00:13:00,73.5,63.9,30.06,SE,135,0.0,0.0,72,0.00,,---,0.00,VWS V14.01,2013-06-22 04:13:00,
2013-06-22 00:14:00,73.3,64.1,30.06,SE,136,0.0,0.0,73,0.00,,---,0.00,VWS V14.01,2013-06-22 04:14:00,
2013-06-22 00:15:00,73.2,64.0,30.06,SE,136,0.0,0.0,73,0.00,,---,0.00,VWS V14.01,2013-06-22 04:15:00,
2013-06-22 00:16:00,73.1,63.9,30.06,SE,136,0.0,0.0,73,0.00,,---,0.00,VWS V14.01,2013-06-22 04:16:00,
2013-06-22 00:17:00,73.0,64.2,30.06,SE,135,0.0,0.0,74,0.00,,---,0.00,VWS V14.01,2013-06-22 04:17:00,
2013-06-22 00:18:00,72.8,64.4,30.06,SE,135,0.0,0.0,75,0.00,,---,0.00,VWS V14.01,2013-06-22 04:18:00,
2013-06-22 00:19:00,72.7,63.9,30.06,SE,136,0.0,0.0,74,0.00,,---,0.00,VWS V14.01,2013-06-22 04:19:00,
2013-06-22 00:20:00,72.7,64.3,30.06,SE,135,0.0,0.0,75,0.00,,---,0.00,VWS V14.01,2013-06-22 04:20:00,
2013-06-22 00:21:00,72.6,64.2,30.06,SE,136,0.0,0.0,75,0.00,,---,0.00,VWS V14.01,2013-06-22 04:21:00,
2013-06-22 00:22:00,72.5,64.1,30.06,SE,135,0.0,0.0,75,0.00,,---,0.00,VWS V14.01,2013-06-22 04:22:00,
2013-06-22 00:23:00,72.4,64.4,30.06,SE,136,0.0,0.0,76,0.00,,---,0.00,VWS V14.01,2013-06-22 04:23:00,
2013-06-22 00:24:00,72.2,64.2,30.06,SE,136,0.0,0.0,76,0.00,,---,0.00,VWS V14.01,2013-06-22 04:24:00,
2013-06-22 00:25:00,72.2,64.2,30.06,SE,135,0.0,0.0,76,0.00,,---,0.00,VWS V14.01,2013-06-22 04:25:00,
2013-06-22 00:26:00,72.1,63.8,30.06,SE,136,0.0,0.0,75,0.00,,---,0.00,VWS V14.01,2013-06-22 04:26:00,
2013-06-22 00:27:00,72.0,64.0,30.06,SE,136,0.0,0.0,76,0.00,,---,0.00,VWS V14.01,2013-06-22 04:27:00,
2013-06-22 00:28:00,71.9,63.9,30.06,SE,136,0.0,0.0,76,0.00,,---,0.00,VWS V14.01,2013-06-22 04:28:00,
2013-06-22 00:29:00,71.8,64.2,30.06,SE,135,0.0,0.0,77,0.00,,---,0.00,VWS V14.01,2013-06-22 04:29:00,
2013-06-22 00:30:00,71.7,64.1,30.06,SE,136,0.0,0.0,77,0.00,,---,0.00,VWS V14.01,2013-06-22 04:30:00,
2013-06-22 00:31:00,71.6,63.6,30.06,SE,136,0.0,0.0,76,0.00,,---,0.00,VWS V14.01,2013-06-22 04:31:00,
2013-06-22 00:32:00,71.6,63.6,30.06,SE,136,0.0,0.0,76,0.00,,---,0.00,VWS V14.01,2013-06-22 04:32:00,
2013-06-22 00:33:00,71.5,63.9,30.06,SE,136,0.0,0.0,77,0.00,,---,0.00,VWS V14.01,2013-06-22 04:33:00,
2013-06-22 00:34:00,71.4,64.2,30.06,SE,136,0.0,0.0,78,0.00,,---,0.00,VWS V14.01,2013-06-22 04:34:00,
2013-06-22 00:35:00,71.3,64.1,30.06,SE,135,0.0,0.0,78,0.00,,---,0.00,VWS V14.01,2013-06-22 04:35:00,
2013-06-22 00:36:00,71.2,64.0,30.06,SE,136,0.0,0.0,78,0.00,,---,0.00,VWS V14.01,2013-06-22 04:36:00,
2013-06-22 00:37:00,71.1,63.9,30.06,SE,136,0.0,0.0,78,0.00,,---,0.00,VWS V14.01,2013-06-22 04:37:00,
2013-06-22 00:38:00,71.0,63.8,30.06,SE,136,0.0,0.0,78,0.00,,---,0.00,VWS V14.01,2013-06-22 04:38:00,
2013-06-22 00:39:00,70.9,63.7,30.06,SE,136,0.0,0.0,78,0.00,,---,0.00,VWS V14.01,2013-06-22 04:39:00,
2013-06-22 00:40:00,70.9,64.1,30.06,SE,135,0.0,0.0,79,0.00,,---,0.00,VWS V14.01,2013-06-22 04:40:00,
2013-06-22 00:41:00,70.9,63.7,30.06,SE,136,0.0,0.0,78,0.00,,---,0.00,VWS V14.01,2013-06-22 04:41:00,
2013-06-22 00:42:00,71.0,64.2,30.06,SE,136,0.0,0.0,79,0.00,,---,0.00,VWS V14.01,2013-06-22 04:42:00,
2013-06-22 00:43:00,71.0,63.8,30.06,SE,136,0.0,0.0,78,0.00,,---,0.00,VWS V14.01,2013-06-22 04:43:00,
2013-06-22 00:44:00,71.1,63.9,30.06,SE,136,0.0,0.0,78,0.00,,---,0.00,VWS V14.01,2013-06-22 04:44:00,
2013-06-22 00:45:00,71.1,63.9,30.06,SE,135,0.0,0.0,78,0.00,,---,0.00,VWS V14.01,2013-06-22 04:45:00,
2013-06-22 00:46:00,71.2,64.0,30.05,SE,136,0.0,0.0,78,0.00,,---,0.00,VWS V14.01,2013-06-22 04:46:00,
2013-06-22 00:47:00,71.2,64.0,30.05,SE,135,0.0,0.0,78,0.00,,---,0.00,VWS V14.01,2013-06-22 04:47:00,
2013-06-22 00:48:00,71.3,64.1,30.06,SE,136,0.0,0.0,78,0.00,,---,0.00,VWS V14.01,2013-06-22 04:48:00,
2013-06-22 00:49:00,71.4,63.8,30.06,SE,135,0.0,0.0,77,0.00,,---,0.00,VWS V14.01,2013-06-22 04:49:00,
2013-06-22 00:50:00,71.4,64.2,30.06,SE,136,0.0,0.0,78,0.00,,---,0.00,VWS V14.01,2013-06-22 04:50:00,
2013-06-22 00:51:00,71.4,63.8,30.05,SE,136,0.0,0.0,77,0.00,,---,0.00,VWS V14.01,2013-06-22 04:51:00,
2013-06-22 00:52:00,71.5,63.9,30.05,SE,135,0.0,0.0,77,0.00,,---,0.00,VWS V14.01,2013-06-22 04:52:00,
2013-06-22 00:53:00,71.6,64.0,30.05,SE,136,0.0,0.0,77,0.00,,---,0.00,VWS V14.01,2013-06-22 04:53:00,
2013-06-22 00:54:00,71.6,64.0,30.05,SE,135,0.0,0.0,77,0.00,,---,0.00,VWS V14.01,2013-06-22 04:54:00,
2013-06-22 00:55:00,71.6,64.0,30.05,SE,135,0.0,0.0,77,0.00,,---,0.00,VWS V14.01,2013-06-22 04:55:00,
2013-06-22 00:56:00,71.6,64.0,30.05,SE,136,0.0,0.0,77,0.00,,---,0.00,VWS V14.01,2013-06-22 04:56:00,
2013-06-22 00:57:00,71.5,64.3,30.05,SE,136,0.0,0.0,78,0.00,,---,0.00,VWS V14.01,2013-06-22 04:57:00,
2013-06-22 00:58:00,71.4,64.2,30.05,SE,135,0.0,0.0,78,0.00,,---,0.00,VWS V14.01,2013-06-22 04:58:00,
2013-06-22 00:59:00,71.3,64.1,30.05,SE,136,0.0,0.0,78,0.00,,---,0.00,VWS V14.01,2013-06-22 04:59:00,
2013-06-22 01:00:00,71.2,64.0,30.05,SE,136,0.0,0.0,78,0.00,,---,0.00,VWS V14.01,2013-06-22 05:00:00,
2013-06-22 01:01:00,71.1,63.9,30.05,SE,136,0.0,0.0,78,0.00,,---,0.00,VWS V14.01,2013-06-22 05:01:00,
2013-06-22 01:02:00,71.0,63.8,30.05,SE,136,0.0,0.0,78,0.00,,---,0.00,VWS V14.01,2013-06-22 05:02:00,
2013-06-22 01:03:00,70.9,64.1,30.05,SE,136,0.0,0.0,79,0.00,,---,0.00,VWS V14.01,2013-06-22 05:03:00,
2013-06-22 01:04:00,70.8,64.3,30.05,SE,135,0.0,0.0,80,0.00,,---,0.00,VWS V14.01,2013-06-22 05:04:00,
2013-06-22 01:05:00,70.7,64.2,30.05,SE,136,0.0,0.0,80,0.00,,---,0.00,VWS V14.01,2013-06-22 05:05:00,
2013-06-22 01:06:00,70.6,64.1,30.05,SE,135,0.0,0.0,80,0.00,,---,0.00,VWS V14.01,2013-06-22 05:06:00,
2013-06-22 01:07:00,70.5,64.0,30.05,SE,136,0.0,0.0,80,0.00,,---,0.00,VWS V14.01,2013-06-22 05:07:00,
2013-06-22 01:08:00,70.4,63.9,30.04,SE,135,0.0,0.0,80,0.00,,---,0.00,VWS V14.01,2013-06-22 05:08:00,
2013-06-22 01:09:00,70.3,64.2,30.04,SE,136,0.0,0.0,81,0.00,,---,0.00,VWS V14.01,2013-06-22 05:09:00,
2013-06-22 01:10:00,70.3,64.2,30.04,SE,135,0.0,0.0,81,0.00,,---,0.00,VWS V14.01,2013-06-22 05:10:00,
2013-06-22 01:11:00,70.3,64.2,30.04,SE,136,0.0,0.0,81,0.00,,---,0.00,VWS V14.01,2013-06-22 05:11:00,
2013-06-22 01:12:00,70.3,64.2,30.04,SE,136,0.0,0.0,81,0.00,,---,0.00,VWS V14.01,2013-06-22 05:12:00,
2013-06-22 01:13:00,70.3,64.2,30.04,SE,136,0.0,0.0,81,0.00,,---,0.00,VWS V14.01,2013-06-22 05:13:00,
2013-06-22 01:14:00,70.4,64.3,30.04,SE,135,0.0,0.0,81,0.00,,---,0.00,VWS V14.01,2013-06-22 05:14:00,
2013-06-22 01:15:00,70.3,64.2,30.04,SE,136,0.0,0.0,81,0.00,,---,0.00,VWS V14.01,2013-06-22 05:15:00,
2013-06-22 01:16:00,70.3,64.2,30.04,SE,136,0.0,0.0,81,0.00,,---,0.00,VWS V14.01,2013-06-22 05:16:00,
2013-06-22 01:17:00,70.3,64.2,30.04,SE,136,0.0,0.0,81,0.00,,---,0.00,VWS V14.01,2013-06-22 05:17:00,
2013-06-22 01:18:00,70.3,63.8,30.04,SE,136,0.0,0.0,80,0.00,,---,0.00,VWS V14.01,2013-06-22 05:18:00,
2013-06-22 01:19:00,70.4,63.9,30.04,SE,136,0.0,0.0,80,0.00,,---,0.00,VWS V14.01,2013-06-22 05:19:00,
2013-06-22 01:20:00,70.5,64.0,30.04,SE,135,0.0,0.0,80,0.00,,---,0.00,VWS V14.01,2013-06-22 05:20:00,
2013-06-22 01:21:00,70.5,64.4,30.04,SE,136,0.0,0.0,81,0.00,,---,0.00,VWS V14.01,2013-06-22 05:21:00,
2013-06-22 01:22:00,70.4,64.3,30.04,SE,136,0.0,0.0,81,0.00,,---,0.00,VWS V14.01,2013-06-22 05:22:00,
2013-06-22 01:23:00,70.4,64.3,30.04,SE,136,0.0,0.0,81,0.00,,---,0.00,VWS V14.01,2013-06-22 05:23:00,
2013-06-22 01:24:00,70.4,64.3,30.04,SE,129,0.0,0.0,81,0.00,,---,0.00,VWS V14.01,2013-06-22 05:24:00,
2013-06-22 01:25:00,70.4,64.3,30.04,SE,131,0.0,0.0,81,0.00,,---,0.00,VWS V14.01,2013-06-22 05:25:00,
2013-06-22 01:26:00,70.5,64.0,30.04,ESE,120,0.0,0.0,80,0.00,,---,0.00,VWS V14.01,2013-06-22 05:26:00,
2013-06-22 01:27:00,70.6,64.1,30.03,SE,140,0.0,0.0,80,0.00,,---,0.00,VWS V14.01,2013-06-22 05:27:00,
2013-06-22 01:28:00,70.6,64.1,30.04,SE,140,0.0,0.0,80,0.00,,---,0.00,VWS V14.01,2013-06-22 05:28:00,
2013-06-22 01:29:00,70.7,64.2,30.03,SE,140,0.0,0.0,80,0.00,,---,0.00,VWS V14.01,2013-06-22 05:29:00,
2013-06-22 01:30:00,70.7,64.2,30.03,SE,140,0.0,0.0,80,0.00,,---,0.00,VWS V14.01,2013-06-22 05:30:00,
2013-06-22 01:43:00,70.3,64.2,30.03,SE,146,0.0,1.0,81,0.00,,---,0.00,VWS V14.01,2013-06-22 05:43:00,
2013-06-22 01:44:00,70.3,64.2,30.03,SE,146,0.0,1.0,81,0.00,,---,0.00,VWS V14.01,2013-06-22 05:44:00,
2013-06-22 01:45:00,70.3,64.2,30.03,SE,146,0.0,1.0,81,0.00,,---,0.00,VWS V14.01,2013-06-22 05:45:00,
2013-06-22 01:46:00,70.3,64.2,30.03,SE,138,0.0,1.0,81,0.00,,---,0.00,VWS V14.01,2013-06-22 05:46:00,
2013-06-22 01:47:00,70.3,64.2,30.02,SE,138,0.0,1.0,81,0.00,,---,0.00,VWS V14.01,2013-06-22 05:47:00,
2013-06-22 01:48:00,70.3,64.2,30.02,SSW,194,0.0,1.0,81,0.00,,---,0.00,VWS V14.01,2013-06-22 05:48:00,
2013-06-22 01:49:00,70.3,64.2,30.02,SSW,195,0.0,1.0,81,0.00,,---,0.00,VWS V14.01,2013-06-22 05:49:00,
2013-06-22 01:50:00,70.3,64.2,30.02,ESE,121,1.0,1.0,81,0.00,,---,0.00,VWS V14.01,2013-06-22 05:50:00,
2013-06-22 01:51:00,70.4,64.3,30.02,ESE,122,0.0,1.0,81,0.00,,---,0.00,VWS V14.01,2013-06-22 05:51:00,
2013-06-22 01:52:00,70.5,64.4,30.02,SE,138,0.0,1.0,81,0.00,,---,0.00,VWS V14.01,2013-06-22 05:52:00,
2013-06-22 01:53:00,70.4,64.3,30.02,SE,139,0.0,1.0,81,0.00,,---,0.00,VWS V14.01,2013-06-22 05:53:00,
2013-06-22 01:54:00,70.4,64.3,30.02,SE,136,0.0,1.0,81,0.00,,---,0.00,VWS V14.01,2013-06-22 05:54:00,
2013-06-22 01:55:00,70.5,64.4,30.02,SE,136,0.0,1.0,81,0.00,,---,0.00,VWS V14.01,2013-06-22 05:55:00,
2013-06-22 01:56:00,70.5,64.4,30.02,SE,136,0.0,1.0,81,0.00,,---,0.00,VWS V14.01,2013-06-22 05:56:00,
2013-06-22 01:57:00,70.6,64.1,30.02,SE,136,0.0,1.0,80,0.00,,---,0.00,VWS V14.01,2013-06-22 05:57:00,
2013-06-22 01:58:00,70.7,64.2,30.02,ESE,107,0.0,1.0,80,0.00,,---,0.00,VWS V14.01,2013-06-22 05:58:00,
2013-06-22 01:59:00,70.7,64.2,30.02,ESE,108,0.0,1.0,80,0.00,,---,0.00,VWS V14.01,2013-06-22 05:59:00,
2013-06-22 02:00:00,70.8,64.3,30.02,ESE,109,0.0,1.0,80,0.00,,---,0.00,VWS V14.01,2013-06-22 06:00:00,
2013-06-22 02:01:00,70.8,64.3,30.02,ESE,109,0.0,0.0,80,0.00,,---,0.00,VWS V14.01,2013-06-22 06:01:00,
2013-06-22 02:02:00,70.8,64.3,30.02,ESE,108,0.0,0.0,80,0.00,,---,0.00,VWS V14.01,2013-06-22 06:02:00,
2013-06-22 02:03:00,70.7,64.2,30.02,ESE,108,0.0,0.0,80,0.00,,---,0.00,VWS V14.01,2013-06-22 06:03:00,
2013-06-22 02:04:00,70.7,64.2,30.02,ESE,109,0.0,0.0,80,0.00,,---,0.00,VWS V14.01,2013-06-22 06:04:00,
2013-06-22 02:05:00,70.6,64.1,30.02,ESE,109,0.0,0.0,80,0.00,,---,0.00,VWS V14.01,2013-06-22 06:05:00,
2013-06-22 02:06:00,70.5,64.0,30.02,ESE,108,0.0,0.0,80,0.00,,---,0.00,VWS V14.01,2013-06-22 06:06:00,
2013-06-22 02:07:00,70.4,64.3,30.02,ESE,109,0.0,0.0,81,0.00,,---,0.00,VWS V14.01,2013-06-22 06:07:00,
2013-06-22 02:08:00,70.2,64.1,30.02,ESE,109,0.0,0.0,81,0.00,,---,0.00,VWS V14.01,2013-06-22 06:08:00,
2013-06-22 02:09:00,70.1,64.0,30.02,ESE,109,0.0,0.0,81,0.00,,---,0.00,VWS V14.01,2013-06-22 06:09:00,
2013-06-22 02:10:00,70.0,63.9,30.02,ESE,108,0.0,0.0,81,0.00,,---,0.00,VWS V14.01,2013-06-22 06:10:00,
2013-06-22 02:11:00,69.9,64.2,30.02,ESE,109,0.0,0.0,82,0.00,,---,0.00,VWS V14.01,2013-06-22 06:11:00,
2013-06-22 02:12:00,69.8,64.1,30.02,ESE,109,0.0,0.0,82,0.00,,---,0.00,VWS V14.01,2013-06-22 06:12:00,
2013-06-22 02:13:00,69.7,64.0,30.02,ESE,109,0.0,0.0,82,0.00,,---,0.00,VWS V14.01,2013-06-22 06:13:00,
2013-06-22 02:14:00,69.6,63.9,30.02,ESE,108,0.0,0.0,82,0.00,,---,0.00,VWS V14.01,2013-06-22 06:14:00,
2013-06-22 02:15:00,69.5,64.1,30.02,ESE,108,0.0,0.0,83,0.00,,---,0.00,VWS V14.01,2013-06-22 06:15:00,
2013-06-22 02:16:00,69.4,64.0,30.02,SE,126,0.0,0.0,83,0.00,,---,0.00,VWS V14.01,2013-06-22 06:16:00,
2013-06-22 02:17:00,69.4,64.0,30.02,SE,126,0.0,0.0,83,0.00,,---,0.00,VWS V14.01,2013-06-22 06:17:00,
2013-06-22 02:18:00,69.4,64.0,30.02,SE,125,0.0,0.0,83,0.00,,---,0.00,VWS V14.01,2013-06-22 06:18:00,
2013-06-22 02:19:00,69.3,63.9,30.02,SE,125,0.0,0.0,83,0.00,,---,0.00,VWS V14.01,2013-06-22 06:19:00,
2013-06-22 02:20:00,69.3,63.9,30.02,SE,126,0.0,0.0,83,0.00,,---,0.00,VWS V14.01,2013-06-22 06:20:00,
2013-06-22 02:21:00,69.3,63.9,30.02,SE,126,0.0,0.0,83,0.00,,---,0.00,VWS V14.01,2013-06-22 06:21:00,
2013-06-22 02:22:00,69.3,63.9,30.02,SE,126,0.0,0.0,83,0.00,,---,0.00,VWS V14.01,2013-06-22 06:22:00,
2013-06-22 02:23:00,69.3,64.3,30.02,SE,126,0.0,0.0,84,0.00,,---,0.00,VWS V14.01,2013-06-22 06:23:00,
2013-06-22 02:24:00,69.3,63.9,30.02,SE,126,0.0,0.0,83,0.00,,---,0.00,VWS V14.01,2013-06-22 06:24:00,
2013-06-22 02:25:00,69.3,64.3,30.02,SE,125,0.0,0.0,84,0.00,,---,0.00,VWS V14.01,2013-06-22 06:25:00,
2013-06-22 02:26:00,69.2,64.2,30.02,SE,125,0.0,0.0,84,0.00,,---,0.00,VWS V14.01,2013-06-22 06:26:00,
2013-06-22 02:27:00,69.2,64.2,30.02,SE,126,0.0,0.0,84,0.00,,---,0.00,VWS V14.01,2013-06-22 06:27:00,
2013-06-22 02:28:00,69.1,64.1,30.02,SE,126,0.0,0.0,84,0.00,,---,0.00,VWS V14.01,2013-06-22 06:28:00,
2013-06-22 02:29:00,69.0,64.0,30.02,SE,125,0.0,0.0,84,0.00,,---,0.00,VWS V14.01,2013-06-22 06:29:00,
2013-06-22 02:30:00,69.0,64.0,30.02,SE,127,0.0,0.0,84,0.00,,---,0.00,VWS V14.01,2013-06-22 06:30:00,
2013-06-22 02:31:00,69.0,64.0,30.02,SE,126,0.0,0.0,84,0.00,,---,0.00,VWS V14.01,2013-06-22 06:31:00,
2013-06-22 02:32:00,68.9,63.9,30.02,SE,126,0.0,0.0,84,0.00,,---,0.00,VWS V14.01,2013-06-22 06:32:00,
2013-06-22 02:33:00,68.8,64.1,30.02,SE,125,0.0,0.0,85,0.00,,---,0.00,VWS V14.01,2013-06-22 06:33:00,
2013-06-22 02:34:00,68.8,64.1,30.01,SE,125,0.0,0.0,85,0.00,,---,0.00,VWS V14.01,2013-06-22 06:34:00,
2013-06-22 02:35:00,68.7,64.0,30.01,SE,125,0.0,0.0,85,0.00,,---,0.00,VWS V14.01,2013-06-22 06:35:00,
2013-06-22 02:36:00,68.7,64.0,30.01,SE,125,0.0,0.0,85,0.00,,---,0.00,VWS V14.01,2013-06-22 06:36:00,
2013-06-22 02:37:00,68.6,63.9,30.01,SE,125,0.0,0.0,85,0.00,,---,0.00,VWS V14.01,2013-06-22 06:37:00,
2013-06-22 02:38:00,68.6,63.9,30.01,SE,126,0.0,0.0,85,0.00,,---,0.00,VWS V14.01,2013-06-22 06:38:00,
2013-06-22 02:39:00,68.5,64.2,30.01,SE,127,0.0,0.0,86,0.00,,---,0.00,VWS V14.01,2013-06-22 06:39:00,
2013-06-22 02:40:00,68.5,64.2,30.01,SE,127,0.0,0.0,86,0.00,,---,0.00,VWS V14.01,2013-06-22 06:40:00,
2013-06-22 02:41:00,68.6,64.2,30.01,SE,127,0.0,0.0,86,0.00,,---,0.00,VWS V14.01,2013-06-22 06:41:00,
2013-06-22 02:42:00,68.6,64.2,30.01,SE,127,0.0,0.0,86,0.00,,---,0.00,VWS V14.01,2013-06-22 06:42:00,
2013-06-22 02:43:00,68.7,64.0,30.01,SE,127,0.0,0.0,85,0.00,,---,0.00,VWS V14.01,2013-06-22 06:43:00,
2013-06-22 02:44:00,68.7,64.0,30.01,SE,127,0.0,0.0,85,0.00,,---,0.00,VWS V14.01,2013-06-22 06:44:00,
2013-06-22 02:45:00,68.7,64.0,30.01,SE,127,0.0,0.0,85,0.00,,---,0.00,VWS V14.01,2013-06-22 06:45:00,
2013-06-22 02:46:00,68.7,64.0,30.01,SE,127,0.0,0.0,85,0.00,,---,0.00,VWS V14.01,2013-06-22 06:46:00,
2013-06-22 02:47:00,68.8,64.1,30.02,SE,127,0.0,0.0,85,0.00,,---,0.00,VWS V14.01,2013-06-22 06:47:00,
2013-06-22 02:48:00,68.8,64.4,30.01,SE,127,0.0,0.0,86,0.00,,---,0.00,VWS V14.01,2013-06-22 06:48:00,
2013-06-22 02:49:00,68.8,64.1,30.02,SE,127,0.0,0.0,85,0.00,,---,0.00,VWS V14.01,2013-06-22 06:49:00,
2013-06-22 02:50:00,68.7,64.0,30.01,SE,127,0.0,0.0,85,0.00,,---,0.00,VWS V14.01,2013-06-22 06:50:00,
2013-06-22 02:51:00,68.6,63.9,30.01,SE,127,0.0,0.0,85,0.00,,---,0.00,VWS V14.01,2013-06-22 06:51:00,
2013-06-22 02:52:00,68.6,64.2,30.01,SE,127,0.0,0.0,86,0.00,,---,0.00,VWS V14.01,2013-06-22 06:52:00,
2013-06-22 02:53:00,68.5,64.2,30.01,SE,127,0.0,0.0,86,0.00,,---,0.00,VWS V14.01,2013-06-22 06:53:00,
2013-06-22 02:54:00,68.4,64.1,30.01,SE,127,0.0,0.0,86,0.00,,---,0.00,VWS V14.01,2013-06-22 06:54:00,
2013-06-22 02:55:00,68.3,64.0,30.01,SE,127,0.0,0.0,86,0.00,,---,0.00,VWS V14.01,2013-06-22 06:55:00,
2013-06-22 02:56:00,68.3,64.0,30.01,SE,127,0.0,0.0,86,0.00,,---,0.00,VWS V14.01,2013-06-22 06:56:00,
2013-06-22 02:57:00,68.2,63.9,30.01,SE,127,0.0,0.0,86,0.00,,---,0.00,VWS V14.01,2013-06-22 06:57:00,
2013-06-22 02:58:00,68.1,63.8,30.01,SE,127,0.0,0.0,86,0.00,,---,0.00,VWS V14.01,2013-06-22 06:58:00,
2013-06-22 02:59:00,68.0,63.7,30.01,SE,127,0.0,0.0,86,0.00,,---,0.00,VWS V14.01,2013-06-22 06:59:00,
2013-06-22 03:00:00,67.9,63.9,30.01,SE,127,0.0,0.0,87,0.00,,---,0.00,VWS V14.01,2013-06-22 07:00:00,
2013-06-22 03:01:00,67.8,63.8,30.02,SE,127,0.0,0.0,87,0.00,,---,0.00,VWS V14.01,2013-06-22 07:01:00,
2013-06-22 03:02:00,67.7,63.7,30.02,SE,127,0.0,0.0,87,0.00,,---,0.00,VWS V14.01,2013-06-22 07:02:00,
2013-06-22 03:03:00,67.7,63.7,30.02,SE,127,0.0,0.0,87,0.00,,---,0.00,VWS V14.01,2013-06-22 07:03:00,
2013-06-22 03:04:00,67.6,63.6,30.02,SE,127,0.0,0.0,87,0.00,,---,0.00,VWS V14.01,2013-06-22 07:04:00,
2013-06-22 03:05:00,67.5,63.8,30.01,SE,127,0.0,0.0,88,0.00,,---,0.00,VWS V14.01,2013-06-22 07:05:00,
2013-06-22 03:06:00,67.4,63.7,30.01,SE,127,0.0,0.0,88,0.00,,---,0.00,VWS V14.01,2013-06-22 07:06:00,
2013-06-22 03:07:00,67.3,63.6,30.01,SE,127,0.0,0.0,88,0.00,,---,0.00,VWS V14.01,2013-06-22 07:07:00,
2013-06-22 03:08:00,67.3,63.6,30.01,SE,127,0.0,0.0,88,0.00,,---,0.00,VWS V14.01,2013-06-22 07:08:00,
2013-06-22 03:09:00,67.2,63.5,30.02,SE,127,0.0,0.0,88,0.00,,---,0.00,VWS V14.01,2013-06-22 07:09:00,
2013-06-22 03:10:00,67.1,63.4,30.01,SE,127,0.0,0.0,88,0.00,,---,0.00,VWS V14.01,2013-06-22 07:10:00,
2013-06-22 03:11:00,67.0,63.3,30.01,SE,127,0.0,0.0,88,0.00,,---,0.00,VWS V14.01,2013-06-22 07:11:00,
2013-06-22 03:12:00,67.0,63.7,30.01,SE,127,0.0,0.0,89,0.00,,---,0.00,VWS V14.01,2013-06-22 07:12:00,
2013-06-22 03:13:00,66.9,63.6,30.01,SE,127,0.0,0.0,89,0.00,,---,0.00,VWS V14.01,2013-06-22 07:13:00,
2013-06-22 03:14:00,66.9,63.6,30.01,SE,127,0.0,0.0,89,0.00,,---,0.00,VWS V14.01,2013-06-22 07:14:00,
2013-06-22 03:15:00,66.9,63.6,30.01,SE,127,0.0,0.0,89,0.00,,---,0.00,VWS V14.01,2013-06-22 07:15:00,
2013-06-22 03:16:00,66.8,63.8,30.01,SE,127,0.0,0.0,90,0.00,,---,0.00,VWS V14.01,2013-06-22 07:16:00,
2013-06-22 03:17:00,66.8,63.8,30.01,SE,127,0.0,0.0,90,0.00,,---,0.00,VWS V14.01,2013-06-22 07:17:00,
2013-06-22 03:18:00,66.8,63.8,30.01,SE,127,0.0,0.0,90,0.00,,---,0.00,VWS V14.01,2013-06-22 07:18:00,
2013-06-22 03:19:00,66.8,63.8,30.01,SE,127,0.0,0.0,90,0.00,,---,0.00,VWS V14.01,2013-06-22 07:19:00,
2013-06-22 03:20:00,66.8,63.8,30.01,SE,127,0.0,0.0,90,0.00,,---,0.00,VWS V14.01,2013-06-22 07:20:00,
2013-06-22 03:21:00,66.8,63.8,30.01,SE,127,0.0,0.0,90,0.00,,---,0.00,VWS V14.01,2013-06-22 07:21:00,
2013-06-22 03:22:00,66.8,63.8,30.01,SE,127,0.0,0.0,90,0.00,,---,0.00,VWS V14.01,2013-06-22 07:22:00,
2013-06-22 03:23:00,66.7,63.7,30.01,SE,127,0.0,0.0,90,0.00,,---,0.00,VWS V14.01,2013-06-22 07:23:00,
2013-06-22 03:24:00,66.7,63.7,30.01,SE,127,0.0,0.0,90,0.00,,---,0.00,VWS V14.01,2013-06-22 07:24:00,
2013-06-22 03:25:00,66.7,63.7,30.01,SE,127,0.0,0.0,90,0.00,,---,0.00,VWS V14.01,2013-06-22 07:25:00,
2013-06-22 03:26:00,66.6,63.6,30.01,SE,127,0.0,0.0,90,0.00,,---,0.00,VWS V14.01,2013-06-22 07:26:00,
2013-06-22 03:27:00,66.6,63.6,30.01,SE,127,0.0,0.0,90,0.00,,---,0.00,VWS V14.01,2013-06-22 07:27:00,
2013-06-22 03:28:00,66.6,63.6,30.01,SE,127,0.0,0.0,90,0.00,,---,0.00,VWS V14.01,2013-06-22 07:28:00,
2013-06-22 03:29:00,66.5,63.5,30.01,SE,127,0.0,0.0,90,0.00,,---,0.00,VWS V14.01,2013-06-22 07:29:00,
2013-06-22 03:30:00,66.5,63.5,30.01,SE,127,0.0,0.0,90,0.00,,---,0.00,VWS V14.01,2013-06-22 07:30:00,
2013-06-22 03:31:00,66.4,63.4,30.01,SE,127,0.0,0.0,90,0.00,,---,0.00,VWS V14.01,2013-06-22 07:31:00,
2013-06-22 03:32:00,66.4,63.7,30.01,SE,127,0.0,0.0,91,0.00,,---,0.00,VWS V14.01,2013-06-22 07:32:00,
2013-06-22 03:33:00,66.4,63.7,30.01,SE,127,0.0,0.0,91,0.00,,---,0.00,VWS V14.01,2013-06-22 07:33:00,
2013-06-22 03:34:00,66.4,63.7,30.01,SE,127,0.0,0.0,91,0.00,,---,0.00,VWS V14.01,2013-06-22 07:34:00,
2013-06-22 03:35:00,66.3,63.6,30.01,SE,127,0.0,0.0,91,0.00,,---,0.00,VWS V14.01,2013-06-22 07:35:00,
2013-06-22 03:36:00,66.3,63.6,30.01,SE,127,0.0,0.0,91,0.00,,---,0.00,VWS V14.01,2013-06-22 07:36:00,
2013-06-22 03:37:00,66.3,63.6,30.01,SE,127,0.0,0.0,91,0.00,,---,0.00,VWS V14.01,2013-06-22 07:37:00,
2013-06-22 03:38:00,66.3,63.6,30.01,SE,127,0.0,0.0,91,0.00,,---,0.00,VWS V14.01,2013-06-22 07:38:00,
2013-06-22 03:39:00,66.2,63.5,30.01,SE,127,0.0,0.0,91,0.00,,---,0.00,VWS V14.01,2013-06-22 07:39:00,
2013-06-22 03:40:00,66.2,63.5,30.01,SE,127,0.0,0.0,91,0.00,,---,0.00,VWS V14.01,2013-06-22 07:40:00,
2013-06-22 03:41:00,66.3,63.6,30.01,SE,127,0.0,0.0,91,0.00,,---,0.00,VWS V14.01,2013-06-22 07:41:00,
2013-06-22 03:42:00,66.2,63.5,30.01,SE,127,0.0,0.0,91,0.00,,---,0.00,VWS V14.01,2013-06-22 07:42:00,
2013-06-22 03:43:00,66.3,63.9,30.01,SE,127,0.0,0.0,92,0.00,,---,0.00,VWS V14.01,2013-06-22 07:43:00,
2013-06-22 03:44:00,66.4,64.0,30.01,SE,127,0.0,0.0,92,0.00,,---,0.00,VWS V14.01,2013-06-22 07:44:00,
2013-06-22 03:45:00,66.6,64.2,30.01,SE,127,0.0,0.0,92,0.00,,---,0.00,VWS V14.01,2013-06-22 07:45:00,
2013-06-22 03:46:00,66.8,64.4,30.01,SSE,149,0.0,0.0,92,0.00,,---,0.00,VWS V14.01,2013-06-22 07:46:00,
2013-06-22 03:47:00,67.0,64.3,30.01,SSE,148,0.0,0.0,91,0.00,,---,0.00,VWS V14.01,2013-06-22 07:47:00,
2013-06-22 03:48:00,67.2,64.5,30.01,SE,131,0.0,0.0,91,0.00,,---,0.00,VWS V14.01,2013-06-22 07:48:00,
2013-06-22 03:49:00,67.5,64.5,30.01,SE,127,0.0,0.0,90,0.00,,---,0.00,VWS V14.01,2013-06-22 07:49:00,
2013-06-22 03:50:00,67.7,64.7,30.01,ESE,102,0.0,1.0,90,0.00,,---,0.00,VWS V14.01,2013-06-22 07:50:00,
2013-06-22 03:51:00,67.9,64.5,30.01,East,101,0.0,1.0,89,0.00,,---,0.00,VWS V14.01,2013-06-22 07:51:00,
2013-06-22 03:52:00,68.0,64.6,30.01,ESE,102,0.0,1.0,89,0.00,,---,0.00,VWS V14.01,2013-06-22 07:52:00,
2013-06-22 03:53:00,68.0,64.3,30.01,East,101,0.0,1.0,88,0.00,,---,0.00,VWS V14.01,2013-06-22 07:53:00,
2013-06-22 03:54:00,68.0,64.3,30.01,East,101,0.0,1.0,88,0.00,,---,0.00,VWS V14.01,2013-06-22 07:54:00,
2013-06-22 03:55:00,67.9,64.2,30.01,East,101,0.0,1.0,88,0.00,,---,0.00,VWS V14.01,2013-06-22 07:55:00,
2013-06-22 03:56:00,67.9,64.2,30.01,East,100,0.0,1.0,88,0.00,,---,0.00,VWS V14.01,2013-06-22 07:56:00,
2013-06-22 03:57:00,67.8,64.1,30.01,East,101,0.0,1.0,88,0.00,,---,0.00,VWS V14.01,2013-06-22 07:57:00,
2013-06-22 03:58:00,67.7,64.0,30.01,East,101,0.0,1.0,88,0.00,,---,0.00,VWS V14.01,2013-06-22 07:58:00,
2013-06-22 03:59:00,67.6,63.9,30.01,ESE,102,0.0,1.0,88,0.00,,---,0.00,VWS V14.01,2013-06-22 07:59:00,
2013-06-22 04:00:00,67.5,63.8,30.01,East,101,0.0,1.0,88,0.00,,---,0.00,VWS V14.01,2013-06-22 08:00:00,
2013-06-22 04:01:00,67.4,63.7,30.01,East,101,0.0,0.0,88,0.00,,---,0.00,VWS V14.01,2013-06-22 08:01:00,
2013-06-22 04:02:00,67.3,64.0,30.01,East,100,0.0,0.0,89,0.00,,---,0.00,VWS V14.01,2013-06-22 08:02:00,
2013-06-22 04:03:00,67.2,63.8,30.01,East,101,0.0,0.0,89,0.00,,---,0.00,VWS V14.01,2013-06-22 08:03:00,
2013-06-22 04:04:00,67.2,63.8,30.02,East,101,0.0,0.0,89,0.00,,---,0.00,VWS V14.01,2013-06-22 08:04:00,
2013-06-22 04:05:00,67.1,63.8,30.01,ESE,102,0.0,0.0,89,0.00,,---,0.00,VWS V14.01,2013-06-22 08:05:00,
2013-06-22 04:06:00,67.1,64.1,30.01,East,100,0.0,0.0,90,0.00,,---,0.00,VWS V14.01,2013-06-22 08:06:00,
2013-06-22 04:07:00,67.0,64.0,30.01,East,101,0.0,0.0,90,0.00,,---,0.00,VWS V14.01,2013-06-22 08:07:00,
2013-06-22 04:08:00,67.0,64.0,30.01,East,101,0.0,0.0,90,0.00,,---,0.00,VWS V14.01,2013-06-22 08:08:00,
2013-06-22 04:09:00,67.0,64.0,30.01,East,101,0.0,0.0,90,0.00,,---,0.00,VWS V14.01,2013-06-22 08:09:00,
2013-06-22 04:10:00,66.9,63.9,30.01,East,100,0.0,0.0,90,0.00,,---,0.00,VWS V14.01,2013-06-22 08:10:00,
2013-06-22 04:11:00,66.9,63.9,30.02,East,101,0.0,0.0,90,0.00,,---,0.00,VWS V14.01,2013-06-22 08:11:00,
2013-06-22 04:12:00,66.9,63.9,30.02,East,100,0.0,0.0,90,0.00,,---,0.00,VWS V14.01,2013-06-22 08:12:00,
2013-06-22 04:13:00,66.9,63.9,30.02,ESE,102,0.0,0.0,90,0.00,,---,0.00,VWS V14.01,2013-06-22 08:13:00,
2013-06-22 04:14:00,66.9,63.9,30.02,East,101,0.0,0.0,90,0.00,,---,0.00,VWS V14.01,2013-06-22 08:14:00,
2013-06-22 04:15:00,66.8,63.8,30.02,ESE,102,0.0,0.0,90,0.00,,---,0.00,VWS V14.01,2013-06-22 08:15:00,
2013-06-22 04:16:00,66.8,63.8,30.02,ESE,102,0.0,0.0,90,0.00,,---,0.00,VWS V14.01,2013-06-22 08:16:00,
2013-06-22 04:17:00,66.8,63.8,30.02,East,101,0.0,0.0,90,0.00,,---,0.00,VWS V14.01,2013-06-22 08:17:00,
2013-06-22 04:18:00,66.8,63.8,30.02,East,100,0.0,0.0,90,0.00,,---,0.00,VWS V14.01,2013-06-22 08:18:00,
2013-06-22 04:19:00,66.8,63.8,30.02,East,100,0.0,0.0,90,0.00,,---,0.00,VWS V14.01,2013-06-22 08:19:00,
2013-06-22 04:20:00,66.7,63.7,30.02,East,101,0.0,0.0,90,0.00,,---,0.00,VWS V14.01,2013-06-22 08:20:00,
2013-06-22 04:21:00,66.7,63.7,30.02,East,101,0.0,0.0,90,0.00,,---,0.00,VWS V14.01,2013-06-22 08:21:00,
2013-06-22 04:22:00,66.7,63.7,30.02,East,101,0.0,0.0,90,0.00,,---,0.00,VWS V14.01,2013-06-22 08:22:00,
2013-06-22 04:23:00,66.8,63.8,30.03,East,101,0.0,0.0,90,0.00,,---,0.00,VWS V14.01,2013-06-22 08:23:00,
2013-06-22 04:24:00,66.8,63.8,30.03,East,101,0.0,0.0,90,0.00,,---,0.00,VWS V14.01,2013-06-22 08:24:00,
2013-06-22 04:25:00,66.8,64.1,30.03,East,101,0.0,0.0,91,0.00,,---,0.00,VWS V14.01,2013-06-22 08:25:00,
2013-06-22 04:26:00,66.8,64.1,30.03,ESE,102,0.0,0.0,91,0.00,,---,0.00,VWS V14.01,2013-06-22 08:26:00,
2013-06-22 04:27:00,66.8,64.1,30.03,East,101,0.0,0.0,91,0.00,,---,0.00,VWS V14.01,2013-06-22 08:27:00,
2013-06-22 04:28:00,66.9,64.2,30.03,East,101,0.0,0.0,91,0.00,,---,0.00,VWS V14.01,2013-06-22 08:28:00,
2013-06-22 04:29:00,66.9,64.2,30.03,ESE,102,0.0,0.0,91,0.00,,---,0.00,VWS V14.01,2013-06-22 08:29:00,
2013-06-22 04:30:00,67.0,64.3,30.03,East,101,0.0,0.0,91,0.00,,---,0.00,VWS V14.01,2013-06-22 08:30:00,
2013-06-22 04:31:00,67.1,64.4,30.03,ESE,102,0.0,0.0,91,0.00,,---,0.00,VWS V14.01,2013-06-22 08:31:00,
2013-06-22 04:32:00,67.1,64.4,30.03,SSE,158,0.0,0.0,91,0.00,,---,0.00,VWS V14.01,2013-06-22 08:32:00,
2013-06-22 04:33:00,67.3,64.6,30.03,SSE,158,0.0,0.0,91,0.00,,---,0.00,VWS V14.01,2013-06-22 08:33:00,
2013-06-22 04:34:00,67.3,64.3,30.03,SSE,158,0.0,0.0,90,0.00,,---,0.00,VWS V14.01,2013-06-22 08:34:00,
2013-06-22 04:35:00,67.4,64.4,30.03,SE,139,0.0,0.0,90,0.00,,---,0.00,VWS V14.01,2013-06-22 08:35:00,
2013-06-22 04:36:00,67.6,64.6,30.03,SE,139,0.0,0.0,90,0.00,,---,0.00,VWS V14.01,2013-06-22 08:36:00,
2013-06-22 04:37:00,67.8,64.8,30.03,SSW,203,0.0,0.0,90,0.00,,---,0.00,VWS V14.01,2013-06-22 08:37:00,
2013-06-22 04:38:00,68.0,64.6,30.03,SSW,203,0.0,0.0,89,0.00,,---,0.00,VWS V14.01,2013-06-22 08:38:00,
2013-06-22 04:39:00,68.2,64.8,30.03,SSW,201,0.0,0.0,89,0.00,,---,0.00,VWS V14.01,2013-06-22 08:39:00,
2013-06-22 04:40:00,68.4,64.7,30.03,SE,139,0.0,0.0,88,0.00,,---,0.00,VWS V14.01,2013-06-22 08:40:00,
2013-06-22 04:41:00,68.6,64.9,30.03,SSW,197,0.0,0.0,88,0.00,,---,0.00,VWS V14.01,2013-06-22 08:41:00,
2013-06-22 04:42:00,68.9,64.9,30.03,SE,136,0.0,1.0,87,0.00,,---,0.00,VWS V14.01,2013-06-22 08:42:00,
2013-06-22 04:43:00,69.0,65.0,30.03,SE,136,0.0,1.0,87,0.00,,---,0.00,VWS V14.01,2013-06-22 08:43:00,
2013-06-22 04:44:00,69.3,64.9,30.03,SE,143,2.0,2.0,86,0.00,,---,0.00,VWS V14.01,2013-06-22 08:44:00,
2013-06-22 04:45:00,69.5,64.8,30.02,SE,142,1.0,3.0,85,0.00,,---,0.00,VWS V14.01,2013-06-22 08:45:00,
2013-06-22 04:46:00,69.7,65.0,30.02,SE,143,0.0,3.0,85,0.00,,---,0.00,VWS V14.01,2013-06-22 08:46:00,
2013-06-22 04:47:00,69.8,64.8,30.02,SE,146,2.0,3.0,84,0.00,,---,0.00,VWS V14.01,2013-06-22 08:47:00,
2013-06-22 04:48:00,70.0,64.9,30.02,SW,215,0.0,3.0,84,0.00,,---,0.00,VWS V14.01,2013-06-22 08:48:00,
2013-06-22 04:49:00,70.1,65.1,30.02,SE,146,1.0,3.0,84,0.00,,---,0.00,VWS V14.01,2013-06-22 08:49:00,
2013-06-22 04:50:00,70.2,64.8,30.02,SE,134,1.0,3.0,83,0.00,,---,0.00,VWS V14.01,2013-06-22 08:50:00,
2013-06-22 04:51:00,70.3,64.9,30.02,SSE,161,0.0,3.0,83,0.00,,---,0.00,VWS V14.01,2013-06-22 08:51:00,
2013-06-22 04:52:00,70.4,65.0,30.02,South,176,1.0,3.0,83,0.00,,---,0.00,VWS V14.01,2013-06-22 08:52:00,
2013-06-22 04:53:00,70.5,65.1,30.02,SE,138,0.0,3.0,83,0.00,,---,0.00,VWS V14.01,2013-06-22 08:53:00,
2013-06-22 04:54:00,70.6,65.2,30.02,SE,138,0.0,3.0,83,0.00,,---,0.00,VWS V14.01,2013-06-22 08:54:00,
2013-06-22 04:55:00,70.6,64.8,30.02,SE,143,1.0,3.0,82,0.00,,---,0.00,VWS V14.01,2013-06-22 08:55:00,
2013-06-22 04:56:00,70.7,64.9,30.02,SE,144,0.0,3.0,82,0.00,,---,0.00,VWS V14.01,2013-06-22 08:56:00,
2013-06-22 04:57:00,70.7,64.9,30.02,South,183,1.0,3.0,82,0.00,,---,0.00,VWS V14.01,2013-06-22 08:57:00,
2013-06-22 04:58:00,70.8,65.0,30.02,SW,218,0.0,3.0,82,0.00,,---,0.00,VWS V14.01,2013-06-22 08:58:00,
2013-06-22 04:59:00,70.9,65.1,30.02,SW,218,0.0,3.0,82,0.00,,---,0.00,VWS V14.01,2013-06-22 08:59:00,
2013-06-22 05:00:00,70.9,65.1,30.02,SSW,197,0.0,3.0,82,0.00,,---,0.00,VWS V14.01,2013-06-22 09:00:00,
2013-06-22 05:01:00,71.0,64.9,30.02,South,172,0.0,1.0,81,0.00,,---,0.00,VWS V14.01,2013-06-22 09:01:00,
2013-06-22 05:02:00,71.1,65.0,30.02,South,172,0.0,1.0,81,0.00,,---,0.00,VWS V14.01,2013-06-22 09:02:00,
2013-06-22 05:03:00,71.1,65.0,30.02,South,186,0.0,1.0,81,0.00,,---,0.00,VWS V14.01,2013-06-22 09:03:00,
2013-06-22 05:04:00,71.1,65.0,30.02,South,188,0.0,1.0,81,0.00,,---,0.00,VWS V14.01,2013-06-22 09:04:00,
2013-06-22 05:05:00,71.1,65.0,30.02,South,188,0.0,1.0,81,0.00,,---,0.00,VWS V14.01,2013-06-22 09:05:00,
2013-06-22 05:06:00,71.2,65.1,30.02,South,188,0.0,1.0,81,0.00,,---,0.00,VWS V14.01,2013-06-22 09:06:00,
2013-06-22 05:07:00,71.2,65.1,30.02,SE,124,1.0,1.0,81,0.00,,---,0.00,VWS V14.01,2013-06-22 09:07:00,
2013-06-22 05:08:00,71.2,65.1,30.02,SE,136,1.0,2.0,81,0.00,,---,0.00,VWS V14.01,2013-06-22 09:08:00,
2013-06-22 05:09:00,71.2,65.1,30.02,SSE,148,1.0,2.0,81,0.00,,---,0.00,VWS V14.01,2013-06-22 09:09:00,
2013-06-22 05:10:00,71.3,65.2,30.02,SSE,149,0.0,2.0,81,0.00,,---,0.00,VWS V14.01,2013-06-22 09:10:00,
2013-06-22 05:11:00,71.4,65.3,30.02,SE,131,0.0,2.0,81,0.00,,---,0.00,VWS V14.01,2013-06-22 09:11:00,
2013-06-22 05:12:00,71.4,65.3,30.02,SSW,200,1.0,2.0,81,0.00,,---,0.00,VWS V14.01,2013-06-22 09:12:00,
2013-06-22 05:13:00,71.5,65.4,30.02,SSW,198,0.0,2.0,81,0.00,,---,0.00,VWS V14.01,2013-06-22 09:13:00,
2013-06-22 05:14:00,71.5,65.4,30.02,SSW,208,1.0,2.0,81,0.00,,---,0.00,VWS V14.01,2013-06-22 09:14:00,
2013-06-22 05:15:00,71.5,65.0,30.02,SSE,158,1.0,2.0,80,0.00,,---,0.00,VWS V14.01,2013-06-22 09:15:00,
2013-06-22 05:16:00,71.6,65.1,30.02,SE,138,1.0,2.0,80,0.00,,---,0.00,VWS V14.01,2013-06-22 09:16:00,
2013-06-22 05:17:00,71.6,65.1,30.02,SE,142,1.0,2.0,80,0.00,,---,0.00,VWS V14.01,2013-06-22 09:17:00,
2013-06-22 05:18:00,71.7,65.2,30.02,South,191,0.0,2.0,80,0.00,,---,0.00,VWS V14.01,2013-06-22 09:18:00,
2013-06-22 05:19:00,71.7,65.2,30.02,SSW,192,0.0,2.0,80,0.00,,---,0.00,VWS V14.01,2013-06-22 09:19:00,
2013-06-22 05:20:00,71.7,65.2,30.02,SE,124,1.0,2.0,80,0.00,,---,0.00,VWS V14.01,2013-06-22 09:20:00,
2013-06-22 05:21:00,71.8,65.3,30.02,SE,126,1.0,2.0,80,0.00,,---,0.00,VWS V14.01,2013-06-22 09:21:00,
2013-06-22 05:22:00,71.8,65.3,30.02,South,174,1.0,2.0,80,0.00,,---,0.00,VWS V14.01,2013-06-22 09:22:00,
2013-06-22 05:23:00,71.9,65.4,30.02,SSW,193,1.0,3.0,80,0.00,,---,0.00,VWS V14.01,2013-06-22 09:23:00,
2013-06-22 05:24:00,72.0,65.5,30.03,SSE,147,0.0,3.0,80,0.00,,---,0.00,VWS V14.01,2013-06-22 09:24:00,
2013-06-22 05:25:00,72.0,65.5,30.03,South,184,1.0,3.0,80,0.00,,---,0.00,VWS V14.01,2013-06-22 09:25:00,
2013-06-22 05:26:00,72.0,65.5,30.03,South,173,2.0,3.0,80,0.00,,---,0.00,VWS V14.01,2013-06-22 09:26:00,
2013-06-22 05:27:00,72.1,65.6,30.02,SE,139,1.0,3.0,80,0.00,,---,0.00,VWS V14.01,2013-06-22 09:27:00,
2013-06-22 05:28:00,72.1,65.6,30.03,SE,125,0.0,3.0,80,0.00,,---,0.00,VWS V14.01,2013-06-22 09:28:00,
2013-06-22 05:29:00,72.2,65.7,30.03,SSW,197,2.0,3.0,80,0.00,,---,0.00,VWS V14.01,2013-06-22 09:29:00,
2013-06-22 05:30:00,72.3,65.8,30.02,ESE,122,1.0,3.0,80,0.00,,---,0.00,VWS V14.01,2013-06-22 09:30:00,
2013-06-22 05:31:00,72.3,65.8,30.03,SSE,162,0.0,2.0,80,0.00,,---,0.00,VWS V14.01,2013-06-22 09:31:00,
2013-06-22 05:32:00,72.4,65.9,30.03,SSW,205,1.0,3.0,80,0.00,,---,0.00,VWS V14.01,2013-06-22 09:32:00,
2013-06-22 05:33:00,72.4,65.9,30.03,East,94,1.0,3.0,80,0.00,,---,0.00,VWS V14.01,2013-06-22 09:33:00,
2013-06-22 05:34:00,72.4,65.9,30.03,SSE,158,1.0,3.0,80,0.00,,---,0.00,VWS V14.01,2013-06-22 09:34:00,
2013-06-22 05:35:00,72.5,66.0,30.03,SSE,158,0.0,3.0,80,0.00,,---,0.00,VWS V14.01,2013-06-22 09:35:00,
2013-06-22 05:36:00,72.5,65.6,30.03,South,187,2.0,3.0,79,0.00,,---,0.00,VWS V14.01,2013-06-22 09:36:00,
2013-06-22 05:37:00,72.5,65.6,30.03,SE,124,1.0,3.0,79,0.00,,---,0.00,VWS V14.01,2013-06-22 09:37:00,
2013-06-22 05:38:00,72.6,66.1,30.03,SE,139,1.0,3.0,80,0.00,,---,0.00,VWS V14.01,2013-06-22 09:38:00,
2013-06-22 05:39:00,72.6,65.7,30.03,SSE,155,4.0,5.0,79,0.00,,---,0.00,VWS V14.01,2013-06-22 09:39:00,
2013-06-22 05:40:00,72.6,65.7,30.02,WSW,252,1.0,5.0,79,0.00,,---,0.00,VWS V14.01,2013-06-22 09:40:00,
2013-06-22 05:41:00,72.7,65.8,30.03,SW,222,1.0,5.0,79,0.00,,---,0.00,VWS V14.01,2013-06-22 09:41:00,
2013-06-22 05:42:00,72.7,65.8,30.02,SW,214,1.0,5.0,79,0.00,,---,0.00,VWS V14.01,2013-06-22 09:42:00,
2013-06-22 05:43:00,72.8,65.9,30.02,South,188,0.0,5.0,79,0.00,,---,0.00,VWS V14.01,2013-06-22 09:43:00,
2013-06-22 05:44:00,72.8,65.9,30.02,SE,135,2.0,5.0,79,0.00,,---,0.00,VWS V14.01,2013-06-22 09:44:00,
2013-06-22 05:45:00,72.8,65.9,30.02,ESE,117,2.0,5.0,79,0.00,,---,0.00,VWS V14.01,2013-06-22 09:45:00,
2013-06-22 05:46:00,72.9,66.0,30.02,ESE,105,2.0,5.0,79,0.00,,---,0.00,VWS V14.01,2013-06-22 09:46:00,
2013-06-22 05:47:00,72.9,66.0,30.02,WSW,240,1.0,5.0,79,0.00,,---,0.00,VWS V14.01,2013-06-22 09:47:00,
2013-06-22 05:48:00,72.9,66.0,30.02,SSE,162,3.0,5.0,79,0.00,,---,0.00,VWS V14.01,2013-06-22 09:48:00,
2013-06-22 05:49:00,73.0,66.1,30.02,ESE,120,1.0,5.0,79,0.00,,---,0.00,VWS V14.01,2013-06-22 09:49:00,
2013-06-22 05:50:00,73.0,66.1,30.02,SSW,201,2.0,5.0,79,0.00,,---,0.00,VWS V14.01,2013-06-22 09:50:00,
2013-06-22 05:51:00,73.1,66.2,30.03,ESE,122,1.0,5.0,79,0.00,,---,0.00,VWS V14.01,2013-06-22 09:51:00,
2013-06-22 05:52:00,73.1,66.2,30.03,SSW,194,1.0,5.0,79,0.00,,---,0.00,VWS V14.01,2013-06-22 09:52:00,
2013-06-22 05:53:00,73.1,66.2,30.02,SE,138,2.0,5.0,79,0.00,,---,0.00,VWS V14.01,2013-06-22 09:53:00,
2013-06-22 05:54:00,73.1,66.2,30.02,SE,134,1.0,5.0,79,0.00,,---,0.00,VWS V14.01,2013-06-22 09:54:00,
2013-06-22 05:55:00,73.2,66.3,30.03,SE,145,1.0,5.0,79,0.00,,---,0.00,VWS V14.01,2013-06-22 09:55:00,
2013-06-22 05:56:00,73.2,66.3,30.03,SW,229,2.0,5.0,79,0.00,,---,0.00,VWS V14.01,2013-06-22 09:56:00,
2013-06-22 05:57:00,73.3,66.4,30.03,South,190,5.0,5.0,79,0.00,,---,0.00,VWS V14.01,2013-06-22 09:57:00,
2013-06-22 05:58:00,73.3,66.4,30.03,SSW,203,3.0,5.0,79,0.00,,---,0.00,VWS V14.01,2013-06-22 09:58:00,
2013-06-22 05:59:00,73.4,66.5,30.03,ESE,111,2.0,5.0,79,0.00,,---,0.00,VWS V14.01,2013-06-22 09:59:00,
2013-06-22 06:00:00,73.4,66.5,30.03,SW,214,0.0,5.0,79,0.00,,---,0.00,VWS V14.01,2013-06-22 10:00:00,
2013-06-22 06:01:00,73.5,66.6,30.03,SE,137,1.0,1.0,79,0.00,,---,0.00,VWS V14.01,2013-06-22 10:01:00,
2013-06-22 06:02:00,73.5,66.6,30.03,SW,214,1.0,2.0,79,0.00,,---,0.00,VWS V14.01,2013-06-22 10:02:00,
2013-06-22 06:03:00,73.5,66.6,30.03,SW,218,2.0,3.0,79,0.00,,---,0.00,VWS V14.01,2013-06-22 10:03:00,
2013-06-22 06:04:00,73.6,66.7,30.03,SE,140,1.0,3.0,79,0.00,,---,0.00,VWS V14.01,2013-06-22 10:04:00,
2013-06-22 06:05:00,73.6,66.7,30.03,SW,215,1.0,4.0,79,0.00,,---,0.00,VWS V14.01,2013-06-22 10:05:00,
2013-06-22 06:06:00,73.7,66.8,30.03,SW,228,2.0,4.0,79,0.00,,---,0.00,VWS V14.01,2013-06-22 10:06:00,
2013-06-22 06:07:00,73.7,66.8,30.03,SW,225,2.0,4.0,79,0.00,,---,0.00,VWS V14.01,2013-06-22 10:07:00,
2013-06-22 06:08:00,73.7,66.8,30.03,SE,146,2.0,4.0,79,0.00,,---,0.00,VWS V14.01,2013-06-22 10:08:00,
2013-06-22 06:09:00,73.7,66.8,30.03,South,187,2.0,5.0,79,0.00,,---,0.00,VWS V14.01,2013-06-22 10:09:00,
2013-06-22 06:10:00,73.8,66.9,30.03,SE,139,3.0,7.0,79,0.00,,---,0.00,VWS V14.01,2013-06-22 10:10:00,
2013-06-22 06:11:00,73.9,67.0,30.03,SE,139,3.0,7.0,79,0.00,,---,0.00,VWS V14.01,2013-06-22 10:11:00,
2013-06-22 06:12:00,73.9,67.0,30.03,SSW,203,3.0,7.0,79,0.00,,---,0.00,VWS V14.01,2013-06-22 10:12:00,
2013-06-22 06:13:00,73.9,67.0,30.03,SSW,198,4.0,7.0,79,0.00,,---,0.00,VWS V14.01,2013-06-22 10:13:00,
2013-06-22 06:14:00,74.0,67.1,30.03,South,188,1.0,7.0,79,0.00,,---,0.00,VWS V14.01,2013-06-22 10:14:00,
2013-06-22 06:15:00,74.0,67.1,30.03,SSE,167,2.0,7.0,79,0.00,,---,0.00,VWS V14.01,2013-06-22 10:15:00,
2013-06-22 06:16:00,74.0,67.1,30.03,SSE,164,2.0,7.0,79,0.00,,---,0.00,VWS V14.01,2013-06-22 10:16:00,
2013-06-22 06:17:00,74.1,67.2,30.03,SSW,208,2.0,7.0,79,0.00,,---,0.00,VWS V14.01,2013-06-22 10:17:00,
2013-06-22 06:18:00,74.1,67.2,30.03,SE,127,3.0,7.0,79,0.00,,---,0.00,VWS V14.01,2013-06-22 10:18:00,
2013-06-22 06:19:00,74.1,67.2,30.03,SSW,197,2.0,7.0,79,0.00,,---,0.00,VWS V14.01,2013-06-22 10:19:00,
2013-06-22 06:20:00,74.2,67.3,30.03,SE,126,2.0,7.0,79,0.00,,---,0.00,VWS V14.01,2013-06-22 10:20:00,
2013-06-22 06:21:00,74.2,67.3,30.03,SSW,205,1.0,7.0,79,0.00,,---,0.00,VWS V14.01,2013-06-22 10:21:00,
2013-06-22 06:22:00,74.2,67.3,30.03,SE,138,4.0,7.0,79,0.00,,---,0.00,VWS V14.01,2013-06-22 10:22:00,
2013-06-22 06:23:00,74.2,67.3,30.03,SSW,193,2.0,7.0,79,0.00,,---,0.00,VWS V14.01,2013-06-22 10:23:00,
2013-06-22 06:24:00,74.3,67.0,30.03,SW,224,3.0,7.0,78,0.00,,---,0.00,VWS V14.01,2013-06-22 10:24:00,
2013-06-22 06:25:00,74.3,67.4,30.03,SSW,201,0.0,7.0,79,0.00,,---,0.00,VWS V14.01,2013-06-22 10:25:00,
2013-06-22 06:26:00,74.4,67.1,30.03,SE,143,3.0,7.0,78,0.00,,---,0.00,VWS V14.01,2013-06-22 10:26:00,
2013-06-22 06:27:00,74.4,67.5,30.03,West,270,2.0,7.0,79,0.00,,---,0.00,VWS V14.01,2013-06-22 10:27:00,
2013-06-22 06:28:00,74.4,67.1,30.03,SW,224,2.0,7.0,78,0.00,,---,0.00,VWS V14.01,2013-06-22 10:28:00,
2013-06-22 06:29:00,74.5,67.6,30.03,SSE,152,1.0,7.0,79,0.00,,---,0.00,VWS V14.01,2013-06-22 10:29:00,
2013-06-22 06:30:00,74.5,67.2,30.03,SSE,149,5.0,7.0,78,0.00,,---,0.00,VWS V14.01,2013-06-22 10:30:00,
2013-06-22 06:31:00,74.5,67.2,30.03,SSW,201,3.0,5.0,78,0.00,,---,0.00,VWS V14.01,2013-06-22 10:31:00,
2013-06-22 06:32:00,74.6,67.3,30.03,SW,221,3.0,5.0,78,0.00,,---,0.00,VWS V14.01,2013-06-22 10:32:00,
2013-06-22 06:33:00,74.7,67.4,30.03,WSW,252,3.0,5.0,78,0.00,,---,0.00,VWS V14.01,2013-06-22 10:33:00,
2013-06-22 06:34:00,74.7,67.4,30.04,SSW,212,1.0,6.0,78,0.00,,---,0.00,VWS V14.01,2013-06-22 10:34:00,
2013-06-22 06:35:00,74.7,67.4,30.04,SE,132,1.0,6.0,78,0.00,,---,0.00,VWS V14.01,2013-06-22 10:35:00,
2013-06-22 06:36:00,74.8,67.5,30.04,SSW,210,2.0,6.0,78,0.00,,---,0.00,VWS V14.01,2013-06-22 10:36:00,
2013-06-22 06:37:00,74.8,67.5,30.04,SSW,198,2.0,6.0,78,0.00,,---,0.00,VWS V14.01,2013-06-22 10:37:00,
2013-06-22 06:38:00,74.9,67.6,30.04,WSW,238,1.0,6.0,78,0.00,,---,0.00,VWS V14.01,2013-06-22 10:38:00,
2013-06-22 06:39:00,75.0,67.7,30.04,SSW,205,3.0,6.0,78,0.00,,---,0.00,VWS V14.01,2013-06-22 10:39:00,
2013-06-22 06:40:00,75.0,67.7,30.04,SSW,194,1.0,6.0,78,0.00,,---,0.00,VWS V14.01,2013-06-22 10:40:00,
2013-06-22 06:41:00,75.1,67.8,30.04,SSW,205,2.0,6.0,78,0.00,,---,0.00,VWS V14.01,2013-06-22 10:41:00,
2013-06-22 06:42:00,75.1,67.8,30.04,WSW,246,4.0,6.0,78,0.00,,---,0.00,VWS V14.01,2013-06-22 10:42:00,
2013-06-22 06:43:00,75.1,67.8,30.04,SW,222,3.0,6.0,78,0.00,,---,0.00,VWS V14.01,2013-06-22 10:43:00,
2013-06-22 06:44:00,75.1,67.8,30.04,WSW,243,5.0,7.0,78,0.00,,---,0.00,VWS V14.01,2013-06-22 10:44:00,
2013-06-22 06:45:00,75.1,67.8,30.04,WSW,240,5.0,7.0,78,0.00,,---,0.00,VWS V14.01,2013-06-22 10:45:00,
2013-06-22 06:46:00,75.1,67.8,30.04,SSW,210,1.0,7.0,78,0.00,,---,0.00,VWS V14.01,2013-06-22 10:46:00,
2013-06-22 06:47:00,75.1,67.8,30.05,SW,231,3.0,7.0,78,0.00,,---,0.00,VWS V14.01,2013-06-22 10:47:00,
2013-06-22 06:48:00,75.2,67.9,30.05,SSW,192,4.0,7.0,78,0.00,,---,0.00,VWS V14.01,2013-06-22 10:48:00,
2013-06-22 06:49:00,75.2,67.9,30.05,SW,225,2.0,7.0,78,0.00,,---,0.00,VWS V14.01,2013-06-22 10:49:00,
2013-06-22 06:50:00,75.2,67.9,30.05,South,183,3.0,7.0,78,0.00,,---,0.00,VWS V14.01,2013-06-22 10:50:00,
2013-06-22 06:51:00,75.3,68.0,30.05,SW,222,1.0,7.0,78,0.00,,---,0.00,VWS V14.01,2013-06-22 10:51:00,
2013-06-22 06:52:00,75.3,68.0,30.05,WSW,244,0.0,7.0,78,0.00,,---,0.00,VWS V14.01,2013-06-22 10:52:00,
2013-06-22 06:53:00,75.3,68.0,30.05,SW,224,3.0,7.0,78,0.00,,---,0.00,VWS V14.01,2013-06-22 10:53:00,
2013-06-22 06:54:00,75.3,68.0,30.05,SW,221,0.0,7.0,78,0.00,,---,0.00,VWS V14.01,2013-06-22 10:54:00,
2013-06-22 06:55:00,75.3,68.0,30.05,West,267,2.0,7.0,78,0.00,,---,0.00,VWS V14.01,2013-06-22 10:55:00,
2013-06-22 06:56:00,75.3,68.0,30.05,South,188,2.0,7.0,78,0.00,,---,0.00,VWS V14.01,2013-06-22 10:56:00,
2013-06-22 06:57:00,75.3,68.0,30.05,SE,146,2.0,7.0,78,0.00,,---,0.00,VWS V14.01,2013-06-22 10:57:00,
2013-06-22 06:58:00,75.3,68.0,30.05,SSE,159,2.0,7.0,78,0.00,,---,0.00,VWS V14.01,2013-06-22 10:58:00,
2013-06-22 06:59:00,75.3,68.0,30.05,SSE,156,2.0,7.0,78,0.00,,---,0.00,VWS V14.01,2013-06-22 10:59:00,
2013-06-22 07:00:00,75.3,68.0,30.05,SE,146,1.0,7.0,78,0.00,,---,0.00,VWS V14.01,2013-06-22 11:00:00,
2013-06-22 07:01:00,75.3,68.0,30.05,SW,229,2.0,3.0,78,0.00,,---,0.00,VWS V14.01,2013-06-22 11:01:00,
2013-06-22 07:02:00,75.3,68.0,30.05,WSW,251,5.0,5.0,78,0.00,,---,0.00,VWS V14.01,2013-06-22 11:02:00,
2013-06-22 07:03:00,75.3,68.0,30.05,SSW,192,5.0,6.0,78,0.00,,---,0.00,VWS V14.01,2013-06-22 11:03:00,
2013-06-22 07:04:00,75.3,68.0,30.05,WSW,250,3.0,6.0,78,0.00,,---,0.00,VWS V14.01,2013-06-22 11:04:00,
2013-06-22 07:05:00,75.3,68.0,30.04,SE,128,4.0,6.0,78,0.00,,---,0.00,VWS V14.01,2013-06-22 11:05:00,
2013-06-22 07:06:00,75.4,68.4,30.04,SW,217,9.0,9.0,79,0.00,,---,0.00,VWS V14.01,2013-06-22 11:06:00,
2013-06-22 07:07:00,75.3,68.0,30.04,South,183,1.0,9.0,78,0.00,,---,0.00,VWS V14.01,2013-06-22 11:07:00,
2013-06-22 07:08:00,75.4,68.1,30.05,SW,219,2.0,9.0,78,0.00,,---,0.00,VWS V14.01,2013-06-22 11:08:00,
2013-06-22 07:09:00,75.4,68.1,30.05,WSW,255,3.0,9.0,78,0.00,,---,0.00,VWS V14.01,2013-06-22 11:09:00,
2013-06-22 07:10:00,75.4,68.4,30.05,SE,132,2.0,9.0,79,0.00,,---,0.00,VWS V14.01,2013-06-22 11:10:00,
2013-06-22 07:11:00,75.4,68.4,30.05,SW,217,3.0,9.0,79,0.00,,---,0.00,VWS V14.01,2013-06-22 11:11:00,
2013-06-22 07:12:00,75.4,68.1,30.05,SW,215,2.0,9.0,78,0.00,,---,0.00,VWS V14.01,2013-06-22 11:12:00,
2013-06-22 07:13:00,75.4,68.1,30.05,SSW,208,4.0,9.0,78,0.00,,---,0.00,VWS V14.01,2013-06-22 11:13:00,
2013-06-22 07:14:00,75.4,68.1,30.05,SW,228,2.0,9.0,78,0.00,,---,0.00,VWS V14.01,2013-06-22 11:14:00,
2013-06-22 07:15:00,75.4,68.1,30.05,SW,233,3.0,9.0,78,0.00,,---,0.00,VWS V14.01,2013-06-22 11:15:00,
2013-06-22 07:16:00,75.4,68.4,30.05,West,277,2.0,9.0,79,0.00,,---,0.00,VWS V14.01,2013-06-22 11:16:00,
2013-06-22 07:17:00,75.4,68.4,30.05,SE,130,2.0,9.0,79,0.00,,---,0.00,VWS V14.01,2013-06-22 11:17:00,
2013-06-22 07:18:00,75.4,68.4,30.05,SW,222,4.0,9.0,79,0.00,,---,0.00,VWS V14.01,2013-06-22 11:18:00,
2013-06-22 07:19:00,75.4,68.4,30.05,SSW,193,1.0,9.0,79,0.00,,---,0.00,VWS V14.01,2013-06-22 11:19:00,
2013-06-22 07:20:00,75.4,68.4,30.05,South,170,3.0,9.0,79,0.00,,---,0.00,VWS V14.01,2013-06-22 11:20:00,
2013-06-22 07:21:00,75.4,68.4,30.05,WSW,240,0.0,9.0,79,0.00,,---,0.00,VWS V14.01,2013-06-22 11:21:00,
2013-06-22 07:22:00,75.4,68.4,30.05,West,278,1.0,9.0,79,0.00,,---,0.00,VWS V14.01,2013-06-22 11:22:00,
2013-06-22 07:23:00,75.5,68.9,30.05,SSW,213,1.0,9.0,80,0.00,,---,0.00,VWS V14.01,2013-06-22 11:23:00,
2013-06-22 07:24:00,75.5,68.5,30.05,SSW,198,1.0,9.0,79,0.00,,---,0.00,VWS V14.01,2013-06-22 11:24:00,
2013-06-22 07:25:00,75.5,68.5,30.05,WSW,252,1.0,9.0,79,0.00,,---,0.00,VWS V14.01,2013-06-22 11:25:00,
2013-06-22 07:26:00,75.6,68.6,30.05,WSW,253,0.0,9.0,79,0.00,,---,0.00,VWS V14.01,2013-06-22 11:26:00,
2013-06-22 07:27:00,75.6,68.6,30.05,WSW,252,0.0,9.0,79,0.00,,---,0.00,VWS V14.01,2013-06-22 11:27:00,
2013-06-22 07:28:00,75.6,68.6,30.05,WNW,284,2.0,9.0,79,0.00,,---,0.00,VWS V14.01,2013-06-22 11:28:00,
2013-06-22 07:29:00,75.7,68.7,30.05,South,184,1.0,9.0,79,0.00,,---,0.00,VWS V14.01,2013-06-22 11:29:00,
2013-06-22 07:30:00,75.7,68.7,30.05,West,259,4.0,9.0,79,0.00,,---,0.00,VWS V14.01,2013-06-22 11:30:00,
2013-06-22 07:31:00,75.7,68.4,30.05,WSW,242,1.0,5.0,78,0.00,,---,0.00,VWS V14.01,2013-06-22 11:31:00,
2013-06-22 07:32:00,75.7,68.7,30.05,SSE,148,1.0,5.0,79,0.00,,---,0.00,VWS V14.01,2013-06-22 11:32:00,
2013-06-22 07:33:00,75.8,68.8,30.05,SW,214,0.0,5.0,79,0.00,,---,0.00,VWS V14.01,2013-06-22 11:33:00,
2013-06-22 07:34:00,75.9,68.9,30.05,SSW,205,2.0,5.0,79,0.00,,---,0.00,VWS V14.01,2013-06-22 11:34:00,
2013-06-22 07:35:00,75.9,68.9,30.05,West,259,0.0,5.0,79,0.00,,---,0.00,VWS V14.01,2013-06-22 11:35:00,
2013-06-22 07:36:00,76.0,69.0,30.05,West,277,2.0,5.0,79,0.00,,---,0.00,VWS V14.01,2013-06-22 11:36:00,
2013-06-22 07:37:00,76.1,69.1,30.05,SW,214,0.0,6.0,79,0.00,,---,0.00,VWS V14.01,2013-06-22 11:37:00,
2013-06-22 07:38:00,76.3,69.3,30.05,SSW,193,0.0,6.0,79,0.00,,---,0.00,VWS V14.01,2013-06-22 11:38:00,
2013-06-22 07:39:00,76.4,69.4,30.05,WNW,297,1.0,6.0,79,0.00,,---,0.00,VWS V14.01,2013-06-22 11:39:00,
2013-06-22 07:40:00,76.5,69.5,30.05,WSW,253,3.0,6.0,79,0.00,,---,0.00,VWS V14.01,2013-06-22 11:40:00,
2013-06-22 07:41:00,76.6,69.2,30.05,SW,221,2.0,6.0,78,0.00,,---,0.00,VWS V14.01,2013-06-22 11:41:00,
2013-06-22 07:42:00,76.8,69.4,30.05,SW,233,2.0,6.0,78,0.00,,---,0.00,VWS V14.01,2013-06-22 11:42:00,
2013-06-22 07:43:00,76.9,69.5,30.05,SSE,156,2.0,6.0,78,0.00,,---,0.00,VWS V14.01,2013-06-22 11:43:00,
2013-06-22 07:44:00,77.0,69.6,30.05,SSW,212,0.0,6.0,78,0.00,,---,0.00,VWS V14.01,2013-06-22 11:44:00,
2013-06-22 07:45:00,77.2,69.8,30.05,ESE,105,0.0,6.0,78,0.00,,---,0.00,VWS V14.01,2013-06-22 11:45:00,
2013-06-22 07:46:00,77.4,70.0,30.05,NW,318,0.0,6.0,78,0.00,,---,0.00,VWS V14.01,2013-06-22 11:46:00,
2013-06-22 07:47:00,77.6,70.2,30.06,SSE,147,1.0,6.0,78,0.00,,---,0.00,VWS V14.01,2013-06-22 11:47:00,
2013-06-22 07:48:00,77.7,69.9,30.05,SSW,201,2.0,6.0,77,0.00,,---,0.00,VWS V14.01,2013-06-22 11:48:00,
2013-06-22 07:49:00,77.9,70.1,30.05,North,8,5.0,6.0,77,0.00,,---,0.00,VWS V14.01,2013-06-22 11:49:00,
2013-06-22 07:50:00,78.0,70.2,30.06,SSW,193,2.0,6.0,77,0.00,,---,0.00,VWS V14.01,2013-06-22 11:50:00,
2013-06-22 07:51:00,78.0,69.8,30.06,WSW,240,0.0,6.0,76,0.00,,---,0.00,VWS V14.01,2013-06-22 11:51:00,
2013-06-22 07:52:00,78.1,69.9,30.05,SW,226,3.0,12.0,76,0.00,,---,0.00,VWS V14.01,2013-06-22 11:52:00,
2013-06-22 07:53:00,78.1,69.9,30.06,SW,221,8.0,12.0,76,0.00,,---,0.00,VWS V14.01,2013-06-22 11:53:00,
2013-06-22 07:54:00,78.1,69.9,30.06,West,260,2.0,12.0,76,0.00,,---,0.00,VWS V14.01,2013-06-22 11:54:00,
2013-06-22 07:55:00,78.1,69.9,30.06,West,278,1.0,12.0,76,0.00,,---,0.00,VWS V14.01,2013-06-22 11:55:00,
2013-06-22 07:56:00,78.2,70.4,30.06,WSW,242,2.0,12.0,77,0.00,,---,0.00,VWS V14.01,2013-06-22 11:56:00,
2013-06-22 07:57:00,78.2,70.0,30.06,West,262,3.0,12.0,76,0.00,,---,0.00,VWS V14.01,2013-06-22 11:57:00,
2013-06-22 07:58:00,78.1,69.9,30.06,SW,236,2.0,12.0,76,0.00,,---,0.00,VWS V14.01,2013-06-22 11:58:00,
2013-06-22 07:59:00,78.1,69.9,30.06,NW,322,7.0,12.0,76,0.00,,---,0.00,VWS V14.01,2013-06-22 11:59:00,
2013-06-22 08:00:00,78.1,69.9,30.06,WSW,257,2.0,12.0,76,0.00,,---,0.00,VWS V14.01,2013-06-22 12:00:00,
2013-06-22 08:01:00,78.1,69.9,30.06,SW,219,2.0,8.0,76,0.00,,---,0.00,VWS V14.01,2013-06-22 12:01:00,
2013-06-22 08:02:00,78.1,69.9,30.06,SSW,200,0.0,8.0,76,0.00,,---,0.00,VWS V14.01,2013-06-22 12:02:00,
2013-06-22 08:03:00,78.1,69.9,30.06,WSW,240,5.0,8.0,76,0.00,,---,0.00,VWS V14.01,2013-06-22 12:03:00,
2013-06-22 08:04:00,78.1,69.9,30.06,NNE,12,0.0,8.0,76,0.00,,---,0.00,VWS V14.01,2013-06-22 12:04:00,
2013-06-22 08:05:00,78.1,69.9,30.06,SW,222,3.0,8.0,76,0.00,,---,0.00,VWS V14.01,2013-06-22 12:05:00,
2013-06-22 08:06:00,78.2,70.0,30.06,WSW,240,1.0,8.0,76,0.00,,---,0.00,VWS V14.01,2013-06-22 12:06:00,
2013-06-22 08:07:00,78.2,70.0,30.06,SW,235,2.0,8.0,76,0.00,,---,0.00,VWS V14.01,2013-06-22 12:07:00,
2013-06-22 08:08:00,78.2,70.0,30.06,SW,215,1.0,8.0,76,0.00,,---,0.00,VWS V14.01,2013-06-22 12:08:00,
2013-06-22 08:09:00,78.2,70.0,30.06,WNW,283,2.0,8.0,76,0.00,,---,0.00,VWS V14.01,2013-06-22 12:09:00,
2013-06-22 08:10:00,78.1,69.9,30.06,SE,136,1.0,8.0,76,0.00,,---,0.00,VWS V14.01,2013-06-22 12:10:00,
2013-06-22 08:11:00,78.1,70.3,30.06,WSW,253,4.0,8.0,77,0.00,,---,0.00,VWS V14.01,2013-06-22 12:11:00,
2013-06-22 08:12:00,78.1,70.3,30.06,SW,226,3.0,8.0,77,0.00,,---,0.00,VWS V14.01,2013-06-22 12:12:00,
2013-06-22 08:13:00,78.1,70.3,30.06,West,267,3.0,8.0,77,0.00,,---,0.00,VWS V14.01,2013-06-22 12:13:00,
2013-06-22 08:14:00,78.1,69.9,30.06,SSW,211,1.0,8.0,76,0.00,,---,0.00,VWS V14.01,2013-06-22 12:14:00,
2013-06-22 08:15:00,78.1,69.9,30.06,West,263,3.0,8.0,76,0.00,,---,0.00,VWS V14.01,2013-06-22 12:15:00,
2013-06-22 08:16:00,78.0,69.8,30.06,NNW,339,2.0,8.0,76,0.00,,---,0.00,VWS V14.01,2013-06-22 12:16:00,
2013-06-22 08:17:00,78.0,69.8,30.06,WSW,253,2.0,8.0,76,0.00,,---,0.00,VWS V14.01,2013-06-22 12:17:00,
2013-06-22 08:18:00,78.0,70.2,30.06,NW,315,2.0,8.0,77,0.00,,---,0.00,VWS V14.01,2013-06-22 12:18:00,
2013-06-22 08:19:00,78.0,69.8,30.06,SSW,196,1.0,8.0,76,0.00,,---,0.00,VWS V14.01,2013-06-22 12:19:00,
2013-06-22 08:20:00,78.0,70.2,30.06,WNW,287,2.0,8.0,77,0.00,,---,0.00,VWS V14.01,2013-06-22 12:20:00,
2013-06-22 08:21:00,77.9,70.1,30.06,SSW,211,2.0,8.0,77,0.00,,---,0.00,VWS V14.01,2013-06-22 12:21:00,
2013-06-22 08:22:00,77.9,70.1,30.06,SSW,201,1.0,8.0,77,0.00,,---,0.00,VWS V14.01,2013-06-22 12:22:00,
2013-06-22 08:23:00,78.0,70.2,30.06,South,170,2.0,8.0,77,0.00,,---,0.00,VWS V14.01,2013-06-22 12:23:00,
2013-06-22 08:24:00,78.0,70.2,30.06,SW,233,5.0,8.0,77,0.00,,---,0.00,VWS V14.01,2013-06-22 12:24:00,
2013-06-22 08:25:00,78.0,69.8,30.06,NW,312,2.0,8.0,76,0.00,,---,0.00,VWS V14.01,2013-06-22 12:25:00,
2013-06-22 08:26:00,77.9,70.1,30.06,SSW,212,2.0,8.0,77,0.00,,---,0.00,VWS V14.01,2013-06-22 12:26:00,
2013-06-22 08:27:00,77.9,69.7,30.06,WSW,240,2.0,8.0,76,0.00,,---,0.00,VWS V14.01,2013-06-22 12:27:00,
2013-06-22 08:28:00,77.9,70.1,30.06,SE,133,3.0,8.0,77,0.00,,---,0.00,VWS V14.01,2013-06-22 12:28:00,
2013-06-22 08:29:00,78.0,70.2,30.06,SSW,204,2.0,8.0,77,0.00,,---,0.00,VWS V14.01,2013-06-22 12:29:00,
2013-06-22 08:30:00,78.0,69.8,30.06,WSW,250,5.0,8.0,76,0.00,,---,0.00,VWS V14.01,2013-06-22 12:30:00,
2013-06-22 08:31:00,78.0,70.2,30.06,SSW,196,1.0,5.0,77,0.00,,---,0.00,VWS V14.01,2013-06-22 12:31:00,
2013-06-22 08:32:00,78.1,70.3,30.06,South,188,1.0,5.0,77,0.00,,---,0.00,VWS V14.01,2013-06-22 12:32:00,
2013-06-22 08:33:00,78.2,70.4,30.06,WNW,283,1.0,5.0,77,0.00,,---,0.00,VWS V14.01,2013-06-22 12:33:00,
2013-06-22 08:34:00,78.3,70.5,30.06,West,270,3.0,5.0,77,0.00,,---,0.00,VWS V14.01,2013-06-22 12:34:00,
2013-06-22 08:35:00,78.3,70.1,30.06,WSW,252,1.0,5.0,76,0.00,,---,0.00,VWS V14.01,2013-06-22 12:35:00,
2013-06-22 08:36:00,78.4,70.6,30.06,West,277,2.0,5.0,77,0.00,,---,0.00,VWS V14.01,2013-06-22 12:36:00,
2013-06-22 08:37:00,78.5,70.7,30.06,West,279,0.0,5.0,77,0.00,,---,0.00,VWS V14.01,2013-06-22 12:37:00,
2013-06-22 08:38:00,78.6,70.8,30.06,SW,221,9.0,9.0,77,0.00,,---,0.00,VWS V14.01,2013-06-22 12:38:00,
2013-06-22 08:39:00,78.6,70.0,30.06,SSW,194,3.0,9.0,75,0.00,,---,0.00,VWS V14.01,2013-06-22 12:39:00,
2013-06-22 08:40:00,78.7,70.5,30.06,SSW,193,1.0,9.0,76,0.00,,---,0.00,VWS V14.01,2013-06-22 12:40:00,
2013-06-22 08:41:00,78.8,70.6,30.06,SE,136,2.0,9.0,76,0.00,,---,0.00,VWS V14.01,2013-06-22 12:41:00,
2013-06-22 08:42:00,78.9,70.7,30.06,SW,214,3.0,9.0,76,0.00,,---,0.00,VWS V14.01,2013-06-22 12:42:00,
2013-06-22 08:43:00,79.0,70.4,30.06,West,270,2.0,9.0,75,0.00,,---,0.00,VWS V14.01,2013-06-22 12:43:00,
2013-06-22 08:44:00,79.1,70.5,30.06,SSW,209,1.0,9.0,75,0.00,,---,0.00,VWS V14.01,2013-06-22 12:44:00,
2013-06-22 08:45:00,79.2,71.0,30.06,WSW,253,1.0,9.0,76,0.00,,---,0.00,VWS V14.01,2013-06-22 12:45:00,
2013-06-22 08:46:00,79.3,71.1,30.06,West,270,4.0,9.0,76,0.00,,---,0.00,VWS V14.01,2013-06-22 12:46:00,
2013-06-22 08:47:00,79.3,70.7,30.06,West,271,3.0,9.0,75,0.00,,---,0.00,VWS V14.01,2013-06-22 12:47:00,
2013-06-22 08:48:00,79.3,71.1,30.06,SE,143,1.0,9.0,76,0.00,,---,0.00,VWS V14.01,2013-06-22 12:48:00,
2013-06-22 08:49:00,79.4,71.2,30.06,WSW,257,2.0,9.0,76,0.00,,---,0.00,VWS V14.01,2013-06-22 12:49:00,
2013-06-22 08:50:00,79.5,70.9,30.06,WSW,253,0.0,9.0,75,0.00,,---,0.00,VWS V14.01,2013-06-22 12:50:00,
2013-06-22 08:51:00,79.7,71.9,30.06,NNE,20,1.0,9.0,77,0.00,,---,0.00,VWS V14.01,2013-06-22 12:51:00,
2013-06-22 08:52:00,79.7,70.7,30.06,SW,214,2.0,9.0,74,0.00,,---,0.00,VWS V14.01,2013-06-22 12:52:00,
2013-06-22 08:53:00,79.8,71.2,30.06,SW,218,3.0,9.0,75,0.00,,---,0.00,VWS V14.01,2013-06-22 12:53:00,
2013-06-22 08:54:00,79.9,70.9,30.06,WSW,253,4.0,9.0,74,0.00,,---,0.00,VWS V14.01,2013-06-22 12:54:00,
2013-06-22 08:55:00,79.9,70.9,30.06,WSW,240,2.0,9.0,74,0.00,,---,0.00,VWS V14.01,2013-06-22 12:55:00,
2013-06-22 08:56:00,80.0,71.8,30.06,SSW,197,4.0,9.0,76,0.00,,---,0.00,VWS V14.01,2013-06-22 12:56:00,
2013-06-22 08:57:00,80.1,71.1,30.06,SW,221,1.0,9.0,74,0.00,,---,0.00,VWS V14.01,2013-06-22 12:57:00,
2013-06-22 08:58:00,80.2,71.6,30.06,SE,146,2.0,9.0,75,0.00,,---,0.00,VWS V14.01,2013-06-22 12:58:00,
2013-06-22 08:59:00,80.3,71.7,30.06,SW,214,8.0,9.0,75,0.00,,---,0.00,VWS V14.01,2013-06-22 12:59:00,
2013-06-22 09:00:00,80.4,71.4,30.06,South,184,3.0,9.0,74,0.00,,---,0.00,VWS V14.01,2013-06-22 13:00:00,
2013-06-22 09:01:00,80.4,71.0,30.06,SE,136,2.0,4.0,73,0.00,,---,0.00,VWS V14.01,2013-06-22 13:01:00,
2013-06-22 09:02:00,80.5,71.5,30.06,WNW,285,7.0,8.0,74,0.00,,---,0.00,VWS V14.01,2013-06-22 13:02:00,
2013-06-22 09:03:00,80.3,70.9,30.06,West,266,2.0,8.0,73,0.00,,---,0.00,VWS V14.01,2013-06-22 13:03:00,
2013-06-22 09:04:00,80.3,71.3,30.06,West,266,0.0,8.0,74,0.00,,---,0.00,VWS V14.01,2013-06-22 13:04:00,
2013-06-22 09:05:00,80.3,70.9,30.06,WNW,290,2.0,8.0,73,0.00,,---,0.00,VWS V14.01,2013-06-22 13:05:00,
2013-06-22 09:06:00,80.3,71.3,30.06,SSW,197,0.0,8.0,74,0.00,,---,0.00,VWS V14.01,2013-06-22 13:06:00,
2013-06-22 09:07:00,80.3,71.3,30.06,West,267,2.0,8.0,74,0.00,,---,0.00,VWS V14.01,2013-06-22 13:07:00,
2013-06-22 09:08:00,80.3,71.7,30.06,SW,219,2.0,8.0,75,0.00,,---,0.00,VWS V14.01,2013-06-22 13:08:00,
2013-06-22 09:09:00,80.3,71.3,30.06,WSW,248,1.0,8.0,74,0.00,,---,0.00,VWS V14.01,2013-06-22 13:09:00,
2013-06-22 09:10:00,80.3,71.3,30.06,SE,139,3.0,8.0,74,0.00,,---,0.00,VWS V14.01,2013-06-22 13:10:00,
2013-06-22 09:11:00,80.3,70.9,30.06,SSW,203,3.0,8.0,73,0.00,,---,0.00,VWS V14.01,2013-06-22 13:11:00,
2013-06-22 09:12:00,80.3,70.9,30.06,SE,138,1.0,8.0,73,0.00,,---,0.00,VWS V14.01,2013-06-22 13:12:00,
2013-06-22 09:13:00,80.4,71.4,30.06,West,264,3.0,8.0,74,0.00,,---,0.00,VWS V14.01,2013-06-22 13:13:00,
2013-06-22 09:14:00,80.3,70.9,30.06,ESE,106,2.0,8.0,73,0.00,,---,0.00,VWS V14.01,2013-06-22 13:14:00,
2013-06-22 09:15:00,80.3,71.3,30.06,South,181,0.0,8.0,74,0.00,,---,0.00,VWS V14.01,2013-06-22 13:15:00,
2013-06-22 09:16:00,80.3,70.9,30.05,SW,229,1.0,8.0,73,0.00,,---,0.00,VWS V14.01,2013-06-22 13:16:00,
2013-06-22 09:17:00,80.3,70.9,30.05,ESE,109,1.0,8.0,73,0.00,,---,0.00,VWS V14.01,2013-06-22 13:17:00,
2013-06-22 09:18:00,80.4,71.4,30.05,NNE,29,1.0,8.0,74,0.00,,---,0.00,VWS V14.01,2013-06-22 13:18:00,
2013-06-22 09:19:00,80.5,71.5,30.05,SE,141,2.0,8.0,74,0.00,,---,0.00,VWS V14.01,2013-06-22 13:19:00,
2013-06-22 09:20:00,80.6,71.9,30.05,WNW,284,3.0,8.0,75,0.00,,---,0.00,VWS V14.01,2013-06-22 13:20:00,
2013-06-22 09:21:00,80.7,71.2,30.05,West,262,1.0,8.0,73,0.00,,---,0.00,VWS V14.01,2013-06-22 13:21:00,
2013-06-22 09:22:00,80.7,71.2,30.05,SW,217,2.0,8.0,73,0.00,,---,0.00,VWS V14.01,2013-06-22 13:22:00,
2013-06-22 09:23:00,80.7,71.2,30.05,SSW,205,3.0,8.0,73,0.00,,---,0.00,VWS V14.01,2013-06-22 13:23:00,
2013-06-22 09:24:00,80.8,71.7,30.05,WSW,253,2.0,8.0,74,0.00,,---,0.00,VWS V14.01,2013-06-22 13:24:00,
2013-06-22 09:25:00,80.9,71.8,30.05,West,269,2.0,8.0,74,0.00,,---,0.00,VWS V14.01,2013-06-22 13:25:00,
2013-06-22 09:26:00,80.9,71.4,30.05,ESE,122,2.0,8.0,73,0.00,,---,0.00,VWS V14.01,2013-06-22 13:26:00,
2013-06-22 09:27:00,81.0,71.5,30.05,SE,132,1.0,8.0,73,0.00,,---,0.00,VWS V14.01,2013-06-22 13:27:00,
2013-06-22 09:28:00,81.1,72.0,30.05,South,172,3.0,8.0,74,0.00,,---,0.00,VWS V14.01,2013-06-22 13:28:00,
2013-06-22 09:29:00,81.3,71.8,30.05,SSW,211,5.0,8.0,73,0.00,,---,0.00,VWS V14.01,2013-06-22 13:29:00,
2013-06-22 09:30:00,81.4,71.9,30.05,WSW,250,3.0,8.0,73,0.00,,---,0.00,VWS V14.01,2013-06-22 13:30:00,
2013-06-22 09:31:00,81.4,71.5,30.05,WSW,240,4.0,4.0,72,0.00,,---,0.00,VWS V14.01,2013-06-22 13:31:00,
2013-06-22 09:32:00,81.5,71.6,30.04,SW,228,2.0,5.0,72,0.00,,---,0.00,VWS V14.01,2013-06-22 13:32:00,
2013-06-22 09:33:00,81.6,71.7,30.04,SW,214,4.0,8.0,72,0.00,,---,0.00,VWS V14.01,2013-06-22 13:33:00,
2013-06-22 09:34:00,81.6,72.1,30.04,SE,146,5.0,8.0,73,0.00,,---,0.00,VWS V14.01,2013-06-22 13:34:00,
2013-06-22 09:35:00,81.7,71.4,30.05,SW,214,1.0,8.0,71,0.00,,---,0.00,VWS V14.01,2013-06-22 13:35:00,
2013-06-22 09:36:00,81.7,71.4,30.04,SSW,203,1.0,8.0,71,0.00,,---,0.00,VWS V14.01,2013-06-22 13:36:00,
2013-06-22 09:37:00,81.7,71.4,30.04,SW,235,2.0,8.0,71,0.00,,---,0.00,VWS V14.01,2013-06-22 13:37:00,
2013-06-22 09:38:00,81.8,71.5,30.04,SSW,196,3.0,8.0,71,0.00,,---,0.00,VWS V14.01,2013-06-22 13:38:00,
2013-06-22 09:39:00,81.8,71.1,30.04,SW,233,2.0,8.0,70,0.00,,---,0.00,VWS V14.01,2013-06-22 13:39:00,
2013-06-22 09:40:00,81.9,71.6,30.04,ESE,117,4.0,8.0,71,0.00,,---,0.00,VWS V14.01,2013-06-22 13:40:00,
2013-06-22 09:41:00,82.0,71.3,30.04,NNE,23,2.0,8.0,70,0.00,,---,0.00,VWS V14.01,2013-06-22 13:41:00,
2013-06-22 09:42:00,82.0,71.7,30.04,West,276,1.0,8.0,71,0.00,,---,0.00,VWS V14.01,2013-06-22 13:42:00,
2013-06-22 09:43:00,82.1,71.8,30.04,SE,144,3.0,8.0,71,0.00,,---,0.00,VWS V14.01,2013-06-22 13:43:00,
2013-06-22 09:44:00,82.2,71.9,30.04,SW,226,3.0,8.0,71,0.00,,---,0.00,VWS V14.01,2013-06-22 13:44:00,
2013-06-22 09:45:00,82.4,72.1,30.04,SW,236,4.0,8.0,71,0.00,,---,0.00,VWS V14.01,2013-06-22 13:45:00,
2013-06-22 09:46:00,82.5,72.2,30.04,SW,217,0.0,8.0,71,0.00,,---,0.00,VWS V14.01,2013-06-22 13:46:00,
2013-06-22 09:47:00,82.6,71.8,30.04,WNW,298,2.0,8.0,70,0.00,,---,0.00,VWS V14.01,2013-06-22 13:47:00,
2013-06-22 09:48:00,82.7,71.9,30.04,NNE,28,1.0,8.0,70,0.00,,---,0.00,VWS V14.01,2013-06-22 13:48:00,
2013-06-22 09:49:00,82.8,72.4,30.04,SSE,149,0.0,8.0,71,0.00,,---,0.00,VWS V14.01,2013-06-22 13:49:00,
2013-06-22 09:50:00,83.0,72.6,30.04,SSW,192,1.0,8.0,71,0.00,,---,0.00,VWS V14.01,2013-06-22 13:50:00,
2013-06-22 09:51:00,83.1,72.7,30.04,WSW,256,3.0,8.0,71,0.00,,---,0.00,VWS V14.01,2013-06-22 13:51:00,
2013-06-22 09:52:00,83.2,72.0,30.04,East,96,4.0,8.0,69,0.00,,---,0.00,VWS V14.01,2013-06-22 13:52:00,
2013-06-22 09:53:00,83.3,72.1,30.04,SE,144,3.0,8.0,69,0.00,,---,0.00,VWS V14.01,2013-06-22 13:53:00,
2013-06-22 09:54:00,83.4,72.2,30.04,SSE,152,4.0,8.0,69,0.00,,---,0.00,VWS V14.01,2013-06-22 13:54:00,
2013-06-22 09:55:00,83.5,72.3,30.04,SSW,204,5.0,8.0,69,0.00,,---,0.00,VWS V14.01,2013-06-22 13:55:00,
2013-06-22 09:56:00,83.5,71.8,30.04,SE,138,5.0,9.0,68,0.00,,---,0.00,VWS V14.01,2013-06-22 13:56:00,
2013-06-22 09:57:00,83.5,72.3,30.04,WNW,290,2.0,9.0,69,0.00,,---,0.00,VWS V14.01,2013-06-22 13:57:00,
2013-06-22 09:58:00,83.6,72.4,30.04,SW,226,2.0,9.0,69,0.00,,---,0.00,VWS V14.01,2013-06-22 13:58:00,
2013-06-22 09:59:00,83.6,71.9,30.04,SE,129,1.0,9.0,68,0.00,,---,0.00,VWS V14.01,2013-06-22 13:59:00,
2013-06-22 10:00:00,83.7,72.5,30.04,WSW,250,7.0,9.0,69,0.00,,---,0.00,VWS V14.01,2013-06-22 14:00:00,
2013-06-22 10:01:00,83.6,71.5,30.04,SSE,155,4.0,9.0,67,0.00,,---,0.00,VWS V14.01,2013-06-22 14:01:00,
2013-06-22 10:02:00,83.6,71.5,30.04,SSW,203,3.0,9.0,67,0.00,,---,0.00,VWS V14.01,2013-06-22 14:02:00,
2013-06-22 10:03:00,83.6,71.5,30.04,SSW,193,1.0,9.0,67,0.00,,---,0.00,VWS V14.01,2013-06-22 14:03:00,
2013-06-22 10:04:00,83.7,72.9,30.04,WNW,283,0.0,9.0,70,0.00,,---,0.00,VWS V14.01,2013-06-22 14:04:00,
2013-06-22 10:05:00,83.8,73.0,30.04,West,271,3.0,9.0,70,0.00,,---,0.00,VWS V14.01,2013-06-22 14:05:00,
2013-06-22 10:06:00,83.9,71.8,30.04,SW,222,5.0,9.0,67,0.00,,---,0.00,VWS V14.01,2013-06-22 14:06:00,
2013-06-22 10:07:00,83.9,71.8,30.04,SE,146,3.0,9.0,67,0.00,,---,0.00,VWS V14.01,2013-06-22 14:07:00,
2013-06-22 10:08:00,83.9,73.1,30.04,WSW,252,2.0,9.0,70,0.00,,---,0.00,VWS V14.01,2013-06-22 14:08:00,
2013-06-22 10:09:00,84.1,72.8,30.04,ESE,121,4.0,9.0,69,0.00,,---,0.00,VWS V14.01,2013-06-22 14:09:00,
2013-06-22 10:10:00,84.1,72.4,30.04,WSW,254,1.0,9.0,68,0.00,,---,0.00,VWS V14.01,2013-06-22 14:10:00,
2013-06-22 10:11:00,84.2,72.9,30.04,SE,137,2.0,9.0,69,0.00,,---,0.00,VWS V14.01,2013-06-22 14:11:00,
2013-06-22 10:12:00,84.3,73.5,30.04,SSW,207,2.0,9.0,70,0.00,,---,0.00,VWS V14.01,2013-06-22 14:12:00,
2013-06-22 10:13:00,84.5,72.8,30.04,SW,224,0.0,9.0,68,0.00,,---,0.00,VWS V14.01,2013-06-22 14:13:00,
2013-06-22 10:14:00,84.6,72.4,30.04,SSW,197,2.0,9.0,67,0.00,,---,0.00,VWS V14.01,2013-06-22 14:14:00,
2013-06-22 10:15:00,84.7,73.4,30.04,WNW,284,2.0,9.0,69,0.00,,---,0.00,VWS V14.01,2013-06-22 14:15:00,
2013-06-22 10:16:00,84.8,73.9,30.04,SW,221,2.0,9.0,70,0.00,,---,0.00,VWS V14.01,2013-06-22 14:16:00,
2013-06-22 10:17:00,84.8,73.1,30.04,SW,232,2.0,9.0,68,0.00,,---,0.00,VWS V14.01,2013-06-22 14:17:00,
2013-06-22 10:18:00,84.9,73.6,30.04,WSW,245,3.0,9.0,69,0.00,,---,0.00,VWS V14.01,2013-06-22 14:18:00,
2013-06-22 10:19:00,85.0,73.3,30.04,West,276,2.0,9.0,68,0.00,,---,0.00,VWS V14.01,2013-06-22 14:19:00,
2013-06-22 10:20:00,85.0,72.8,30.04,WSW,249,4.0,9.0,67,0.00,,---,0.00,VWS V14.01,2013-06-22 14:20:00,
2013-06-22 10:21:00,85.1,73.8,30.05,WSW,256,7.0,9.0,69,0.00,,---,0.00,VWS V14.01,2013-06-22 14:21:00,
2013-06-22 10:22:00,85.1,72.9,30.05,SW,224,4.0,9.0,67,0.00,,---,0.00,VWS V14.01,2013-06-22 14:22:00,
2013-06-22 10:23:00,85.1,72.9,30.05,SW,221,4.0,9.0,67,0.00,,---,0.00,VWS V14.01,2013-06-22 14:23:00,
2013-06-22 10:24:00,85.1,72.9,30.05,NE,40,1.0,9.0,67,0.00,,---,0.00,VWS V14.01,2013-06-22 14:24:00,
2013-06-22 10:25:00,85.2,72.6,30.05,WSW,238,7.0,9.0,66,0.00,,---,0.00,VWS V14.01,2013-06-22 14:25:00,
2013-06-22 10:26:00,85.2,72.6,30.05,SW,219,0.0,9.0,66,0.00,,---,0.00,VWS V14.01,2013-06-22 14:26:00,
2013-06-22 10:27:00,85.2,73.0,30.05,West,270,1.0,9.0,67,0.00,,---,0.00,VWS V14.01,2013-06-22 14:27:00,
2013-06-22 10:28:00,85.3,73.1,30.05,WSW,257,1.0,9.0,67,0.00,,---,0.00,VWS V14.01,2013-06-22 14:28:00,
2013-06-22 10:29:00,85.4,73.2,30.05,WSW,243,0.0,9.0,67,0.00,,---,0.00,VWS V14.01,2013-06-22 14:29:00,
2013-06-22 10:30:00,85.5,73.7,30.05,NW,318,4.0,9.0,68,0.00,,---,0.00,VWS V14.01,2013-06-22 14:30:00,
2013-06-22 10:31:00,85.6,72.9,30.05,WNW,297,2.0,6.0,66,0.00,,---,0.00,VWS V14.01,2013-06-22 14:31:00,
2013-06-22 10:32:00,85.6,73.4,30.05,WNW,300,1.0,6.0,67,0.00,,---,0.00,VWS V14.01,2013-06-22 14:32:00,
2013-06-22 10:33:00,85.6,72.9,30.05,NW,304,0.0,6.0,66,0.00,,---,0.00,VWS V14.01,2013-06-22 14:33:00,
2013-06-22 10:34:00,85.6,73.4,30.05,SSE,153,4.0,6.0,67,0.00,,---,0.00,VWS V14.01,2013-06-22 14:34:00,
2013-06-22 10:35:00,85.6,73.4,30.05,ESE,105,2.0,6.0,67,0.00,,---,0.00,VWS V14.01,2013-06-22 14:35:00,
2013-06-22 10:36:00,85.6,72.9,30.05,SSW,210,4.0,6.0,66,0.00,,---,0.00,VWS V14.01,2013-06-22 14:36:00,
2013-06-22 10:37:00,85.7,74.8,30.05,WSW,250,0.0,6.0,70,0.00,,---,0.00,VWS V14.01,2013-06-22 14:37:00,
2013-06-22 10:38:00,85.7,73.0,30.05,West,266,3.0,7.0,66,0.00,,---,0.00,VWS V14.01,2013-06-22 14:38:00,
2013-06-22 10:39:00,85.6,72.5,30.05,WSW,243,5.0,7.0,65,0.00,,---,0.00,VWS V14.01,2013-06-22 14:39:00,
2013-06-22 10:40:00,85.5,72.8,30.06,SSW,207,0.0,7.0,66,0.00,,---,0.00,VWS V14.01,2013-06-22 14:40:00,
2013-06-22 10:41:00,85.4,73.2,30.05,NW,315,1.0,7.0,67,0.00,,---,0.00,VWS V14.01,2013-06-22 14:41:00,
2013-06-22 10:42:00,85.5,73.3,30.06,NE,36,1.0,7.0,67,0.00,,---,0.00,VWS V14.01,2013-06-22 14:42:00,
2013-06-22 10:43:00,85.5,72.8,30.06,WNW,293,3.0,7.0,66,0.00,,---,0.00,VWS V14.01,2013-06-22 14:43:00,
2013-06-22 10:44:00,85.6,73.4,30.06,SW,236,3.0,7.0,67,0.00,,---,0.00,VWS V14.01,2013-06-22 14:44:00,
2013-06-22 10:45:00,85.6,73.4,30.06,WNW,302,1.0,7.0,67,0.00,,---,0.00,VWS V14.01,2013-06-22 14:45:00,
2013-06-22 10:46:00,85.6,72.9,30.05,NW,311,1.0,7.0,66,0.00,,---,0.00,VWS V14.01,2013-06-22 14:46:00,
2013-06-22 10:47:00,85.7,74.8,30.05,ESE,113,8.0,8.0,70,0.00,,---,0.00,VWS V14.01,2013-06-22 14:47:00,
2013-06-22 10:48:00,85.7,73.0,30.05,WNW,302,1.0,8.0,66,0.00,,---,0.00,VWS V14.01,2013-06-22 14:48:00,
2013-06-22 10:49:00,85.7,73.0,30.05,SSW,213,3.0,8.0,66,0.00,,---,0.00,VWS V14.01,2013-06-22 14:49:00,
2013-06-22 10:50:00,85.8,73.1,30.05,WNW,301,4.0,13.0,66,0.00,,---,0.00,VWS V14.01,2013-06-22 14:50:00,
2013-06-22 10:51:00,85.7,73.0,30.05,SSW,193,2.0,13.0,66,0.00,,---,0.00,VWS V14.01,2013-06-22 14:51:00,
2013-06-22 10:52:00,85.7,73.0,30.05,ESE,118,1.0,13.0,66,0.00,,---,0.00,VWS V14.01,2013-06-22 14:52:00,
2013-06-22 10:53:00,85.7,72.6,30.05,SW,231,1.0,13.0,65,0.00,,---,0.00,VWS V14.01,2013-06-22 14:53:00,
2013-06-22 10:54:00,85.7,73.0,30.05,WSW,257,6.0,13.0,66,0.00,,---,0.00,VWS V14.01,2013-06-22 14:54:00,
2013-06-22 10:55:00,85.6,72.5,30.05,WSW,246,2.0,13.0,65,0.00,,---,0.00,VWS V14.01,2013-06-22 14:55:00,
2013-06-22 10:56:00,85.6,73.4,30.05,WNW,300,4.0,13.0,67,0.00,,---,0.00,VWS V14.01,2013-06-22 14:56:00,
2013-06-22 10:57:00,85.6,72.9,30.05,ESE,108,1.0,13.0,66,0.00,,---,0.00,VWS V14.01,2013-06-22 14:57:00,
2013-06-22 10:58:00,85.6,72.9,30.05,SW,236,2.0,13.0,66,0.00,,---,0.00,VWS V14.01,2013-06-22 14:58:00,
2013-06-22 10:59:00,85.6,73.8,30.06,SSE,163,2.0,13.0,68,0.00,,---,0.00,VWS V14.01,2013-06-22 14:59:00,
2013-06-22 11:00:00,85.7,73.9,30.06,SSW,195,3.0,13.0,68,0.00,,---,0.00,VWS V14.01,2013-06-22 15:00:00,
2013-06-22 11:01:00,85.7,73.5,30.05,ESE,105,1.0,6.0,67,0.00,,---,0.00,VWS V14.01,2013-06-22 15:01:00,
2013-06-22 11:02:00,85.7,73.5,30.05,WSW,257,5.0,6.0,67,0.00,,---,0.00,VWS V14.01,2013-06-22 15:02:00,
2013-06-22 11:03:00,85.8,73.1,30.06,SSW,203,7.0,7.0,66,0.00,,---,0.00,VWS V14.01,2013-06-22 15:03:00,
2013-06-22 11:04:00,85.8,72.7,30.06,WSW,249,0.0,8.0,65,0.00,,---,0.00,VWS V14.01,2013-06-22 15:04:00,
2013-06-22 11:05:00,85.9,74.6,30.06,SSW,201,3.0,8.0,69,0.00,,---,0.00,VWS V14.01,2013-06-22 15:05:00,
2013-06-22 11:06:00,85.9,73.2,30.05,SW,236,2.0,8.0,66,0.00,,---,0.00,VWS V14.01,2013-06-22 15:06:00,
2013-06-22 11:07:00,85.9,72.8,30.05,SSE,160,6.0,14.0,65,0.00,,---,0.00,VWS V14.01,2013-06-22 15:07:00,
2013-06-22 11:08:00,85.8,72.7,30.05,SW,221,7.0,14.0,65,0.00,,---,0.00,VWS V14.01,2013-06-22 15:08:00,
2013-06-22 11:09:00,85.7,72.6,30.05,South,180,2.0,14.0,65,0.00,,---,0.00,VWS V14.01,2013-06-22 15:09:00,
2013-06-22 11:10:00,85.7,73.5,30.05,SE,143,1.0,14.0,67,0.00,,---,0.00,VWS V14.01,2013-06-22 15:10:00,
2013-06-22 11:11:00,85.7,74.4,30.05,SE,129,1.0,14.0,69,0.00,,---,0.00,VWS V14.01,2013-06-22 15:11:00,
2013-06-22 11:12:00,85.8,73.6,30.05,SSW,203,4.0,14.0,67,0.00,,---,0.00,VWS V14.01,2013-06-22 15:12:00,
2013-06-22 11:13:00,85.9,72.8,30.05,NW,304,3.0,14.0,65,0.00,,---,0.00,VWS V14.01,2013-06-22 15:13:00,
2013-06-22 11:14:00,85.9,72.8,30.05,WNW,283,3.0,14.0,65,0.00,,---,0.00,VWS V14.01,2013-06-22 15:14:00,
2013-06-22 11:15:00,85.7,72.6,30.05,WNW,302,1.0,14.0,65,0.00,,---,0.00,VWS V14.01,2013-06-22 15:15:00,
2013-06-22 11:16:00,85.8,74.0,30.05,WNW,288,1.0,14.0,68,0.00,,---,0.00,VWS V14.01,2013-06-22 15:16:00,
2013-06-22 11:17:00,85.8,74.5,30.05,SSW,208,1.0,14.0,69,0.00,,---,0.00,VWS V14.01,2013-06-22 15:17:00,
2013-06-22 11:18:00,85.9,73.7,30.05,West,260,1.0,14.0,67,0.00,,---,0.00,VWS V14.01,2013-06-22 15:18:00,
2013-06-22 11:19:00,86.0,74.2,30.05,WNW,294,1.0,14.0,68,0.00,,---,0.00,VWS V14.01,2013-06-22 15:19:00,
2013-06-22 11:20:00,86.2,74.4,30.05,WNW,298,0.0,14.0,68,0.00,,---,0.00,VWS V14.01,2013-06-22 15:20:00,
2013-06-22 11:21:00,86.3,74.5,30.05,East,82,3.0,14.0,68,0.00,,---,0.00,VWS V14.01,2013-06-22 15:21:00,
2013-06-22 11:22:00,86.4,74.6,30.05,SSW,203,4.0,14.0,68,0.00,,---,0.00,VWS V14.01,2013-06-22 15:22:00,
2013-06-22 11:23:00,86.5,74.2,30.05,SE,129,3.0,14.0,67,0.00,,---,0.00,VWS V14.01,2013-06-22 15:23:00,
2013-06-22 11:24:00,86.6,73.9,30.05,SSW,210,2.0,14.0,66,0.00,,---,0.00,VWS V14.01,2013-06-22 15:24:00,
2013-06-22 11:25:00,86.6,73.4,30.05,South,184,4.0,14.0,65,0.00,,---,0.00,VWS V14.01,2013-06-22 15:25:00,
2013-06-22 11:26:00,86.6,74.3,30.05,WSW,245,4.0,14.0,67,0.00,,---,0.00,VWS V14.01,2013-06-22 15:26:00,
2013-06-22 11:27:00,86.6,73.9,30.05,SW,228,4.0,14.0,66,0.00,,---,0.00,VWS V14.01,2013-06-22 15:27:00,
2013-06-22 11:28:00,86.5,74.2,30.05,SW,231,2.0,14.0,67,0.00,,---,0.00,VWS V14.01,2013-06-22 15:28:00,
2013-06-22 11:29:00,86.5,74.2,30.05,SW,225,6.0,14.0,67,0.00,,---,0.00,VWS V14.01,2013-06-22 15:29:00,
2013-06-22 11:30:00,86.4,73.7,30.05,SSE,156,4.0,14.0,66,0.00,,---,0.00,VWS V14.01,2013-06-22 15:30:00,
2013-06-22 11:31:00,86.4,73.2,30.05,South,184,3.0,7.0,65,0.00,,---,0.00,VWS V14.01,2013-06-22 15:31:00,
2013-06-22 11:32:00,86.4,74.2,30.05,SSW,204,4.0,7.0,67,0.00,,---,0.00,VWS V14.01,2013-06-22 15:32:00,
2013-06-22 11:33:00,86.4,73.7,30.05,SSE,167,3.0,9.0,66,0.00,,---,0.00,VWS V14.01,2013-06-22 15:33:00,
2013-06-22 11:34:00,86.5,73.8,30.05,SE,124,2.0,9.0,66,0.00,,---,0.00,VWS V14.01,2013-06-22 15:34:00,
2013-06-22 11:35:00,86.5,74.7,30.05,SW,226,2.0,9.0,68,0.00,,---,0.00,VWS V14.01,2013-06-22 15:35:00,
2013-06-22 11:36:00,86.6,74.3,30.05,SSE,160,2.0,9.0,67,0.00,,---,0.00,VWS V14.01,2013-06-22 15:36:00,
2013-06-22 11:37:00,86.7,74.0,30.05,SE,143,4.0,9.0,66,0.00,,---,0.00,VWS V14.01,2013-06-22 15:37:00,
2013-06-22 11:38:00,86.8,74.1,30.05,SE,141,5.0,9.0,66,0.00,,---,0.00,VWS V14.01,2013-06-22 15:38:00,
2013-06-22 11:39:00,86.9,74.2,30.05,WSW,253,1.0,9.0,66,0.00,,---,0.00,VWS V14.01,2013-06-22 15:39:00,
2013-06-22 11:40:00,87.0,75.2,30.05,SSW,204,2.0,9.0,68,0.00,,---,0.00,VWS V14.01,2013-06-22 15:40:00,
2013-06-22 11:41:00,87.2,74.9,30.05,South,173,1.0,9.0,67,0.00,,---,0.00,VWS V14.01,2013-06-22 15:41:00,
2013-06-22 11:42:00,87.3,74.1,30.05,SSW,210,4.0,9.0,65,0.00,,---,0.00,VWS V14.01,2013-06-22 15:42:00,
2013-06-22 11:43:00,87.3,74.1,30.05,SW,221,5.0,9.0,65,0.00,,---,0.00,VWS V14.01,2013-06-22 15:43:00,
2013-06-22 11:44:00,87.2,73.6,30.05,SSE,150,5.0,9.0,64,0.00,,---,0.00,VWS V14.01,2013-06-22 15:44:00,
2013-06-22 11:45:00,87.1,73.9,30.05,East,97,2.0,9.0,65,0.00,,---,0.00,VWS V14.01,2013-06-22 15:45:00,
2013-06-22 11:46:00,87.1,74.8,30.05,WSW,238,1.0,9.0,67,0.00,,---,0.00,VWS V14.01,2013-06-22 15:46:00,
2013-06-22 11:47:00,87.1,73.9,30.05,West,264,7.0,9.0,65,0.00,,---,0.00,VWS V14.01,2013-06-22 15:47:00,
2013-06-22 11:48:00,86.9,73.3,30.04,WSW,248,4.0,9.0,64,0.00,,---,0.00,VWS V14.01,2013-06-22 15:48:00,
2013-06-22 11:49:00,86.8,73.6,30.04,SSW,201,5.0,9.0,65,0.00,,---,0.00,VWS V14.01,2013-06-22 15:49:00,
2013-06-22 11:50:00,86.6,73.4,30.04,WSW,240,2.0,9.0,65,0.00,,---,0.00,VWS V14.01,2013-06-22 15:50:00,
2013-06-22 11:51:00,86.7,74.4,30.04,South,180,2.0,9.0,67,0.00,,---,0.00,VWS V14.01,2013-06-22 15:51:00,
2013-06-22 11:52:00,86.8,74.5,30.04,SE,135,2.0,9.0,67,0.00,,---,0.00,VWS V14.01,2013-06-22 15:52:00,
2013-06-22 11:53:00,86.8,74.1,30.04,SSW,203,3.0,9.0,66,0.00,,---,0.00,VWS V14.01,2013-06-22 15:53:00,
2013-06-22 11:54:00,86.8,74.5,30.04,WSW,242,1.0,9.0,67,0.00,,---,0.00,VWS V14.01,2013-06-22 15:54:00,
2013-06-22 11:55:00,86.9,75.1,30.04,South,177,5.0,9.0,68,0.00,,---,0.00,VWS V14.01,2013-06-22 15:55:00,
2013-06-22 11:56:00,87.0,74.7,30.04,West,280,3.0,9.0,67,0.00,,---,0.00,VWS V14.01,2013-06-22 15:56:00,
2013-06-22 11:57:00,86.9,74.6,30.04,SSE,149,4.0,9.0,67,0.00,,---,0.00,VWS V14.01,2013-06-22 15:57:00,
2013-06-22 11:58:00,87.0,74.3,30.04,SSE,163,4.0,9.0,66,0.00,,---,0.00,VWS V14.01,2013-06-22 15:58:00,
2013-06-22 11:59:00,86.9,73.3,30.04,SW,229,5.0,9.0,64,0.00,,---,0.00,VWS V14.01,2013-06-22 15:59:00,
2013-06-22 12:00:00,86.8,73.6,30.04,SW,225,2.0,9.0,65,0.00,,---,0.00,VWS V14.01,2013-06-22 16:00:00,
2013-06-22 12:01:00,86.8,74.5,30.04,SE,146,3.0,6.0,67,0.00,,---,0.00,VWS V14.01,2013-06-22 16:01:00,
2013-06-22 12:02:00,86.9,74.2,30.03,SSE,152,4.0,6.0,66,0.00,,---,0.00,VWS V14.01,2013-06-22 16:02:00,
2013-06-22 12:03:00,87.0,73.8,30.03,SE,132,5.0,8.0,65,0.00,,---,0.00,VWS V14.01,2013-06-22 16:03:00,
2013-06-22 12:04:00,87.0,73.8,30.03,SW,215,5.0,8.0,65,0.00,,---,0.00,VWS V14.01,2013-06-22 16:04:00,
2013-06-22 12:05:00,87.0,73.8,30.03,SSE,149,4.0,8.0,65,0.00,,---,0.00,VWS V14.01,2013-06-22 16:05:00,
2013-06-22 12:06:00,87.0,73.4,30.03,SSE,148,5.0,8.0,64,0.00,,---,0.00,VWS V14.01,2013-06-22 16:06:00,
2013-06-22 12:07:00,87.1,73.9,30.03,West,271,3.0,8.0,65,0.00,,---,0.00,VWS V14.01,2013-06-22 16:07:00,
2013-06-22 12:08:00,87.1,75.3,30.03,SW,236,4.0,8.0,68,0.00,,---,0.00,VWS V14.01,2013-06-22 16:08:00,
2013-06-22 12:09:00,87.2,73.6,30.03,SE,124,2.0,8.0,64,0.00,,---,0.00,VWS V14.01,2013-06-22 16:09:00,
2013-06-22 12:10:00,87.2,74.0,30.03,West,276,5.0,8.0,65,0.00,,---,0.00,VWS V14.01,2013-06-22 16:10:00,
2013-06-22 12:11:00,87.1,73.4,30.03,SSE,149,2.0,9.0,64,0.00,,---,0.00,VWS V14.01,2013-06-22 16:11:00,
2013-06-22 12:12:00,87.1,74.4,30.03,WSW,244,3.0,9.0,66,0.00,,---,0.00,VWS V14.01,2013-06-22 16:12:00,
2013-06-22 12:13:00,87.0,73.4,30.03,SSW,195,3.0,9.0,64,0.00,,---,0.00,VWS V14.01,2013-06-22 16:13:00,
2013-06-22 12:14:00,86.9,73.7,30.03,West,274,1.0,9.0,65,0.00,,---,0.00,VWS V14.01,2013-06-22 16:14:00,
2013-06-22 12:15:00,86.8,74.1,30.03,SSW,198,3.0,9.0,66,0.00,,---,0.00,VWS V14.01,2013-06-22 16:15:00,
2013-06-22 12:16:00,86.8,74.1,30.03,South,170,1.0,9.0,66,0.00,,---,0.00,VWS V14.01,2013-06-22 16:16:00,
2013-06-22 12:17:00,86.8,74.1,30.03,WSW,256,3.0,9.0,66,0.00,,---,0.00,VWS V14.01,2013-06-22 16:17:00,
2013-06-22 12:18:00,86.8,74.1,30.03,WSW,249,7.0,9.0,66,0.00,,---,0.00,VWS V14.01,2013-06-22 16:18:00,
2013-06-22 12:19:00,86.8,73.6,30.03,SW,233,3.0,9.0,65,0.00,,---,0.00,VWS V14.01,2013-06-22 16:19:00,
2013-06-22 12:20:00,86.7,74.0,30.03,SSE,148,3.0,9.0,66,0.00,,---,0.00,VWS V14.01,2013-06-22 16:20:00,
2013-06-22 12:21:00,86.6,73.9,30.03,South,190,4.0,9.0,66,0.00,,---,0.00,VWS V14.01,2013-06-22 16:21:00,
2013-06-22 12:22:00,86.6,73.9,30.03,SE,143,3.0,9.0,66,0.00,,---,0.00,VWS V14.01,2013-06-22 16:22:00,
2013-06-22 12:23:00,86.6,73.9,30.03,WSW,252,2.0,9.0,66,0.00,,---,0.00,VWS V14.01,2013-06-22 16:23:00,
2013-06-22 12:24:00,86.6,73.9,30.03,West,262,1.0,9.0,66,0.00,,---,0.00,VWS V14.01,2013-06-22 16:24:00,
2013-06-22 12:25:00,86.6,74.8,30.03,South,184,4.0,9.0,68,0.00,,---,0.00,VWS V14.01,2013-06-22 16:25:00,
2013-06-22 12:26:00,86.6,73.9,30.03,SW,224,2.0,9.0,66,0.00,,---,0.00,VWS V14.01,2013-06-22 16:26:00,
2013-06-22 12:27:00,86.6,74.3,30.03,West,259,1.0,9.0,67,0.00,,---,0.00,VWS V14.01,2013-06-22 16:27:00,
2013-06-22 12:28:00,86.5,73.8,30.03,SW,226,1.0,9.0,66,0.00,,---,0.00,VWS V14.01,2013-06-22 16:28:00,
2013-06-22 12:29:00,86.5,74.7,30.03,SE,139,0.0,9.0,68,0.00,,---,0.00,VWS V14.01,2013-06-22 16:29:00,
2013-06-22 12:30:00,86.5,73.8,30.02,SSW,210,1.0,9.0,66,0.00,,---,0.00,VWS V14.01,2013-06-22 16:30:00,
2013-06-22 12:31:00,86.6,74.3,30.02,SE,134,4.0,6.0,67,0.00,,---,0.00,VWS V14.01,2013-06-22 16:31:00,
2013-06-22 12:32:00,86.6,75.2,30.02,SE,146,2.0,7.0,69,0.00,,---,0.00,VWS V14.01,2013-06-22 16:32:00,
2013-06-22 12:33:00,86.7,74.0,30.02,WSW,243,2.0,7.0,66,0.00,,---,0.00,VWS V14.01,2013-06-22 16:33:00,
2013-06-22 12:34:00,86.7,74.0,30.02,WNW,284,5.0,7.0,66,0.00,,---,0.00,VWS V14.01,2013-06-22 16:34:00,
2013-06-22 12:35:00,86.7,73.5,30.03,SSW,211,4.0,7.0,65,0.00,,---,0.00,VWS V14.01,2013-06-22 16:35:00,
2013-06-22 12:36:00,86.6,73.4,30.02,South,179,6.0,8.0,65,0.00,,---,0.00,VWS V14.01,2013-06-22 16:36:00,
2013-06-22 12:37:00,86.5,73.8,30.02,SE,143,5.0,8.0,66,0.00,,---,0.00,VWS V14.01,2013-06-22 16:37:00,
2013-06-22 12:38:00,86.5,73.8,30.02,SSE,148,3.0,8.0,66,0.00,,---,0.00,VWS V14.01,2013-06-22 16:38:00,
2013-06-22 12:39:00,86.5,73.8,30.02,SE,137,4.0,8.0,66,0.00,,---,0.00,VWS V14.01,2013-06-22 16:39:00,
2013-06-22 12:40:00,86.5,73.8,30.02,SE,140,5.0,8.0,66,0.00,,---,0.00,VWS V14.01,2013-06-22 16:40:00,
2013-06-22 12:41:00,86.5,73.8,30.02,SW,224,5.0,8.0,66,0.00,,---,0.00,VWS V14.01,2013-06-22 16:41:00,
2013-06-22 12:42:00,86.5,74.2,30.02,SSE,153,5.0,8.0,67,0.00,,---,0.00,VWS V14.01,2013-06-22 16:42:00,
2013-06-22 12:43:00,86.5,73.8,30.02,SW,217,5.0,8.0,66,0.00,,---,0.00,VWS V14.01,2013-06-22 16:43:00,
2013-06-22 12:44:00,86.4,73.2,30.02,SSE,156,1.0,9.0,65,0.00,,---,0.00,VWS V14.01,2013-06-22 16:44:00,
2013-06-22 12:45:00,86.4,74.2,30.02,SW,232,3.0,9.0,67,0.00,,---,0.00,VWS V14.01,2013-06-22 16:45:00,
2013-06-22 12:46:00,86.4,74.6,30.02,SSW,193,2.0,9.0,68,0.00,,---,0.00,VWS V14.01,2013-06-22 16:46:00,
2013-06-22 12:47:00,86.3,73.6,30.02,SE,132,6.0,9.0,66,0.00,,---,0.00,VWS V14.01,2013-06-22 16:47:00,
2013-06-22 12:48:00,86.4,74.2,30.02,SSE,153,5.0,11.0,67,0.00,,---,0.00,VWS V14.01,2013-06-22 16:48:00,
2013-06-22 12:49:00,86.4,73.7,30.02,SSW,201,5.0,11.0,66,0.00,,---,0.00,VWS V14.01,2013-06-22 16:49:00,
2013-06-22 12:50:00,86.5,74.2,30.02,SSW,194,6.0,11.0,67,0.00,,---,0.00,VWS V14.01,2013-06-22 16:50:00,
2013-06-22 12:51:00,86.5,73.8,30.02,SE,124,8.0,11.0,66,0.00,,---,0.00,VWS V14.01,2013-06-22 16:51:00,
2013-06-22 12:52:00,86.5,74.2,30.02,SSW,197,3.0,11.0,67,0.00,,---,0.00,VWS V14.01,2013-06-22 16:52:00,
2013-06-22 12:53:00,86.6,73.9,30.02,WSW,255,4.0,11.0,66,0.00,,---,0.00,VWS V14.01,2013-06-22 16:53:00,
2013-06-22 12:54:00,86.6,74.3,30.02,SSE,151,3.0,11.0,67,0.00,,---,0.00,VWS V14.01,2013-06-22 16:54:00,
2013-06-22 12:55:00,86.6,73.9,30.02,SSE,148,3.0,11.0,66,0.00,,---,0.00,VWS V14.01,2013-06-22 16:55:00,
2013-06-22 12:56:00,86.7,74.0,30.02,South,190,2.0,11.0,66,0.00,,---,0.00,VWS V14.01,2013-06-22 16:56:00,
2013-06-22 12:57:00,86.7,74.0,30.02,South,169,2.0,11.0,66,0.00,,---,0.00,VWS V14.01,2013-06-22 16:57:00,
2013-06-22 12:58:00,86.7,73.5,30.02,SSE,148,4.0,11.0,65,0.00,,---,0.00,VWS V14.01,2013-06-22 16:58:00,
2013-06-22 12:59:00,86.8,74.1,30.02,SW,236,1.0,11.0,66,0.00,,---,0.00,VWS V14.01,2013-06-22 16:59:00,
2013-06-22 13:00:00,86.8,73.6,30.02,SW,214,8.0,13.0,65,0.00,,---,0.00,VWS V14.01,2013-06-22 17:00:00,
2013-06-22 13:01:00,86.8,73.6,30.02,SE,127,2.0,8.0,65,0.00,,---,0.00,VWS V14.01,2013-06-22 17:01:00,
2013-06-22 13:02:00,86.8,74.5,30.02,WSW,257,1.0,8.0,67,0.00,,---,0.00,VWS V14.01,2013-06-22 17:02:00,
2013-06-22 13:03:00,86.9,74.2,30.02,SSW,197,3.0,8.0,66,0.00,,---,0.00,VWS V14.01,2013-06-22 17:03:00,
2013-06-22 13:04:00,86.9,73.7,30.02,ESE,122,4.0,8.0,65,0.00,,---,0.00,VWS V14.01,2013-06-22 17:04:00,
2013-06-22 13:05:00,87.0,74.7,30.02,SSW,197,4.0,8.0,67,0.00,,---,0.00,VWS V14.01,2013-06-22 17:05:00,
2013-06-22 13:06:00,87.2,74.9,30.02,South,170,3.0,8.0,67,0.00,,---,0.00,VWS V14.01,2013-06-22 17:06:00,
2013-06-22 13:07:00,87.2,74.0,30.02,West,263,1.0,8.0,65,0.00,,---,0.00,VWS V14.01,2013-06-22 17:07:00,
2013-06-22 13:08:00,87.4,75.1,30.02,SW,226,1.0,8.0,67,0.00,,---,0.00,VWS V14.01,2013-06-22 17:08:00,
2013-06-22 13:09:00,87.5,74.3,30.02,SW,228,6.0,8.0,65,0.00,,---,0.00,VWS V14.01,2013-06-22 17:09:00,
2013-06-22 13:10:00,87.7,74.5,30.02,SW,215,2.0,8.0,65,0.00,,---,0.00,VWS V14.01,2013-06-22 17:10:00,
2013-06-22 13:11:00,87.8,75.0,30.02,SSE,162,3.0,8.0,66,0.00,,---,0.00,VWS V14.01,2013-06-22 17:11:00,
2013-06-22 13:12:00,87.9,74.2,30.02,West,276,3.0,8.0,64,0.00,,---,0.00,VWS V14.01,2013-06-22 17:12:00,
2013-06-22 13:13:00,87.8,73.2,30.02,WSW,252,3.0,8.0,62,0.00,,---,0.00,VWS V14.01,2013-06-22 17:13:00,
2013-06-22 13:14:00,87.7,74.5,30.02,SSE,162,5.0,8.0,65,0.00,,---,0.00,VWS V14.01,2013-06-22 17:14:00,
2013-06-22 13:15:00,87.6,73.9,30.02,SSW,207,2.0,8.0,64,0.00,,---,0.00,VWS V14.01,2013-06-22 17:15:00,
2013-06-22 13:16:00,87.5,73.8,30.02,SSE,153,3.0,8.0,64,0.00,,---,0.00,VWS V14.01,2013-06-22 17:16:00,
2013-06-22 13:17:00,87.5,74.3,30.02,SSW,210,3.0,8.0,65,0.00,,---,0.00,VWS V14.01,2013-06-22 17:17:00,
2013-06-22 13:18:00,87.5,73.8,30.02,SE,136,4.0,8.0,64,0.00,,---,0.00,VWS V14.01,2013-06-22 17:18:00,
2013-06-22 13:19:00,87.4,73.3,30.02,SE,127,3.0,8.0,63,0.00,,---,0.00,VWS V14.01,2013-06-22 17:19:00,
2013-06-22 13:20:00,87.4,74.2,30.02,South,169,4.0,8.0,65,0.00,,---,0.00,VWS V14.01,2013-06-22 17:20:00,
2013-06-22 13:21:00,87.4,74.2,30.02,SSW,204,4.0,8.0,65,0.00,,---,0.00,VWS V14.01,2013-06-22 17:21:00,
2013-06-22 13:22:00,87.3,74.1,30.02,SW,229,4.0,8.0,65,0.00,,---,0.00,VWS V14.01,2013-06-22 17:22:00,
2013-06-22 13:23:00,87.3,73.6,30.02,SSW,212,2.0,8.0,64,0.00,,---,0.00,VWS V14.01,2013-06-22 17:23:00,
2013-06-22 13:24:00,87.2,74.0,30.02,WSW,256,2.0,8.0,65,0.00,,---,0.00,VWS V14.01,2013-06-22 17:24:00,
2013-06-22 13:25:00,87.0,73.4,30.02,SW,214,3.0,8.0,64,0.00,,---,0.00,VWS V14.01,2013-06-22 17:25:00,
2013-06-22 13:26:00,87.0,74.7,30.02,SSW,197,2.0,8.0,67,0.00,,---,0.00,VWS V14.01,2013-06-22 17:26:00,
2013-06-22 13:27:00,87.0,74.3,30.02,SW,231,1.0,8.0,66,0.00,,---,0.00,VWS V14.01,2013-06-22 17:27:00,
2013-06-22 13:28:00,87.0,74.3,30.02,WSW,250,2.0,8.0,66,0.00,,---,0.00,VWS V14.01,2013-06-22 17:28:00,
2013-06-22 13:29:00,86.9,74.2,30.02,SSW,197,3.0,8.0,66,0.00,,---,0.00,VWS V14.01,2013-06-22 17:29:00,
2013-06-22 13:30:00,86.9,74.2,30.02,SE,131,0.0,8.0,66,0.00,,---,0.00,VWS V14.01,2013-06-22 17:30:00,
2013-06-22 13:31:00,86.9,74.2,30.02,SW,226,4.0,4.0,66,0.00,,---,0.00,VWS V14.01,2013-06-22 17:31:00,
2013-06-22 13:32:00,86.8,74.1,30.02,SSE,167,1.0,4.0,66,0.00,,---,0.00,VWS V14.01,2013-06-22 17:32:00,
2013-06-22 13:33:00,86.8,73.6,30.02,SW,224,3.0,8.0,65,0.00,,---,0.00,VWS V14.01,2013-06-22 17:33:00,
2013-06-22 13:34:00,86.8,74.1,30.02,SSE,156,3.0,8.0,66,0.00,,---,0.00,VWS V14.01,2013-06-22 17:34:00,
2013-06-22 13:35:00,86.8,73.2,30.02,SW,225,4.0,8.0,64,0.00,,---,0.00,VWS V14.01,2013-06-22 17:35:00,
2013-06-22 13:36:00,86.7,73.1,30.02,SE,136,2.0,8.0,64,0.00,,---,0.00,VWS V14.01,2013-06-22 17:36:00,
2013-06-22 13:37:00,86.7,74.0,30.02,SW,233,3.0,8.0,66,0.00,,---,0.00,VWS V14.01,2013-06-22 17:37:00,
2013-06-22 13:38:00,86.7,73.5,30.02,SSW,194,2.0,8.0,65,0.00,,---,0.00,VWS V14.01,2013-06-22 17:38:00,
2013-06-22 13:39:00,86.7,73.5,30.02,SW,224,4.0,8.0,65,0.00,,---,0.00,VWS V14.01,2013-06-22 17:39:00,
2013-06-22 13:40:00,86.6,73.9,30.02,ESE,118,5.0,8.0,66,0.00,,---,0.00,VWS V14.01,2013-06-22 17:40:00,
2013-06-22 13:41:00,86.6,73.4,30.02,West,269,2.0,8.0,65,0.00,,---,0.00,VWS V14.01,2013-06-22 17:41:00,
2013-06-22 13:42:00,86.5,73.3,30.02,SSW,205,2.0,8.0,65,0.00,,---,0.00,VWS V14.01,2013-06-22 17:42:00,
2013-06-22 13:43:00,86.5,73.8,30.02,SW,236,4.0,8.0,66,0.00,,---,0.00,VWS V14.01,2013-06-22 17:43:00,
2013-06-22 13:44:00,86.5,73.8,30.02,SW,225,2.0,8.0,66,0.00,,---,0.00,VWS V14.01,2013-06-22 17:44:00,
2013-06-22 13:45:00,86.5,73.3,30.02,SE,145,2.0,8.0,65,0.00,,---,0.00,VWS V14.01,2013-06-22 17:45:00,
2013-06-22 13:46:00,86.5,73.8,30.02,WSW,244,1.0,8.0,66,0.00,,---,0.00,VWS V14.01,2013-06-22 17:46:00,
2013-06-22 13:47:00,86.6,73.9,30.02,SSW,197,2.0,8.0,66,0.00,,---,0.00,VWS V14.01,2013-06-22 17:47:00,
2013-06-22 13:48:00,86.6,73.9,30.02,SW,232,3.0,8.0,66,0.00,,---,0.00,VWS V14.01,2013-06-22 17:48:00,
2013-06-22 13:49:00,86.7,74.0,30.02,SW,232,2.0,8.0,66,0.00,,---,0.00,VWS V14.01,2013-06-22 17:49:00,
2013-06-22 13:50:00,86.7,74.0,30.01,SW,215,3.0,8.0,66,0.00,,---,0.00,VWS V14.01,2013-06-22 17:50:00,
2013-06-22 13:51:00,86.7,73.5,30.01,WSW,249,5.0,8.0,65,0.00,,---,0.00,VWS V14.01,2013-06-22 17:51:00,
2013-06-22 13:52:00,86.6,73.4,30.01,SSW,210,2.0,8.0,65,0.00,,---,0.00,VWS V14.01,2013-06-22 17:52:00,
2013-06-22 13:53:00,86.6,73.4,30.01,South,190,1.0,8.0,65,0.00,,---,0.00,VWS V14.01,2013-06-22 17:53:00,
2013-06-22 13:54:00,86.6,73.9,30.01,SW,224,1.0,8.0,66,0.00,,---,0.00,VWS V14.01,2013-06-22 17:54:00,
2013-06-22 13:55:00,86.6,73.9,30.01,WSW,248,1.0,8.0,66,0.00,,---,0.00,VWS V14.01,2013-06-22 17:55:00,
2013-06-22 13:56:00,86.6,73.4,30.01,SSW,205,3.0,8.0,65,0.00,,---,0.00,VWS V14.01,2013-06-22 17:56:00,
2013-06-22 13:57:00,86.6,73.9,30.01,SW,224,1.0,8.0,66,0.00,,---,0.00,VWS V14.01,2013-06-22 17:57:00,
2013-06-22 13:58:00,86.5,74.2,30.01,ESE,115,2.0,8.0,67,0.00,,---,0.00,VWS V14.01,2013-06-22 17:58:00,
2013-06-22 13:59:00,86.5,74.2,30.01,WSW,242,4.0,8.0,67,0.00,,---,0.00,VWS V14.01,2013-06-22 17:59:00,
2013-06-22 14:00:00,86.4,73.7,30.01,SW,232,2.0,8.0,66,0.00,,---,0.00,VWS V14.01,2013-06-22 18:00:00,
2013-06-22 14:01:00,86.4,73.7,30.01,South,179,2.0,5.0,66,0.00,,---,0.00,VWS V14.01,2013-06-22 18:01:00,
2013-06-22 14:02:00,86.4,73.7,30.01,SSE,162,2.0,5.0,66,0.00,,---,0.00,VWS V14.01,2013-06-22 18:02:00,
2013-06-22 14:03:00,86.4,74.2,30.01,SW,215,2.0,5.0,67,0.00,,---,0.00,VWS V14.01,2013-06-22 18:03:00,
2013-06-22 14:04:00,86.4,74.6,30.01,SSE,147,2.0,5.0,68,0.00,,---,0.00,VWS V14.01,2013-06-22 18:04:00,
2013-06-22 14:05:00,86.4,74.2,30.01,ESE,110,1.0,5.0,67,0.00,,---,0.00,VWS V14.01,2013-06-22 18:05:00,
2013-06-22 14:06:00,86.4,73.7,30.01,South,188,6.0,6.0,66,0.00,,---,0.00,VWS V14.01,2013-06-22 18:06:00,
2013-06-22 14:07:00,86.5,73.8,30.01,SSW,200,4.0,6.0,66,0.00,,---,0.00,VWS V14.01,2013-06-22 18:07:00,
2013-06-22 14:08:00,86.5,73.8,30.01,SW,224,1.0,7.0,66,0.00,,---,0.00,VWS V14.01,2013-06-22 18:08:00,
2013-06-22 14:09:00,86.5,73.8,30.00,WSW,244,3.0,7.0,66,0.00,,---,0.00,VWS V14.01,2013-06-22 18:09:00,
2013-06-22 14:10:00,86.5,73.8,30.00,SW,225,3.0,7.0,66,0.00,,---,0.00,VWS V14.01,2013-06-22 18:10:00,
2013-06-22 14:11:00,86.6,74.3,30.00,SW,221,1.0,7.0,67,0.00,,---,0.00,VWS V14.01,2013-06-22 18:11:00,
2013-06-22 14:12:00,86.7,74.4,30.00,SSW,193,3.0,7.0,67,0.00,,---,0.00,VWS V14.01,2013-06-22 18:12:00,
2013-06-22 14:13:00,86.9,74.2,30.00,SW,226,2.0,7.0,66,0.00,,---,0.00,VWS V14.01,2013-06-22 18:13:00,
2013-06-22 14:14:00,87.0,75.2,30.00,SSW,193,3.0,7.0,68,0.00,,---,0.00,VWS V14.01,2013-06-22 18:14:00,
2013-06-22 14:15:00,87.2,74.5,30.00,SSW,203,1.0,7.0,66,0.00,,---,0.00,VWS V14.01,2013-06-22 18:15:00,
2013-06-22 14:16:00,87.4,74.2,30.00,SSW,195,2.0,9.0,65,0.00,,---,0.00,VWS V14.01,2013-06-22 18:16:00,
2013-06-22 14:17:00,87.6,75.7,30.00,SW,233,4.0,9.0,68,0.00,,---,0.00,VWS V14.01,2013-06-22 18:17:00,
2013-06-22 14:18:00,87.8,74.1,30.00,WSW,257,3.0,9.0,64,0.00,,---,0.00,VWS V14.01,2013-06-22 18:18:00,
2013-06-22 14:19:00,88.0,74.8,30.00,SSW,192,7.0,9.0,65,0.00,,---,0.00,VWS V14.01,2013-06-22 18:19:00,
2013-06-22 14:20:00,88.2,74.5,30.00,SE,136,4.0,12.0,64,0.00,,---,0.00,VWS V14.01,2013-06-22 18:20:00,
2013-06-22 14:21:00,88.3,74.1,29.99,SSW,195,4.0,12.0,63,0.00,,---,0.00,VWS V14.01,2013-06-22 18:21:00,
2013-06-22 14:22:00,88.4,73.2,30.00,South,169,2.0,12.0,61,0.00,,---,0.00,VWS V14.01,2013-06-22 18:22:00,
2013-06-22 14:23:00,88.5,74.3,29.99,West,270,5.0,12.0,63,0.00,,---,0.00,VWS V14.01,2013-06-22 18:23:00,
2013-06-22 14:24:00,88.6,74.4,29.99,SW,225,4.0,12.0,63,0.00,,---,0.00,VWS V14.01,2013-06-22 18:24:00,
2013-06-22 14:25:00,88.6,74.4,29.99,SSW,212,4.0,12.0,63,0.00,,---,0.00,VWS V14.01,2013-06-22 18:25:00,
2013-06-22 14:26:00,88.7,75.0,29.99,West,271,4.0,12.0,64,0.00,,---,0.00,VWS V14.01,2013-06-22 18:26:00,
2013-06-22 14:27:00,88.9,76.5,29.99,SSE,166,3.0,12.0,67,0.00,,---,0.00,VWS V14.01,2013-06-22 18:27:00,
2013-06-22 14:28:00,89.0,75.2,29.99,SE,131,3.0,12.0,64,0.00,,---,0.00,VWS V14.01,2013-06-22 18:28:00,
2013-06-22 14:29:00,89.2,75.0,29.99,SW,215,4.0,12.0,63,0.00,,---,0.00,VWS V14.01,2013-06-22 18:29:00,
2013-06-22 14:30:00,89.3,75.1,29.99,SSW,193,6.0,12.0,63,0.00,,---,0.00,VWS V14.01,2013-06-22 18:30:00,
2013-06-22 14:31:00,89.5,74.8,29.99,South,191,3.0,7.0,62,0.00,,---,0.00,VWS V14.01,2013-06-22 18:31:00,
2013-06-22 14:32:00,89.5,75.2,29.98,SW,218,6.0,7.0,63,0.00,,---,0.00,VWS V14.01,2013-06-22 18:32:00,
2013-06-22 14:33:00,89.5,74.3,29.99,SSW,208,4.0,7.0,61,0.00,,---,0.00,VWS V14.01,2013-06-22 18:33:00,
2013-06-22 14:34:00,89.4,74.2,29.99,SSE,162,2.0,7.0,61,0.00,,---,0.00,VWS V14.01,2013-06-22 18:34:00,
2013-06-22 14:35:00,89.2,74.5,29.98,SE,139,3.0,7.0,62,0.00,,---,0.00,VWS V14.01,2013-06-22 18:35:00,
2013-06-22 14:36:00,89.1,73.9,29.99,South,184,2.0,7.0,61,0.00,,---,0.00,VWS V14.01,2013-06-22 18:36:00,
2013-06-22 14:37:00,89.0,74.3,29.99,SSW,194,3.0,7.0,62,0.00,,---,0.00,VWS V14.01,2013-06-22 18:37:00,
2013-06-22 14:38:00,89.0,74.3,29.99,SW,236,2.0,7.0,62,0.00,,---,0.00,VWS V14.01,2013-06-22 18:38:00,
2013-06-22 14:39:00,89.0,74.8,29.99,SE,146,2.0,7.0,63,0.00,,---,0.00,VWS V14.01,2013-06-22 18:39:00,
2013-06-22 14:40:00,89.1,75.3,29.98,SE,145,7.0,7.0,64,0.00,,---,0.00,VWS V14.01,2013-06-22 18:40:00,
2013-06-22 14:41:00,89.2,74.5,29.98,SE,140,8.0,10.0,62,0.00,,---,0.00,VWS V14.01,2013-06-22 18:41:00,
2013-06-22 14:42:00,89.2,74.0,29.98,South,188,3.0,10.0,61,0.00,,---,0.00,VWS V14.01,2013-06-22 18:42:00,
2013-06-22 14:43:00,89.1,73.9,29.98,WSW,238,3.0,10.0,61,0.00,,---,0.00,VWS V14.01,2013-06-22 18:43:00,
2013-06-22 14:44:00,89.1,73.9,29.98,WSW,237,7.0,10.0,61,0.00,,---,0.00,VWS V14.01,2013-06-22 18:44:00,
2013-06-22 14:45:00,89.0,73.8,29.98,SSE,153,3.0,10.0,61,0.00,,---,0.00,VWS V14.01,2013-06-22 18:45:00,
2013-06-22 14:46:00,88.9,73.7,29.98,SSE,156,7.0,10.0,61,0.00,,---,0.00,VWS V14.01,2013-06-22 18:46:00,
2013-06-22 14:47:00,88.7,72.0,29.98,SSW,207,6.0,10.0,58,0.00,,---,0.00,VWS V14.01,2013-06-22 18:47:00,
2013-06-22 14:48:00,88.5,72.3,29.98,South,169,8.0,10.0,59,0.00,,---,0.00,VWS V14.01,2013-06-22 18:48:00,
2013-06-22 14:49:00,88.2,71.6,29.98,ESE,110,2.0,10.0,58,0.00,,---,0.00,VWS V14.01,2013-06-22 18:49:00,
2013-06-22 14:50:00,88.0,70.9,29.98,WSW,245,4.0,10.0,57,0.00,,---,0.00,VWS V14.01,2013-06-22 18:50:00,
2013-06-22 14:51:00,87.8,71.2,29.98,South,184,5.0,10.0,58,0.00,,---,0.00,VWS V14.01,2013-06-22 18:51:00,
2013-06-22 14:52:00,87.5,69.9,29.98,SE,140,5.0,10.0,56,0.00,,---,0.00,VWS V14.01,2013-06-22 18:52:00,
2013-06-22 14:53:00,87.3,69.7,29.98,SSE,159,2.0,10.0,56,0.00,,---,0.00,VWS V14.01,2013-06-22 18:53:00,
2013-06-22 14:54:00,87.1,70.5,29.98,SSW,200,3.0,10.0,58,0.00,,---,0.00,VWS V14.01,2013-06-22 18:54:00,
2013-06-22 14:55:00,86.9,69.3,29.98,SSW,198,5.0,10.0,56,0.00,,---,0.00,VWS V14.01,2013-06-22 18:55:00,
2013-06-22 14:56:00,86.9,69.8,29.98,SW,226,2.0,10.0,57,0.00,,---,0.00,VWS V14.01,2013-06-22 18:56:00,
2013-06-22 14:57:00,86.9,70.9,29.98,WSW,245,4.0,10.0,59,0.00,,---,0.00,VWS V14.01,2013-06-22 18:57:00,
2013-06-22 14:58:00,86.9,71.8,29.98,SE,133,2.0,10.0,61,0.00,,---,0.00,VWS V14.01,2013-06-22 18:58:00,
2013-06-22 14:59:00,87.0,71.9,29.98,SE,143,9.0,12.0,61,0.00,,---,0.00,VWS V14.01,2013-06-22 18:59:00,
2013-06-22 15:00:00,86.9,71.8,29.99,West,278,6.0,16.0,61,0.00,,---,0.00,VWS V14.01,2013-06-22 19:00:00,
2013-06-22 15:01:00,86.6,71.6,29.99,SW,221,4.0,11.0,61,0.00,,---,0.00,VWS V14.01,2013-06-22 19:01:00,
2013-06-22 15:02:00,86.4,71.8,29.99,SE,127,4.0,11.0,62,0.00,,---,0.00,VWS V14.01,2013-06-22 19:02:00,
2013-06-22 15:03:00,86.1,72.0,29.98,SSW,201,6.0,14.0,63,0.00,,---,0.00,VWS V14.01,2013-06-22 19:03:00,
2013-06-22 15:04:00,85.9,71.8,29.98,WSW,250,3.0,14.0,63,0.00,,---,0.00,VWS V14.01,2013-06-22 19:04:00,
2013-06-22 15:05:00,85.7,72.1,29.98,SSE,155,3.0,14.0,64,0.00,,---,0.00,VWS V14.01,2013-06-22 19:05:00,
2013-06-22 15:06:00,85.7,72.6,29.98,SW,215,3.0,14.0,65,0.00,,---,0.00,VWS V14.01,2013-06-22 19:06:00,
2013-06-22 15:07:00,85.7,72.6,29.98,SSW,194,2.0,14.0,65,0.00,,---,0.00,VWS V14.01,2013-06-22 19:07:00,
2013-06-22 15:08:00,85.8,72.7,29.97,SSE,155,3.0,14.0,65,0.00,,---,0.00,VWS V14.01,2013-06-22 19:08:00,
2013-06-22 15:09:00,85.9,73.2,29.97,SW,231,1.0,14.0,66,0.00,,---,0.00,VWS V14.01,2013-06-22 19:09:00,
2013-06-22 15:10:00,86.0,72.9,29.97,West,267,2.0,14.0,65,0.00,,---,0.00,VWS V14.01,2013-06-22 19:10:00,
2013-06-22 15:11:00,86.1,72.5,29.98,WSW,242,4.0,14.0,64,0.00,,---,0.00,VWS V14.01,2013-06-22 19:11:00,
2013-06-22 15:12:00,86.1,72.5,29.98,ESE,116,4.0,14.0,64,0.00,,---,0.00,VWS V14.01,2013-06-22 19:12:00,
2013-06-22 15:13:00,86.2,72.1,29.98,West,267,5.0,14.0,63,0.00,,---,0.00,VWS V14.01,2013-06-22 19:13:00,
2013-06-22 15:14:00,86.2,71.7,29.97,WNW,283,1.0,14.0,62,0.00,,---,0.00,VWS V14.01,2013-06-22 19:14:00,
2013-06-22 15:15:00,86.1,71.1,29.97,West,278,4.0,14.0,61,0.00,,---,0.00,VWS V14.01,2013-06-22 19:15:00,
2013-06-22 15:16:00,86.0,71.0,29.97,WNW,284,5.0,14.0,61,0.00,,---,0.00,VWS V14.01,2013-06-22 19:16:00,
2013-06-22 15:17:00,85.9,70.9,29.97,SW,221,5.0,14.0,61,0.00,,---,0.00,VWS V14.01,2013-06-22 19:17:00,
2013-06-22 15:18:00,85.8,71.3,29.97,WSW,243,3.0,14.0,62,0.00,,---,0.00,VWS V14.01,2013-06-22 19:18:00,
2013-06-22 15:19:00,85.8,71.3,29.97,WSW,246,0.0,14.0,62,0.00,,---,0.00,VWS V14.01,2013-06-22 19:19:00,
2013-06-22 15:20:00,85.8,71.8,29.97,WNW,288,3.0,14.0,63,0.00,,---,0.00,VWS V14.01,2013-06-22 19:20:00,
2013-06-22 15:21:00,85.8,71.8,29.97,WSW,256,2.0,14.0,63,0.00,,---,0.00,VWS V14.01,2013-06-22 19:21:00,
2013-06-22 15:22:00,85.9,71.4,29.96,SE,144,3.0,14.0,62,0.00,,---,0.00,VWS V14.01,2013-06-22 19:22:00,
2013-06-22 15:23:00,85.9,73.2,29.96,SW,221,7.0,14.0,66,0.00,,---,0.00,VWS V14.01,2013-06-22 19:23:00,
2013-06-22 15:24:00,86.0,71.9,29.96,SSE,152,3.0,14.0,63,0.00,,---,0.00,VWS V14.01,2013-06-22 19:24:00,
2013-06-22 15:25:00,86.1,72.5,29.96,SW,225,6.0,14.0,64,0.00,,---,0.00,VWS V14.01,2013-06-22 19:25:00,
2013-06-22 15:26:00,86.2,72.1,29.96,SSE,149,4.0,14.0,63,0.00,,---,0.00,VWS V14.01,2013-06-22 19:26:00,
2013-06-22 15:27:00,86.3,71.8,29.96,SSE,158,6.0,14.0,62,0.00,,---,0.00,VWS V14.01,2013-06-22 19:27:00,
2013-06-22 15:28:00,86.3,71.8,29.96,SSE,165,8.0,14.0,62,0.00,,---,0.00,VWS V14.01,2013-06-22 19:28:00,
2013-06-22 15:29:00,86.3,71.3,29.96,WSW,239,5.0,14.0,61,0.00,,---,0.00,VWS V14.01,2013-06-22 19:29:00,
2013-06-22 15:30:00,86.3,71.8,29.95,SSW,208,3.0,14.0,62,0.00,,---,0.00,VWS V14.01,2013-06-22 19:30:00,
2013-06-22 15:31:00,86.4,70.9,29.95,SW,226,2.0,3.0,60,0.00,,---,0.00,VWS V14.01,2013-06-22 19:31:00,
2013-06-22 15:32:00,86.5,71.0,29.95,SW,235,1.0,5.0,60,0.00,,---,0.00,VWS V14.01,2013-06-22 19:32:00,
2013-06-22 15:33:00,86.6,71.6,29.95,SSE,153,2.0,5.0,61,0.00,,---,0.00,VWS V14.01,2013-06-22 19:33:00,
2013-06-22 15:34:00,86.7,71.7,29.95,SE,132,5.0,5.0,61,0.00,,---,0.00,VWS V14.01,2013-06-22 19:34:00,
2013-06-22 15:35:00,86.8,69.2,29.96,SE,146,3.0,7.0,56,0.00,,---,0.00,VWS V14.01,2013-06-22 19:35:00,
2013-06-22 15:36:00,86.8,69.2,29.96,WSW,240,4.0,7.0,56,0.00,,---,0.00,VWS V14.01,2013-06-22 19:36:00,
2013-06-22 15:37:00,86.9,70.4,29.96,South,190,2.0,7.0,58,0.00,,---,0.00,VWS V14.01,2013-06-22 19:37:00,
2013-06-22 15:38:00,86.9,69.8,29.96,SSW,203,5.0,7.0,57,0.00,,---,0.00,VWS V14.01,2013-06-22 19:38:00,
2013-06-22 15:39:00,86.7,68.6,29.96,WSW,250,6.0,8.0,55,0.00,,---,0.00,VWS V14.01,2013-06-22 19:39:00,
2013-06-22 15:40:00,86.5,69.0,29.96,SE,145,7.0,8.0,56,0.00,,---,0.00,VWS V14.01,2013-06-22 19:40:00,
2013-06-22 15:41:00,86.4,68.9,29.96,SSE,164,2.0,8.0,56,0.00,,---,0.00,VWS V14.01,2013-06-22 19:41:00,
2013-06-22 15:42:00,86.3,70.3,29.96,SSW,194,2.0,8.0,59,0.00,,---,0.00,VWS V14.01,2013-06-22 19:42:00,
2013-06-22 15:43:00,86.3,69.8,29.96,SSW,195,1.0,8.0,58,0.00,,---,0.00,VWS V14.01,2013-06-22 19:43:00,
2013-06-22 15:44:00,86.3,69.3,29.96,SSW,209,4.0,8.0,57,0.00,,---,0.00,VWS V14.01,2013-06-22 19:44:00,
2013-06-22 15:45:00,86.3,69.3,29.96,SE,143,3.0,8.0,57,0.00,,---,0.00,VWS V14.01,2013-06-22 19:45:00,
2013-06-22 15:46:00,86.4,69.9,29.96,ESE,112,3.0,8.0,58,0.00,,---,0.00,VWS V14.01,2013-06-22 19:46:00,
2013-06-22 15:47:00,86.3,69.8,29.96,South,190,10.0,15.0,58,0.00,,---,0.00,VWS V14.01,2013-06-22 19:47:00,
2013-06-22 15:48:00,86.1,69.6,29.96,SW,236,8.0,15.0,58,0.00,,---,0.00,VWS V14.01,2013-06-22 19:48:00,
2013-06-22 15:49:00,85.9,69.9,29.96,SSW,197,4.0,15.0,59,0.00,,---,0.00,VWS V14.01,2013-06-22 19:49:00,
2013-06-22 15:50:00,85.7,70.2,29.96,SE,146,3.0,15.0,60,0.00,,---,0.00,VWS V14.01,2013-06-22 19:50:00,
2013-06-22 15:51:00,85.7,70.2,29.97,SW,224,7.0,15.0,60,0.00,,---,0.00,VWS V14.01,2013-06-22 19:51:00,
2013-06-22 15:52:00,85.6,71.1,29.97,South,181,5.0,15.0,62,0.00,,---,0.00,VWS V14.01,2013-06-22 19:52:00,
2013-06-22 15:53:00,85.5,70.5,29.97,West,266,11.0,15.0,61,0.00,,---,0.00,VWS V14.01,2013-06-22 19:53:00,
2013-06-22 15:54:00,85.2,70.7,29.97,SW,219,11.0,15.0,62,0.00,,---,0.00,VWS V14.01,2013-06-22 19:54:00,
2013-06-22 15:55:00,85.1,71.1,29.97,SE,134,7.0,15.0,63,0.00,,---,0.00,VWS V14.01,2013-06-22 19:55:00,
2013-06-22 15:56:00,85.0,70.5,29.97,SSW,194,5.0,15.0,62,0.00,,---,0.00,VWS V14.01,2013-06-22 19:56:00,
2013-06-22 15:57:00,84.9,70.0,29.97,ESE,122,7.0,15.0,61,0.00,,---,0.00,VWS V14.01,2013-06-22 19:57:00,
2013-06-22 15:58:00,84.8,70.8,29.97,South,178,5.0,15.0,63,0.00,,---,0.00,VWS V14.01,2013-06-22 19:58:00,
2013-06-22 15:59:00,84.8,70.3,29.97,SE,139,3.0,15.0,62,0.00,,---,0.00,VWS V14.01,2013-06-22 19:59:00,
2013-06-22 16:00:00,84.8,70.3,29.97,SW,231,2.0,15.0,62,0.00,,---,0.00,VWS V14.01,2013-06-22 20:00:00,
2013-06-22 16:01:00,84.9,70.9,29.97,ESE,115,5.0,6.0,63,0.00,,---,0.00,VWS V14.01,2013-06-22 20:01:00,
2013-06-22 16:02:00,85.0,70.5,29.97,SW,217,5.0,12.0,62,0.00,,---,0.00,VWS V14.01,2013-06-22 20:02:00,
2013-06-22 16:03:00,85.0,70.5,29.97,SSE,160,11.0,12.0,62,0.00,,---,0.00,VWS V14.01,2013-06-22 20:03:00,
2013-06-22 16:04:00,84.9,70.9,29.98,SSE,148,10.0,12.0,63,0.00,,---,0.00,VWS V14.01,2013-06-22 20:04:00,
2013-06-22 16:05:00,84.8,70.3,29.98,WNW,294,6.0,12.0,62,0.00,,---,0.00,VWS V14.01,2013-06-22 20:05:00,
2013-06-22 16:06:00,84.6,69.7,29.98,South,174,10.0,12.0,61,0.00,,---,0.00,VWS V14.01,2013-06-22 20:06:00,
2013-06-22 16:07:00,84.4,69.5,29.98,SE,139,7.0,12.0,61,0.00,,---,0.00,VWS V14.01,2013-06-22 20:07:00,
2013-06-22 16:08:00,84.1,69.2,29.97,SW,218,6.0,12.0,61,0.00,,---,0.00,VWS V14.01,2013-06-22 20:08:00,
2013-06-22 16:09:00,83.9,68.5,29.97,SW,236,1.0,12.0,60,0.00,,---,0.00,VWS V14.01,2013-06-22 20:09:00,
2013-06-22 16:10:00,83.7,68.8,29.98,SW,219,2.0,12.0,61,0.00,,---,0.00,VWS V14.01,2013-06-22 20:10:00,
2013-06-22 16:11:00,83.6,68.3,29.98,SSW,210,9.0,12.0,60,0.00,,---,0.00,VWS V14.01,2013-06-22 20:11:00,
2013-06-22 16:12:00,83.4,68.1,29.98,SSW,194,4.0,12.0,60,0.00,,---,0.00,VWS V14.01,2013-06-22 20:12:00,
2013-06-22 16:13:00,83.3,68.0,29.98,SW,231,4.0,12.0,60,0.00,,---,0.00,VWS V14.01,2013-06-22 20:13:00,
2013-06-22 16:14:00,83.2,68.8,29.97,SW,215,1.0,12.0,62,0.00,,---,0.00,VWS V14.01,2013-06-22 20:14:00,
2013-06-22 16:15:00,83.0,68.2,29.98,SSE,148,2.0,12.0,61,0.00,,---,0.00,VWS V14.01,2013-06-22 20:15:00,
2013-06-22 16:16:00,82.9,68.1,29.98,ESE,118,2.0,12.0,61,0.00,,---,0.00,VWS V14.01,2013-06-22 20:16:00,
2013-06-22 16:17:00,82.7,67.4,29.98,SW,226,7.0,14.0,60,0.00,,---,0.00,VWS V14.01,2013-06-22 20:17:00,
2013-06-22 16:18:00,82.5,67.2,29.98,SSE,151,6.0,14.0,60,0.00,,---,0.00,VWS V14.01,2013-06-22 20:18:00,
2013-06-22 16:19:00,82.2,67.4,29.98,SE,145,5.0,14.0,61,0.00,,---,0.00,VWS V14.01,2013-06-22 20:19:00,
2013-06-22 16:20:00,82.1,67.8,29.98,SW,217,2.0,14.0,62,0.00,,---,0.00,VWS V14.01,2013-06-22 20:20:00,
2013-06-22 16:21:00,82.0,67.2,29.98,South,174,4.0,14.0,61,0.00,,---,0.00,VWS V14.01,2013-06-22 20:21:00,
2013-06-22 16:22:00,82.0,68.2,29.98,WSW,244,6.0,14.0,63,0.00,,---,0.00,VWS V14.01,2013-06-22 20:22:00,
2013-06-22 16:23:00,81.9,67.1,29.97,SW,222,2.0,14.0,61,0.00,,---,0.00,VWS V14.01,2013-06-22 20:23:00,
2013-06-22 16:24:00,81.8,68.0,29.97,SE,139,2.0,14.0,63,0.00,,---,0.00,VWS V14.01,2013-06-22 20:24:00,
2013-06-22 16:25:00,81.9,67.6,29.97,SE,138,2.0,14.0,62,0.00,,---,0.00,VWS V14.01,2013-06-22 20:25:00,
2013-06-22 16:26:00,81.8,67.1,29.97,SW,224,2.0,14.0,61,0.00,,---,0.00,VWS V14.01,2013-06-22 20:26:00,
2013-06-22 16:27:00,81.8,67.1,29.97,SW,226,0.0,14.0,61,0.00,,---,0.00,VWS V14.01,2013-06-22 20:27:00,
2013-06-22 16:28:00,81.8,67.5,29.97,SSW,213,0.0,14.0,62,0.00,,---,0.00,VWS V14.01,2013-06-22 20:28:00,
2013-06-22 16:29:00,81.9,68.1,29.97,SSW,204,4.0,14.0,63,0.00,,---,0.00,VWS V14.01,2013-06-22 20:29:00,
2013-06-22 16:30:00,81.9,67.1,29.96,WSW,258,3.0,14.0,61,0.00,,---,0.00,VWS V14.01,2013-06-22 20:30:00,
2013-06-22 16:31:00,81.9,67.6,29.96,SW,228,4.0,6.0,62,0.00,,---,0.00,VWS V14.01,2013-06-22 20:31:00,
2013-06-22 16:32:00,81.9,67.6,29.97,WSW,245,1.0,6.0,62,0.00,,---,0.00,VWS V14.01,2013-06-22 20:32:00,
2013-06-22 16:33:00,82.0,69.1,29.97,SW,226,4.0,6.0,65,0.00,,---,0.00,VWS V14.01,2013-06-22 20:33:00,
2013-06-22 16:34:00,82.0,68.2,29.96,SW,214,0.0,6.0,63,0.00,,---,0.00,VWS V14.01,2013-06-22 20:34:00,
2013-06-22 16:35:00,82.0,67.7,29.96,West,261,2.0,6.0,62,0.00,,---,0.00,VWS V14.01,2013-06-22 20:35:00,
2013-06-22 16:36:00,81.9,67.1,29.96,SSW,200,5.0,8.0,61,0.00,,---,0.00,VWS V14.01,2013-06-22 20:36:00,
2013-06-22 16:37:00,81.8,67.1,29.96,SSE,162,2.0,8.0,61,0.00,,---,0.00,VWS V14.01,2013-06-22 20:37:00,
2013-06-22 16:38:00,81.7,66.9,29.96,SE,142,4.0,8.0,61,0.00,,---,0.00,VWS V14.01,2013-06-22 20:38:00,
2013-06-22 16:39:00,81.7,66.9,29.96,WSW,249,3.0,8.0,61,0.00,,---,0.00,VWS V14.01,2013-06-22 20:39:00,
2013-06-22 16:40:00,81.6,67.8,29.96,WSW,257,1.0,8.0,63,0.00,,---,0.00,VWS V14.01,2013-06-22 20:40:00,
2013-06-22 16:41:00,81.5,67.7,29.96,WNW,297,5.0,8.0,63,0.00,,---,0.00,VWS V14.01,2013-06-22 20:41:00,
2013-06-22 16:42:00,81.4,67.6,29.95,SSW,195,3.0,8.0,63,0.00,,---,0.00,VWS V14.01,2013-06-22 20:42:00,
2013-06-22 16:43:00,81.4,68.1,29.95,West,276,2.0,8.0,64,0.00,,---,0.00,VWS V14.01,2013-06-22 20:43:00,
2013-06-22 16:44:00,81.3,68.0,29.95,West,281,1.0,8.0,64,0.00,,---,0.00,VWS V14.01,2013-06-22 20:44:00,
2013-06-22 16:45:00,81.3,68.0,29.95,WNW,283,0.0,8.0,64,0.00,,---,0.00,VWS V14.01,2013-06-22 20:45:00,
2013-06-22 16:46:00,81.4,67.6,29.95,WSW,257,5.0,8.0,63,0.00,,---,0.00,VWS V14.01,2013-06-22 20:46:00,
2013-06-22 16:47:00,81.4,67.6,29.95,WSW,250,2.0,8.0,63,0.00,,---,0.00,VWS V14.01,2013-06-22 20:47:00,
2013-06-22 16:48:00,81.5,68.2,29.95,SW,231,0.0,8.0,64,0.00,,---,0.00,VWS V14.01,2013-06-22 20:48:00,
2013-06-22 16:49:00,81.5,68.2,29.95,West,264,2.0,8.0,64,0.00,,---,0.00,VWS V14.01,2013-06-22 20:49:00,
2013-06-22 16:50:00,81.5,67.2,29.95,West,273,1.0,8.0,62,0.00,,---,0.00,VWS V14.01,2013-06-22 20:50:00,
2013-06-22 16:51:00,81.5,68.2,29.96,SW,224,4.0,8.0,64,0.00,,---,0.00,VWS V14.01,2013-06-22 20:51:00,
2013-06-22 16:52:00,81.4,67.6,29.95,SSW,205,2.0,8.0,63,0.00,,---,0.00,VWS V14.01,2013-06-22 20:52:00,
2013-06-22 16:53:00,81.3,67.5,29.96,WSW,240,4.0,8.0,63,0.00,,---,0.00,VWS V14.01,2013-06-22 20:53:00,
2013-06-22 16:54:00,81.2,66.9,29.96,WSW,246,2.0,8.0,62,0.00,,---,0.00,VWS V14.01,2013-06-22 20:54:00,
2013-06-22 16:55:00,81.2,67.4,29.96,NNW,331,1.0,8.0,63,0.00,,---,0.00,VWS V14.01,2013-06-22 20:55:00,
2013-06-22 16:56:00,81.2,67.9,29.95,NNW,344,0.0,8.0,64,0.00,,---,0.00,VWS V14.01,2013-06-22 20:56:00,
2013-06-22 16:57:00,81.3,68.9,29.95,SSW,200,2.0,8.0,66,0.00,,---,0.00,VWS V14.01,2013-06-22 20:57:00,
2013-06-22 16:58:00,81.3,68.0,29.96,SW,236,3.0,8.0,64,0.00,,---,0.00,VWS V14.01,2013-06-22 20:58:00,
2013-06-22 16:59:00,81.3,67.5,29.96,SSE,155,1.0,9.0,63,0.00,,---,0.00,VWS V14.01,2013-06-22 20:59:00,
2013-06-22 17:00:00,81.3,67.5,29.96,SSE,162,4.0,9.0,63,0.00,,---,0.00,VWS V14.01,2013-06-22 21:00:00,
2013-06-22 17:01:00,81.4,68.1,29.96,SSW,194,3.0,7.0,64,0.00,,---,0.00,VWS V14.01,2013-06-22 21:01:00,
2013-06-22 17:02:00,81.4,67.6,29.96,West,262,2.0,7.0,63,0.00,,---,0.00,VWS V14.01,2013-06-22 21:02:00,
2013-06-22 17:03:00,81.3,68.0,29.96,SE,127,3.0,7.0,64,0.00,,---,0.00,VWS V14.01,2013-06-22 21:03:00,
2013-06-22 17:04:00,81.2,67.4,29.96,NW,304,1.0,7.0,63,0.00,,---,0.00,VWS V14.01,2013-06-22 21:04:00,
2013-06-22 17:05:00,81.2,68.8,29.96,South,190,3.0,7.0,66,0.00,,---,0.00,VWS V14.01,2013-06-22 21:05:00,
2013-06-22 17:06:00,81.1,67.3,29.97,West,260,1.0,7.0,63,0.00,,---,0.00,VWS V14.01,2013-06-22 21:06:00,
2013-06-22 17:07:00,81.0,67.7,29.97,WNW,285,1.0,7.0,64,0.00,,---,0.00,VWS V14.01,2013-06-22 21:07:00,
2013-06-22 17:08:00,80.9,67.1,29.97,East,98,2.0,7.0,63,0.00,,---,0.00,VWS V14.01,2013-06-22 21:08:00,
2013-06-22 17:09:00,80.9,68.0,29.97,SW,214,1.0,7.0,65,0.00,,---,0.00,VWS V14.01,2013-06-22 21:09:00,
2013-06-22 17:10:00,80.9,68.0,29.97,West,279,1.0,7.0,65,0.00,,---,0.00,VWS V14.01,2013-06-22 21:10:00,
2013-06-22 17:11:00,80.9,68.0,29.97,West,279,2.0,7.0,65,0.00,,---,0.00,VWS V14.01,2013-06-22 21:11:00,
2013-06-22 17:12:00,80.9,68.5,29.97,West,276,0.0,7.0,66,0.00,,---,0.00,VWS V14.01,2013-06-22 21:12:00,
2013-06-22 17:13:00,80.9,68.0,29.97,WSW,240,2.0,7.0,65,0.00,,---,0.00,VWS V14.01,2013-06-22 21:13:00,
2013-06-22 17:14:00,80.8,67.5,29.97,SSW,198,2.0,7.0,64,0.00,,---,0.00,VWS V14.01,2013-06-22 21:14:00,
2013-06-22 17:15:00,80.8,67.5,29.97,SSW,198,1.0,7.0,64,0.00,,---,0.00,VWS V14.01,2013-06-22 21:15:00,
2013-06-22 17:16:00,80.7,67.4,29.97,SW,229,2.0,7.0,64,0.00,,---,0.00,VWS V14.01,2013-06-22 21:16:00,
2013-06-22 17:17:00,80.6,67.3,29.96,SW,224,1.0,7.0,64,0.00,,---,0.00,VWS V14.01,2013-06-22 21:17:00,
2013-06-22 17:18:00,80.6,67.8,29.97,North,354,1.0,7.0,65,0.00,,---,0.00,VWS V14.01,2013-06-22 21:18:00,
2013-06-22 17:19:00,80.6,68.2,29.96,WNW,285,1.0,7.0,66,0.00,,---,0.00,VWS V14.01,2013-06-22 21:19:00,
2013-06-22 17:20:00,80.5,67.7,29.96,South,183,3.0,7.0,65,0.00,,---,0.00,VWS V14.01,2013-06-22 21:20:00,
2013-06-22 17:21:00,80.5,67.7,29.97,WSW,243,1.0,7.0,65,0.00,,---,0.00,VWS V14.01,2013-06-22 21:21:00,
2013-06-22 17:22:00,80.5,67.7,29.97,West,271,0.0,7.0,65,0.00,,---,0.00,VWS V14.01,2013-06-22 21:22:00,
2013-06-22 17:23:00,80.5,68.1,29.97,West,271,0.0,7.0,66,0.00,,---,0.00,VWS V14.01,2013-06-22 21:23:00,
2013-06-22 17:24:00,80.5,68.5,29.97,NNW,328,3.0,7.0,67,0.00,,---,0.00,VWS V14.01,2013-06-22 21:24:00,
2013-06-22 17:25:00,80.5,68.1,29.97,West,281,0.0,7.0,66,0.00,,---,0.00,VWS V14.01,2013-06-22 21:25:00,
2013-06-22 17:26:00,80.5,68.1,29.97,North,356,2.0,7.0,66,0.00,,---,0.00,VWS V14.01,2013-06-22 21:26:00,
2013-06-22 17:27:00,80.4,68.0,29.97,North,354,0.0,7.0,66,0.00,,---,0.00,VWS V14.01,2013-06-22 21:27:00,
2013-06-22 17:28:00,80.4,68.0,29.97,East,84,1.0,7.0,66,0.00,,---,0.00,VWS V14.01,2013-06-22 21:28:00,
2013-06-22 17:29:00,80.4,68.0,29.97,WSW,244,1.0,7.0,66,0.00,,---,0.00,VWS V14.01,2013-06-22 21:29:00,
2013-06-22 17:30:00,80.3,68.3,29.97,WSW,245,0.0,7.0,67,0.00,,---,0.00,VWS V14.01,2013-06-22 21:30:00,
2013-06-22 17:31:00,80.3,68.8,29.97,WSW,245,0.0,0.0,68,0.00,,---,0.00,VWS V14.01,2013-06-22 21:31:00,
2013-06-22 17:32:00,80.3,68.3,29.97,WSW,244,0.0,1.0,67,0.00,,---,0.00,VWS V14.01,2013-06-22 21:32:00,
2013-06-22 17:33:00,80.3,68.3,29.97,WSW,244,0.0,1.0,67,0.00,,---,0.00,VWS V14.01,2013-06-22 21:33:00,
2013-06-22 17:34:00,80.3,68.8,29.97,WSW,245,0.0,1.0,68,0.00,,---,0.00,VWS V14.01,2013-06-22 21:34:00,
2013-06-22 17:35:00,80.3,69.2,29.97,SE,135,0.0,1.0,69,0.00,,---,0.00,VWS V14.01,2013-06-22 21:35:00,
2013-06-22 17:36:00,80.4,68.0,29.97,ESE,111,0.0,1.0,66,0.00,,---,0.00,VWS V14.01,2013-06-22 21:36:00,
2013-06-22 17:37:00,80.4,68.4,29.97,SW,215,1.0,2.0,67,0.00,,---,0.00,VWS V14.01,2013-06-22 21:37:00,
2013-06-22 17:38:00,80.4,68.4,29.97,SW,236,1.0,2.0,67,0.00,,---,0.00,VWS V14.01,2013-06-22 21:38:00,
2013-06-22 17:39:00,80.5,68.5,29.97,SW,225,0.0,2.0,67,0.00,,---,0.00,VWS V14.01,2013-06-22 21:39:00,
2013-06-22 17:40:00,80.5,68.5,29.97,SE,124,1.0,2.0,67,0.00,,---,0.00,VWS V14.01,2013-06-22 21:40:00,
2013-06-22 17:41:00,80.5,68.1,29.97,SSW,203,1.0,2.0,66,0.00,,---,0.00,VWS V14.01,2013-06-22 21:41:00,
2013-06-22 17:42:00,80.6,68.6,29.96,SE,134,2.0,2.0,67,0.00,,---,0.00,VWS V14.01,2013-06-22 21:42:00,
2013-06-22 17:43:00,80.7,68.7,29.96,South,178,3.0,4.0,67,0.00,,---,0.00,VWS V14.01,2013-06-22 21:43:00,
2013-06-22 17:44:00,80.8,68.4,29.96,SSE,162,2.0,4.0,66,0.00,,---,0.00,VWS V14.01,2013-06-22 21:44:00,
2013-06-22 17:45:00,80.7,68.3,29.96,ESE,121,2.0,4.0,66,0.00,,---,0.00,VWS V14.01,2013-06-22 21:45:00,
2013-06-22 17:46:00,80.8,68.4,29.96,SW,214,2.0,4.0,66,0.00,,---,0.00,VWS V14.01,2013-06-22 21:46:00,
2013-06-22 17:47:00,80.8,68.8,29.96,SSW,194,0.0,4.0,67,0.00,,---,0.00,VWS V14.01,2013-06-22 21:47:00,
2013-06-22 17:48:00,80.8,68.8,29.96,SW,235,2.0,4.0,67,0.00,,---,0.00,VWS V14.01,2013-06-22 21:48:00,
2013-06-22 17:49:00,80.8,68.4,29.96,SSE,165,1.0,4.0,66,0.00,,---,0.00,VWS V14.01,2013-06-22 21:49:00,
2013-06-22 17:50:00,80.7,68.3,29.96,SSE,168,1.0,4.0,66,0.00,,---,0.00,VWS V14.01,2013-06-22 21:50:00,
2013-06-22 17:51:00,80.7,67.8,29.97,SSE,149,1.0,4.0,65,0.00,,---,0.00,VWS V14.01,2013-06-22 21:51:00,
2013-06-22 17:52:00,80.7,68.3,29.97,SSW,205,1.0,4.0,66,0.00,,---,0.00,VWS V14.01,2013-06-22 21:52:00,
2013-06-22 17:53:00,80.6,68.2,29.97,WSW,250,1.0,4.0,66,0.00,,---,0.00,VWS V14.01,2013-06-22 21:53:00,
2013-06-22 17:54:00,80.5,68.1,29.97,SW,226,0.0,4.0,66,0.00,,---,0.00,VWS V14.01,2013-06-22 21:54:00,
2013-06-22 17:55:00,80.5,67.7,29.97,West,266,1.0,4.0,65,0.00,,---,0.00,VWS V14.01,2013-06-22 21:55:00,
2013-06-22 17:56:00,80.4,68.0,29.97,West,266,0.0,4.0,66,0.00,,---,0.00,VWS V14.01,2013-06-22 21:56:00,
2013-06-22 17:57:00,80.5,68.5,29.97,West,266,0.0,4.0,67,0.00,,---,0.00,VWS V14.01,2013-06-22 21:57:00,
2013-06-22 17:58:00,80.5,68.1,29.97,SSW,208,2.0,4.0,66,0.00,,---,0.00,VWS V14.01,2013-06-22 21:58:00,
2013-06-22 17:59:00,80.6,69.1,29.97,SW,225,0.0,4.0,68,0.00,,---,0.00,VWS V14.01,2013-06-22 21:59:00,
2013-06-22 18:00:00,80.7,68.3,29.98,SSW,200,1.0,4.0,66,0.00,,---,0.00,VWS V14.01,2013-06-22 22:00:00,
2013-06-22 18:01:00,80.9,68.9,29.98,SSW,201,0.0,1.0,67,0.00,,---,0.00,VWS V14.01,2013-06-22 22:01:00,
2013-06-22 18:02:00,81.0,69.4,29.98,SSW,202,0.0,1.0,68,0.00,,---,0.00,VWS V14.01,2013-06-22 22:02:00,
2013-06-22 18:03:00,81.1,68.7,29.98,SSE,160,1.0,2.0,66,0.00,,---,0.00,VWS V14.01,2013-06-22 22:03:00,
2013-06-22 18:04:00,81.1,68.7,29.98,SSE,164,0.0,2.0,66,0.00,,---,0.00,VWS V14.01,2013-06-22 22:04:00,
2013-06-22 18:05:00,81.2,68.8,29.98,SW,221,1.0,3.0,66,0.00,,---,0.00,VWS V14.01,2013-06-22 22:05:00,
2013-06-22 18:06:00,81.1,68.7,29.98,WSW,256,1.0,3.0,66,0.00,,---,0.00,VWS V14.01,2013-06-22 22:06:00,
2013-06-22 18:07:00,81.1,68.7,29.98,West,274,1.0,3.0,66,0.00,,---,0.00,VWS V14.01,2013-06-22 22:07:00,
2013-06-22 18:08:00,81.0,68.6,29.98,WSW,253,2.0,3.0,66,0.00,,---,0.00,VWS V14.01,2013-06-22 22:08:00,
2013-06-22 18:09:00,81.0,68.6,29.98,WSW,252,0.0,3.0,66,0.00,,---,0.00,VWS V14.01,2013-06-22 22:09:00,
2013-06-22 18:10:00,81.0,69.0,29.98,WSW,253,0.0,3.0,67,0.00,,---,0.00,VWS V14.01,2013-06-22 22:10:00,
2013-06-22 18:11:00,81.0,68.6,29.98,WSW,244,2.0,3.0,66,0.00,,---,0.00,VWS V14.01,2013-06-22 22:11:00,
2013-06-22 18:12:00,81.1,69.6,29.98,SSW,199,0.0,3.0,68,0.00,,---,0.00,VWS V14.01,2013-06-22 22:12:00,
2013-06-22 18:13:00,81.2,69.2,29.98,SW,230,1.0,3.0,67,0.00,,---,0.00,VWS V14.01,2013-06-22 22:13:00,
2013-06-22 18:14:00,81.3,69.3,29.98,SW,219,0.0,3.0,67,0.00,,---,0.00,VWS V14.01,2013-06-22 22:14:00,
2013-06-22 18:15:00,81.4,69.0,29.98,South,169,1.0,3.0,66,0.00,,---,0.00,VWS V14.01,2013-06-22 22:15:00,
2013-06-22 18:16:00,81.4,69.0,29.98,SW,214,2.0,4.0,66,0.00,,---,0.00,VWS V14.01,2013-06-22 22:16:00,
2013-06-22 18:17:00,81.4,69.0,29.98,West,273,4.0,4.0,66,0.00,,---,0.00,VWS V14.01,2013-06-22 22:17:00,
2013-06-22 18:18:00,81.3,68.9,29.98,WNW,293,2.0,6.0,66,0.00,,---,0.00,VWS V14.01,2013-06-22 22:18:00,
2013-06-22 18:19:00,81.2,68.3,29.98,SW,225,2.0,6.0,65,0.00,,---,0.00,VWS V14.01,2013-06-22 22:19:00,
2013-06-22 18:20:00,81.2,68.3,29.98,West,276,2.0,6.0,65,0.00,,---,0.00,VWS V14.01,2013-06-22 22:20:00,
2013-06-22 18:21:00,81.1,68.7,29.98,WSW,239,2.0,6.0,66,0.00,,---,0.00,VWS V14.01,2013-06-22 22:21:00,
2013-06-22 18:22:00,81.1,68.2,29.98,WSW,246,1.0,6.0,65,0.00,,---,0.00,VWS V14.01,2013-06-22 22:22:00,
2013-06-22 18:23:00,81.1,68.7,29.98,WSW,253,1.0,6.0,66,0.00,,---,0.00,VWS V14.01,2013-06-22 22:23:00,
2013-06-22 18:24:00,81.1,68.2,29.97,West,276,1.0,6.0,65,0.00,,---,0.00,VWS V14.01,2013-06-22 22:24:00,
2013-06-22 18:25:00,81.0,68.6,29.97,SSW,210,1.0,6.0,66,0.00,,---,0.00,VWS V14.01,2013-06-22 22:25:00,
2013-06-22 18:26:00,81.0,69.0,29.97,WSW,248,1.0,6.0,67,0.00,,---,0.00,VWS V14.01,2013-06-22 22:26:00,
2013-06-22 18:27:00,81.0,68.6,29.97,WSW,240,1.0,6.0,66,0.00,,---,0.00,VWS V14.01,2013-06-22 22:27:00,
2013-06-22 18:28:00,80.9,68.9,29.97,SW,217,1.0,6.0,67,0.00,,---,0.00,VWS V14.01,2013-06-22 22:28:00,
2013-06-22 18:29:00,80.8,68.8,29.98,SW,217,0.0,6.0,67,0.00,,---,0.00,VWS V14.01,2013-06-22 22:29:00,
2013-06-22 18:30:00,80.8,69.3,29.98,SW,217,0.0,6.0,68,0.00,,---,0.00,VWS V14.01,2013-06-22 22:30:00,
2013-06-22 18:31:00,80.8,69.3,29.98,SW,217,1.0,1.0,68,0.00,,---,0.00,VWS V14.01,2013-06-22 22:31:00,
2013-06-22 18:32:00,80.7,68.7,29.98,SE,145,1.0,2.0,67,0.00,,---,0.00,VWS V14.01,2013-06-22 22:32:00,
2013-06-22 18:33:00,80.7,68.7,29.99,SSW,208,4.0,5.0,67,0.00,,---,0.00,VWS V14.01,2013-06-22 22:33:00,
2013-06-22 18:34:00,80.6,68.6,29.99,SSE,151,4.0,9.0,67,0.00,,---,0.00,VWS V14.01,2013-06-22 22:34:00,
2013-06-22 18:35:00,80.5,68.5,29.98,SSW,212,2.0,9.0,67,0.00,,---,0.00,VWS V14.01,2013-06-22 22:35:00,
2013-06-22 18:36:00,80.3,68.3,29.98,SE,134,1.0,9.0,67,0.00,,---,0.00,VWS V14.01,2013-06-22 22:36:00,
2013-06-22 18:37:00,80.2,68.7,29.98,SSW,193,3.0,9.0,68,0.00,,---,0.00,VWS V14.01,2013-06-22 22:37:00,
2013-06-22 18:38:00,80.1,68.2,29.98,SE,146,3.0,9.0,67,0.00,,---,0.00,VWS V14.01,2013-06-22 22:38:00,
2013-06-22 18:39:00,79.9,68.4,29.98,South,170,3.0,9.0,68,0.00,,---,0.00,VWS V14.01,2013-06-22 22:39:00,
2013-06-22 18:40:00,79.8,68.3,29.98,SSW,203,2.0,9.0,68,0.00,,---,0.00,VWS V14.01,2013-06-22 22:40:00,
2013-06-22 18:41:00,79.7,68.2,29.98,SE,144,3.0,9.0,68,0.00,,---,0.00,VWS V14.01,2013-06-22 22:41:00,
2013-06-22 18:42:00,79.6,68.1,29.98,South,188,0.0,9.0,68,0.00,,---,0.00,VWS V14.01,2013-06-22 22:42:00,
2013-06-22 18:43:00,79.6,68.5,29.98,SW,217,3.0,9.0,69,0.00,,---,0.00,VWS V14.01,2013-06-22 22:43:00,
2013-06-22 18:44:00,79.5,68.4,29.98,SW,222,0.0,9.0,69,0.00,,---,0.00,VWS V14.01,2013-06-22 22:44:00,
2013-06-22 18:45:00,79.4,68.3,29.98,SW,222,0.0,9.0,69,0.00,,---,0.00,VWS V14.01,2013-06-22 22:45:00,
2013-06-22 18:46:00,79.3,68.3,29.98,SW,222,0.0,9.0,69,0.00,,---,0.00,VWS V14.01,2013-06-22 22:46:00,
2013-06-22 18:47:00,79.3,68.3,29.98,SSE,156,1.0,9.0,69,0.00,,---,0.00,VWS V14.01,2013-06-22 22:47:00,
2013-06-22 18:48:00,79.2,68.2,29.98,SE,146,0.0,9.0,69,0.00,,---,0.00,VWS V14.01,2013-06-22 22:48:00,
2013-06-22 18:49:00,79.2,68.6,29.98,SE,146,0.0,9.0,70,0.00,,---,0.00,VWS V14.01,2013-06-22 22:49:00,
2013-06-22 18:50:00,79.1,68.1,29.98,SW,215,3.0,9.0,69,0.00,,---,0.00,VWS V14.01,2013-06-22 22:50:00,
2013-06-22 18:51:00,79.1,68.5,29.98,SW,219,0.0,9.0,70,0.00,,---,0.00,VWS V14.01,2013-06-22 22:51:00,
2013-06-22 18:52:00,79.0,68.4,29.98,West,264,1.0,9.0,70,0.00,,---,0.00,VWS V14.01,2013-06-22 22:52:00,
2013-06-22 18:53:00,79.0,68.4,29.98,SE,139,1.0,9.0,70,0.00,,---,0.00,VWS V14.01,2013-06-22 22:53:00,
2013-06-22 18:54:00,78.9,68.3,29.98,South,170,0.0,9.0,70,0.00,,---,0.00,VWS V14.01,2013-06-22 22:54:00,
2013-06-22 18:55:00,78.9,68.3,29.98,South,184,0.0,9.0,70,0.00,,---,0.00,VWS V14.01,2013-06-22 22:55:00,
2013-06-22 18:56:00,78.9,68.3,29.98,SSW,200,1.0,9.0,70,0.00,,---,0.00,VWS V14.01,2013-06-22 22:56:00,
2013-06-22 18:57:00,78.9,68.7,29.98,SSW,200,0.0,9.0,71,0.00,,---,0.00,VWS V14.01,2013-06-22 22:57:00,
2013-06-22 18:58:00,78.8,68.6,29.98,SSW,200,0.0,9.0,71,0.00,,---,0.00,VWS V14.01,2013-06-22 22:58:00,
2013-06-22 18:59:00,78.8,68.6,29.98,SSW,200,3.0,9.0,71,0.00,,---,0.00,VWS V14.01,2013-06-22 22:59:00,
2013-06-22 19:00:00,78.8,68.6,29.99,SW,222,4.0,9.0,71,0.00,,---,0.00,VWS V14.01,2013-06-22 23:00:00,
2013-06-22 19:01:00,78.7,68.1,29.99,SE,134,2.0,4.0,70,0.00,,---,0.00,VWS V14.01,2013-06-22 23:01:00,
2013-06-22 19:02:00,78.7,68.5,29.99,SSE,153,1.0,4.0,71,0.00,,---,0.00,VWS V14.01,2013-06-22 23:02:00,
2013-06-22 19:03:00,78.6,68.4,29.99,SSE,156,0.0,4.0,71,0.00,,---,0.00,VWS V14.01,2013-06-22 23:03:00,
2013-06-22 19:04:00,78.6,68.4,29.99,ESE,120,0.0,4.0,71,0.00,,---,0.00,VWS V14.01,2013-06-22 23:04:00,
2013-06-22 19:05:00,78.6,68.4,29.99,SE,146,1.0,4.0,71,0.00,,---,0.00,VWS V14.01,2013-06-22 23:05:00,
2013-06-22 19:06:00,78.6,68.8,29.99,SE,136,0.0,4.0,72,0.00,,---,0.00,VWS V14.01,2013-06-22 23:06:00,
2013-06-22 19:07:00,78.5,68.3,29.99,SE,133,0.0,4.0,71,0.00,,---,0.00,VWS V14.01,2013-06-22 23:07:00,
2013-06-22 19:08:00,78.5,68.3,29.99,South,191,1.0,4.0,71,0.00,,---,0.00,VWS V14.01,2013-06-22 23:08:00,
2013-06-22 19:09:00,78.4,68.2,29.99,SW,219,0.0,4.0,71,0.00,,---,0.00,VWS V14.01,2013-06-22 23:09:00,
2013-06-22 19:10:00,78.4,68.2,29.99,SW,221,2.0,4.0,71,0.00,,---,0.00,VWS V14.01,2013-06-22 23:10:00,
2013-06-22 19:11:00,78.3,68.1,29.99,WSW,240,1.0,4.0,71,0.00,,---,0.00,VWS V14.01,2013-06-22 23:11:00,
2013-06-22 19:12:00,78.3,68.1,29.99,WSW,240,0.0,4.0,71,0.00,,---,0.00,VWS V14.01,2013-06-22 23:12:00,
2013-06-22 19:13:00,78.2,68.4,29.99,WSW,239,0.0,4.0,72,0.00,,---,0.00,VWS V14.01,2013-06-22 23:13:00,
2013-06-22 19:14:00,78.2,68.4,29.99,WSW,240,0.0,4.0,72,0.00,,---,0.00,VWS V14.01,2013-06-22 23:14:00,
2013-06-22 19:15:00,78.1,68.8,29.99,WSW,240,0.0,4.0,73,0.00,,---,0.00,VWS V14.01,2013-06-22 23:15:00,
2013-06-22 19:16:00,78.1,68.3,29.99,WSW,240,0.0,4.0,72,0.00,,---,0.00,VWS V14.01,2013-06-22 23:16:00,
2013-06-22 19:17:00,78.0,68.2,29.99,WSW,240,0.0,4.0,72,0.00,,---,0.00,VWS V14.01,2013-06-22 23:17:00,
2013-06-22 19:18:00,78.0,68.7,29.99,WSW,239,0.0,4.0,73,0.00,,---,0.00,VWS V14.01,2013-06-22 23:18:00,
2013-06-22 19:19:00,77.9,68.6,29.99,SE,136,1.0,4.0,73,0.00,,---,0.00,VWS V14.01,2013-06-22 23:19:00,
2013-06-22 19:20:00,77.9,68.6,29.99,SE,141,0.0,4.0,73,0.00,,---,0.00,VWS V14.01,2013-06-22 23:20:00,
2013-06-22 19:21:00,77.8,68.5,29.99,SE,141,0.0,4.0,73,0.00,,---,0.00,VWS V14.01,2013-06-22 23:21:00,
2013-06-22 19:22:00,77.8,68.5,29.99,SE,141,0.0,4.0,73,0.00,,---,0.00,VWS V14.01,2013-06-22 23:22:00,
2013-06-22 19:23:00,77.7,68.8,29.99,SE,141,0.0,4.0,74,0.00,,---,0.00,VWS V14.01,2013-06-22 23:23:00,
2013-06-22 19:24:00,77.6,68.7,29.99,SE,141,0.0,4.0,74,0.00,,---,0.00,VWS V14.01,2013-06-22 23:24:00,
2013-06-22 19:25:00,77.6,68.7,29.99,SE,141,0.0,4.0,74,0.00,,---,0.00,VWS V14.01,2013-06-22 23:25:00,
2013-06-22 19:26:00,77.5,68.6,29.99,SE,141,0.0,4.0,74,0.00,,---,0.00,VWS V14.01,2013-06-22 23:26:00,
2013-06-22 19:27:00,77.5,68.6,29.99,SE,141,0.0,4.0,74,0.00,,---,0.00,VWS V14.01,2013-06-22 23:27:00,
2013-06-22 19:28:00,77.4,68.9,29.99,SE,141,0.0,4.0,75,0.00,,---,0.00,VWS V14.01,2013-06-22 23:28:00,
2013-06-22 19:29:00,77.3,68.8,29.99,SE,141,0.0,4.0,75,0.00,,---,0.00,VWS V14.01,2013-06-22 23:29:00,
2013-06-22 19:30:00,77.2,68.7,29.99,SE,141,0.0,4.0,75,0.00,,---,0.00,VWS V14.01,2013-06-22 23:30:00,
2013-06-22 19:31:00,77.2,68.7,30.00,SE,141,0.0,0.0,75,0.00,,---,0.00,VWS V14.01,2013-06-22 23:31:00,
2013-06-22 19:32:00,77.1,68.6,30.00,SE,141,0.0,0.0,75,0.00,,---,0.00,VWS V14.01,2013-06-22 23:32:00,
2013-06-22 19:33:00,77.0,68.9,30.00,SE,143,0.0,0.0,76,0.00,,---,0.00,VWS V14.01,2013-06-22 23:33:00,
2013-06-22 19:34:00,76.9,68.8,30.00,SE,143,0.0,1.0,76,0.00,,---,0.00,VWS V14.01,2013-06-22 23:34:00,
2013-06-22 19:35:00,76.8,68.7,30.00,SE,142,0.0,1.0,76,0.00,,---,0.00,VWS V14.01,2013-06-22 23:35:00,
2013-06-22 19:36:00,76.7,68.6,30.00,South,190,0.0,1.0,76,0.00,,---,0.00,VWS V14.01,2013-06-22 23:36:00,
2013-06-22 19:37:00,76.6,68.5,30.00,South,190,0.0,1.0,76,0.00,,---,0.00,VWS V14.01,2013-06-22 23:37:00,
2013-06-22 19:38:00,76.5,68.4,30.00,South,190,0.0,1.0,76,0.00,,---,0.00,VWS V14.01,2013-06-22 23:38:00,
2013-06-22 19:39:00,76.4,68.3,30.00,SSW,200,1.0,1.0,76,0.00,,---,0.00,VWS V14.01,2013-06-22 23:39:00,
2013-06-22 19:40:00,76.3,68.2,30.00,SSW,200,0.0,1.0,76,0.00,,---,0.00,VWS V14.01,2013-06-22 23:40:00,
2013-06-22 19:41:00,76.3,68.2,30.00,SSW,200,0.0,1.0,76,0.00,,---,0.00,VWS V14.01,2013-06-22 23:41:00,
2013-06-22 19:42:00,76.2,68.1,30.00,SSW,204,1.0,1.0,76,0.00,,---,0.00,VWS V14.01,2013-06-22 23:42:00,
2013-06-22 19:43:00,76.2,68.1,29.99,SSW,203,0.0,1.0,76,0.00,,---,0.00,VWS V14.01,2013-06-22 23:43:00,
2013-06-22 19:44:00,76.2,68.1,30.00,SSW,195,0.0,1.0,76,0.00,,---,0.00,VWS V14.01,2013-06-22 23:44:00,
2013-06-22 19:45:00,76.2,68.1,30.00,SSW,195,0.0,1.0,76,0.00,,---,0.00,VWS V14.01,2013-06-22 23:45:00,
2013-06-22 19:46:00,76.1,68.4,30.00,SE,142,1.0,2.0,77,0.00,,---,0.00,VWS V14.01,2013-06-22 23:46:00,
2013-06-22 19:47:00,76.1,68.0,30.00,SE,143,1.0,2.0,76,0.00,,---,0.00,VWS V14.01,2013-06-22 23:47:00,
2013-06-22 19:48:00,76.1,68.0,30.00,SSE,150,2.0,3.0,76,0.00,,---,0.00,VWS V14.01,2013-06-22 23:48:00,
2013-06-22 19:49:00,76.1,68.0,30.00,SSE,155,2.0,4.0,76,0.00,,---,0.00,VWS V14.01,2013-06-22 23:49:00,
2013-06-22 19:50:00,76.2,68.1,30.00,ESE,113,0.0,4.0,76,0.00,,---,0.00,VWS V14.01,2013-06-22 23:50:00,
2013-06-22 19:51:00,76.2,68.1,30.00,ESE,117,1.0,4.0,76,0.00,,---,0.00,VWS V14.01,2013-06-22 23:51:00,
2013-06-22 19:52:00,76.2,68.1,30.00,SE,129,0.0,4.0,76,0.00,,---,0.00,VWS V14.01,2013-06-22 23:52:00,
2013-06-22 19:53:00,76.2,68.1,30.00,South,174,1.0,4.0,76,0.00,,---,0.00,VWS V14.01,2013-06-22 23:53:00,
2013-06-22 19:54:00,76.2,67.7,30.00,SSE,162,3.0,4.0,75,0.00,,---,0.00,VWS V14.01,2013-06-22 23:54:00,
2013-06-22 19:55:00,76.3,67.8,30.00,SW,224,2.0,4.0,75,0.00,,---,0.00,VWS V14.01,2013-06-22 23:55:00,
2013-06-22 19:56:00,76.3,67.8,30.00,ESE,116,2.0,4.0,75,0.00,,---,0.00,VWS V14.01,2013-06-22 23:56:00,
2013-06-22 19:57:00,76.3,67.8,30.00,SW,233,1.0,4.0,75,0.00,,---,0.00,VWS V14.01,2013-06-22 23:57:00,
2013-06-22 19:58:00,76.3,67.8,30.00,SSW,200,2.0,4.0,75,0.00,,---,0.00,VWS V14.01,2013-06-22 23:58:00,
2013-06-22 19:59:00,76.3,67.8,30.00,SSE,168,2.0,4.0,75,0.00,,---,0.00,VWS V14.01,2013-06-22 23:59:00,
2013-06-22 20:00:00,76.3,67.8,30.00,SE,139,3.0,4.0,75,0.00,,---,0.00,VWS V14.01,2013-06-23 00:00:00,
2013-06-22 20:01:00,76.2,67.7,30.00,SSW,197,1.0,3.0,75,0.00,,---,0.00,VWS V14.01,2013-06-23 00:01:00,
2013-06-22 20:02:00,76.2,67.3,30.00,West,260,2.0,6.0,74,0.00,,---,0.00,VWS V14.01,2013-06-23 00:02:00,
2013-06-22 20:03:00,76.3,67.4,30.00,ESE,117,2.0,6.0,74,0.00,,---,0.00,VWS V14.01,2013-06-23 00:03:00,
2013-06-22 20:04:00,76.3,67.4,30.00,SSW,201,2.0,6.0,74,0.00,,---,0.00,VWS V14.01,2013-06-23 00:04:00,
2013-06-22 20:05:00,76.3,67.4,30.00,SW,226,1.0,6.0,74,0.00,,---,0.00,VWS V14.01,2013-06-23 00:05:00,
2013-06-22 20:06:00,76.3,67.4,30.00,South,190,3.0,6.0,74,0.00,,---,0.00,VWS V14.01,2013-06-23 00:06:00,
2013-06-22 20:07:00,76.3,67.4,30.00,WSW,240,5.0,6.0,74,0.00,,---,0.00,VWS V14.01,2013-06-23 00:07:00,
2013-06-22 20:08:00,76.2,67.3,30.00,SSE,163,2.0,6.0,74,0.00,,---,0.00,VWS V14.01,2013-06-23 00:08:00,
2013-06-22 20:09:00,76.2,67.3,30.00,SW,229,2.0,6.0,74,0.00,,---,0.00,VWS V14.01,2013-06-23 00:09:00,
2013-06-22 20:10:00,76.2,67.3,30.00,SSW,197,1.0,6.0,74,0.00,,---,0.00,VWS V14.01,2013-06-23 00:10:00,
2013-06-22 20:11:00,76.2,67.3,30.00,SSE,149,6.0,7.0,74,0.00,,---,0.00,VWS V14.01,2013-06-23 00:11:00,
2013-06-22 20:12:00,76.2,67.3,30.00,ESE,122,4.0,7.0,74,0.00,,---,0.00,VWS V14.01,2013-06-23 00:12:00,
2013-06-22 20:13:00,76.2,67.3,30.00,SE,134,2.0,7.0,74,0.00,,---,0.00,VWS V14.01,2013-06-23 00:13:00,
2013-06-22 20:14:00,76.2,66.9,30.00,South,191,2.0,7.0,73,0.00,,---,0.00,VWS V14.01,2013-06-23 00:14:00,
2013-06-22 20:15:00,76.2,67.3,30.00,ESE,115,1.0,7.0,74,0.00,,---,0.00,VWS V14.01,2013-06-23 00:15:00,
2013-06-22 20:16:00,76.2,67.3,30.00,SSE,152,1.0,7.0,74,0.00,,---,0.00,VWS V14.01,2013-06-23 00:16:00,
2013-06-22 20:17:00,76.2,67.3,30.00,SE,130,2.0,7.0,74,0.00,,---,0.00,VWS V14.01,2013-06-23 00:17:00,
2013-06-22 20:18:00,76.1,67.2,30.00,SE,139,4.0,7.0,74,0.00,,---,0.00,VWS V14.01,2013-06-23 00:18:00,
2013-06-22 20:19:00,76.1,66.8,30.00,SSW,200,1.0,7.0,73,0.00,,---,0.00,VWS V14.01,2013-06-23 00:19:00,
2013-06-22 20:20:00,76.1,66.8,30.00,SSE,165,3.0,7.0,73,0.00,,---,0.00,VWS V14.01,2013-06-23 00:20:00,
2013-06-22 20:21:00,76.1,66.8,30.00,SSE,148,4.0,7.0,73,0.00,,---,0.00,VWS V14.01,2013-06-23 00:21:00,
2013-06-22 20:22:00,76.1,67.2,30.00,SSE,153,3.0,7.0,74,0.00,,---,0.00,VWS V14.01,2013-06-23 00:22:00,
2013-06-22 20:23:00,76.1,67.2,30.00,SSW,201,3.0,7.0,74,0.00,,---,0.00,VWS V14.01,2013-06-23 00:23:00,
2013-06-22 20:24:00,76.1,67.2,30.00,SSE,161,1.0,7.0,74,0.00,,---,0.00,VWS V14.01,2013-06-23 00:24:00,
2013-06-22 20:25:00,76.1,67.2,30.00,SE,139,4.0,7.0,74,0.00,,---,0.00,VWS V14.01,2013-06-23 00:25:00,
2013-06-22 20:26:00,76.0,67.1,30.00,SW,224,7.0,8.0,74,0.00,,---,0.00,VWS V14.01,2013-06-23 00:26:00,
2013-06-22 20:27:00,76.0,67.1,30.00,SW,214,6.0,8.0,74,0.00,,---,0.00,VWS V14.01,2013-06-23 00:27:00,
2013-06-22 20:28:00,76.0,66.7,30.00,South,172,5.0,8.0,73,0.00,,---,0.00,VWS V14.01,2013-06-23 00:28:00,
2013-06-22 20:29:00,76.0,66.7,30.00,SE,145,4.0,8.0,73,0.00,,---,0.00,VWS V14.01,2013-06-23 00:29:00,
2013-06-22 20:30:00,76.0,66.7,30.00,SE,132,4.0,8.0,73,0.00,,---,0.00,VWS V14.01,2013-06-23 00:30:00,
2013-06-22 20:31:00,76.0,66.7,30.00,SSW,200,2.0,6.0,73,0.00,,---,0.00,VWS V14.01,2013-06-23 00:31:00,
2013-06-22 20:32:00,76.0,66.7,30.00,SE,130,3.0,6.0,73,0.00,,---,0.00,VWS V14.01,2013-06-23 00:32:00,
2013-06-22 20:33:00,76.0,66.7,30.00,SSE,165,2.0,6.0,73,0.00,,---,0.00,VWS V14.01,2013-06-23 00:33:00,
2013-06-22 20:34:00,76.0,66.7,30.00,South,186,5.0,8.0,73,0.00,,---,0.00,VWS V14.01,2013-06-23 00:34:00,
2013-06-22 20:35:00,76.0,66.7,30.00,South,177,1.0,9.0,73,0.00,,---,0.00,VWS V14.01,2013-06-23 00:35:00,
2013-06-22 20:36:00,76.0,66.7,30.00,South,174,4.0,9.0,73,0.00,,---,0.00,VWS V14.01,2013-06-23 00:36:00,
2013-06-22 20:37:00,76.0,66.7,30.00,SE,139,2.0,9.0,73,0.00,,---,0.00,VWS V14.01,2013-06-23 00:37:00,
2013-06-22 20:38:00,76.0,66.7,30.00,SW,228,5.0,9.0,73,0.00,,---,0.00,VWS V14.01,2013-06-23 00:38:00,
2013-06-22 20:39:00,76.0,66.7,30.00,South,174,3.0,9.0,73,0.00,,---,0.00,VWS V14.01,2013-06-23 00:39:00,
2013-06-22 20:40:00,76.0,66.7,30.00,SE,137,1.0,9.0,73,0.00,,---,0.00,VWS V14.01,2013-06-23 00:40:00,
2013-06-22 20:41:00,76.0,66.7,30.00,SE,145,3.0,9.0,73,0.00,,---,0.00,VWS V14.01,2013-06-23 00:41:00,
2013-06-22 20:42:00,76.0,66.7,30.00,SW,232,4.0,9.0,73,0.00,,---,0.00,VWS V14.01,2013-06-23 00:42:00,
2013-06-22 20:43:00,76.0,66.7,30.00,SE,141,5.0,9.0,73,0.00,,---,0.00,VWS V14.01,2013-06-23 00:43:00,
2013-06-22 20:44:00,76.0,66.7,30.00,SE,141,6.0,9.0,73,0.00,,---,0.00,VWS V14.01,2013-06-23 00:44:00,
2013-06-22 20:45:00,76.1,66.8,30.01,SSE,155,2.0,9.0,73,0.00,,---,0.00,VWS V14.01,2013-06-23 00:45:00,
2013-06-22 20:46:00,76.1,66.8,30.01,South,169,4.0,9.0,73,0.00,,---,0.00,VWS V14.01,2013-06-23 00:46:00,
2013-06-22 20:47:00,76.1,66.8,30.01,SE,127,2.0,9.0,73,0.00,,---,0.00,VWS V14.01,2013-06-23 00:47:00,
2013-06-22 20:48:00,76.1,66.8,30.01,SSE,155,1.0,9.0,73,0.00,,---,0.00,VWS V14.01,2013-06-23 00:48:00,
2013-06-22 20:49:00,76.1,66.8,30.01,SSW,205,2.0,9.0,73,0.00,,---,0.00,VWS V14.01,2013-06-23 00:49:00,
2013-06-22 20:50:00,76.1,66.8,30.01,South,174,0.0,9.0,73,0.00,,---,0.00,VWS V14.01,2013-06-23 00:50:00,
2013-06-22 20:51:00,76.1,66.8,30.01,SE,142,1.0,9.0,73,0.00,,---,0.00,VWS V14.01,2013-06-23 00:51:00,
2013-06-22 20:52:00,76.1,66.8,30.01,SE,139,2.0,9.0,73,0.00,,---,0.00,VWS V14.01,2013-06-23 00:52:00,
2013-06-22 20:53:00,76.1,66.8,30.01,SSE,151,1.0,9.0,73,0.00,,---,0.00,VWS V14.01,2013-06-23 00:53:00,
2013-06-22 20:54:00,76.0,66.7,30.01,SSE,153,3.0,9.0,73,0.00,,---,0.00,VWS V14.01,2013-06-23 00:54:00,
2013-06-22 20:55:00,76.0,66.7,30.01,South,170,2.0,9.0,73,0.00,,---,0.00,VWS V14.01,2013-06-23 00:55:00,
2013-06-22 20:56:00,76.0,66.7,30.01,SE,136,4.0,9.0,73,0.00,,---,0.00,VWS V14.01,2013-06-23 00:56:00,
2013-06-22 20:57:00,76.0,66.7,30.01,SE,136,4.0,9.0,73,0.00,,---,0.00,VWS V14.01,2013-06-23 00:57:00,
2013-06-22 20:58:00,76.0,66.7,30.01,SSW,195,3.0,9.0,73,0.00,,---,0.00,VWS V14.01,2013-06-23 00:58:00,
2013-06-22 20:59:00,76.0,66.7,30.01,South,186,4.0,9.0,73,0.00,,---,0.00,VWS V14.01,2013-06-23 00:59:00,
2013-06-22 21:00:00,75.9,66.6,30.01,SSE,158,4.0,9.0,73,0.00,,---,0.00,VWS V14.01,2013-06-23 01:00:00,
2013-06-22 21:01:00,75.9,66.6,30.01,ESE,113,2.0,4.0,73,0.00,,---,0.00,VWS V14.01,2013-06-23 01:01:00,
2013-06-22 21:02:00,75.9,66.6,30.01,SE,127,1.0,4.0,73,0.00,,---,0.00,VWS V14.01,2013-06-23 01:02:00,
2013-06-22 21:03:00,75.9,66.6,30.01,SSW,204,2.0,5.0,73,0.00,,---,0.00,VWS V14.01,2013-06-23 01:03:00,
2013-06-22 21:04:00,75.9,66.6,30.01,SSE,165,2.0,5.0,73,0.00,,---,0.00,VWS V14.01,2013-06-23 01:04:00,
2013-06-22 21:05:00,75.9,66.6,30.01,SSE,162,4.0,5.0,73,0.00,,---,0.00,VWS V14.01,2013-06-23 01:05:00,
2013-06-22 21:06:00,75.9,66.6,30.01,SE,142,4.0,5.0,73,0.00,,---,0.00,VWS V14.01,2013-06-23 01:06:00,
2013-06-22 21:07:00,75.9,66.6,30.01,SSW,207,1.0,5.0,73,0.00,,---,0.00,VWS V14.01,2013-06-23 01:07:00,
2013-06-22 21:08:00,75.9,66.6,30.01,South,169,2.0,6.0,73,0.00,,---,0.00,VWS V14.01,2013-06-23 01:08:00,
2013-06-22 21:09:00,75.9,66.6,30.01,SSW,207,2.0,6.0,73,0.00,,---,0.00,VWS V14.01,2013-06-23 01:09:00,
2013-06-22 21:10:00,75.9,66.6,30.01,SSE,155,5.0,6.0,73,0.00,,---,0.00,VWS V14.01,2013-06-23 01:10:00,
2013-06-22 21:11:00,75.9,66.6,30.01,SE,128,2.0,6.0,73,0.00,,---,0.00,VWS V14.01,2013-06-23 01:11:00,
2013-06-22 21:12:00,75.8,66.5,30.01,SSW,200,1.0,6.0,73,0.00,,---,0.00,VWS V14.01,2013-06-23 01:12:00,
2013-06-22 21:13:00,75.8,66.5,30.01,SE,127,3.0,6.0,73,0.00,,---,0.00,VWS V14.01,2013-06-23 01:13:00,
2013-06-22 21:14:00,75.8,66.5,30.01,South,184,5.0,6.0,73,0.00,,---,0.00,VWS V14.01,2013-06-23 01:14:00,
2013-06-22 21:15:00,75.8,66.5,30.01,SSE,162,0.0,6.0,73,0.00,,---,0.00,VWS V14.01,2013-06-23 01:15:00,
2013-06-22 21:16:00,75.7,66.4,30.01,SW,215,1.0,6.0,73,0.00,,---,0.00,VWS V14.01,2013-06-23 01:16:00,
2013-06-22 21:17:00,75.7,66.4,30.01,ESE,118,0.0,6.0,73,0.00,,---,0.00,VWS V14.01,2013-06-23 01:17:00,
2013-06-22 21:18:00,75.7,66.4,30.01,SW,222,2.0,6.0,73,0.00,,---,0.00,VWS V14.01,2013-06-23 01:18:00,
2013-06-22 21:19:00,75.6,66.7,30.01,ESE,113,2.0,6.0,74,0.00,,---,0.00,VWS V14.01,2013-06-23 01:19:00,
2013-06-22 21:20:00,75.6,66.7,30.01,SSE,167,4.0,6.0,74,0.00,,---,0.00,VWS V14.01,2013-06-23 01:20:00,
2013-06-22 21:21:00,75.5,66.6,30.01,SW,231,4.0,6.0,74,0.00,,---,0.00,VWS V14.01,2013-06-23 01:21:00,
2013-06-22 21:22:00,75.5,66.6,30.01,SSE,162,5.0,6.0,74,0.00,,---,0.00,VWS V14.01,2013-06-23 01:22:00,
2013-06-22 21:23:00,75.5,66.6,30.01,SW,236,1.0,6.0,74,0.00,,---,0.00,VWS V14.01,2013-06-23 01:23:00,
2013-06-22 21:24:00,75.5,66.6,30.01,SSW,203,2.0,6.0,74,0.00,,---,0.00,VWS V14.01,2013-06-23 01:24:00,
2013-06-22 21:25:00,75.5,66.6,30.01,SSW,210,3.0,6.0,74,0.00,,---,0.00,VWS V14.01,2013-06-23 01:25:00,
2013-06-22 21:26:00,75.4,66.5,30.01,SSW,204,2.0,6.0,74,0.00,,---,0.00,VWS V14.01,2013-06-23 01:26:00,
2013-06-22 21:27:00,75.4,66.5,30.01,SSW,210,1.0,6.0,74,0.00,,---,0.00,VWS V14.01,2013-06-23 01:27:00,
2013-06-22 21:28:00,75.4,66.5,30.01,SSW,201,0.0,6.0,74,0.00,,---,0.00,VWS V14.01,2013-06-23 01:28:00,
2013-06-22 21:29:00,75.3,66.4,30.02,South,176,2.0,6.0,74,0.00,,---,0.00,VWS V14.01,2013-06-23 01:29:00,
2013-06-22 21:30:00,75.3,66.4,30.02,SSE,161,2.0,6.0,74,0.00,,---,0.00,VWS V14.01,2013-06-23 01:30:00,
2013-06-22 21:31:00,75.2,66.3,30.02,SE,143,2.0,2.0,74,0.00,,---,0.00,VWS V14.01,2013-06-23 01:31:00,
2013-06-22 21:32:00,75.2,66.3,30.02,SSE,147,1.0,2.0,74,0.00,,---,0.00,VWS V14.01,2013-06-23 01:32:00,
2013-06-22 21:33:00,75.2,66.3,30.02,SSW,200,0.0,2.0,74,0.00,,---,0.00,VWS V14.01,2013-06-23 01:33:00,
2013-06-22 21:34:00,75.1,66.2,30.02,South,184,1.0,3.0,74,0.00,,---,0.00,VWS V14.01,2013-06-23 01:34:00,
2013-06-22 21:35:00,75.1,66.2,30.02,SSE,147,1.0,3.0,74,0.00,,---,0.00,VWS V14.01,2013-06-23 01:35:00,
2013-06-22 21:36:00,75.0,66.6,30.02,SSW,198,0.0,3.0,75,0.00,,---,0.00,VWS V14.01,2013-06-23 01:36:00,
2013-06-22 21:37:00,74.9,66.4,30.02,SSE,149,1.0,3.0,75,0.00,,---,0.00,VWS V14.01,2013-06-23 01:37:00,
2013-06-22 21:38:00,74.9,66.4,30.02,SE,128,1.0,3.0,75,0.00,,---,0.00,VWS V14.01,2013-06-23 01:38:00,
2013-06-22 21:39:00,74.8,66.3,30.02,SE,139,1.0,3.0,75,0.00,,---,0.00,VWS V14.01,2013-06-23 01:39:00,
2013-06-22 21:40:00,74.8,66.3,30.02,SSW,198,0.0,3.0,75,0.00,,---,0.00,VWS V14.01,2013-06-23 01:40:00,
2013-06-22 21:41:00,74.8,66.3,30.02,SE,140,3.0,3.0,75,0.00,,---,0.00,VWS V14.01,2013-06-23 01:41:00,
2013-06-22 21:42:00,74.8,66.3,30.02,SSW,203,0.0,3.0,75,0.00,,---,0.00,VWS V14.01,2013-06-23 01:42:00,
2013-06-22 21:43:00,74.7,66.3,30.02,South,170,1.0,3.0,75,0.00,,---,0.00,VWS V14.01,2013-06-23 01:43:00,
2013-06-22 21:44:00,74.7,66.3,30.02,SSW,204,0.0,3.0,75,0.00,,---,0.00,VWS V14.01,2013-06-23 01:44:00,
2013-06-22 21:45:00,74.7,66.3,30.02,SE,131,1.0,3.0,75,0.00,,---,0.00,VWS V14.01,2013-06-23 01:45:00,
2013-06-22 21:46:00,74.6,66.5,30.02,SSW,203,1.0,3.0,76,0.00,,---,0.00,VWS V14.01,2013-06-23 01:46:00,
2013-06-22 21:47:00,74.5,66.4,30.02,WSW,240,0.0,3.0,76,0.00,,---,0.00,VWS V14.01,2013-06-23 01:47:00,
2013-06-22 21:48:00,74.4,66.3,30.02,WSW,240,0.0,3.0,76,0.00,,---,0.00,VWS V14.01,2013-06-23 01:48:00,
2013-06-22 21:49:00,74.4,66.3,30.03,SSW,207,2.0,3.0,76,0.00,,---,0.00,VWS V14.01,2013-06-23 01:49:00,
2013-06-22 21:50:00,74.3,66.2,30.02,SW,219,2.0,3.0,76,0.00,,---,0.00,VWS V14.01,2013-06-23 01:50:00,
2013-06-22 21:51:00,74.3,66.2,30.02,WSW,243,1.0,3.0,76,0.00,,---,0.00,VWS V14.01,2013-06-23 01:51:00,
2013-06-22 21:52:00,74.3,66.2,30.02,WSW,243,0.0,3.0,76,0.00,,---,0.00,VWS V14.01,2013-06-23 01:52:00,
2013-06-22 21:53:00,74.2,66.5,30.02,WSW,248,1.0,3.0,77,0.00,,---,0.00,VWS V14.01,2013-06-23 01:53:00,
2013-06-22 21:54:00,74.2,66.5,30.02,WSW,248,0.0,3.0,77,0.00,,---,0.00,VWS V14.01,2013-06-23 01:54:00,
2013-06-22 21:55:00,74.2,66.5,30.02,SW,218,1.0,3.0,77,0.00,,---,0.00,VWS V14.01,2013-06-23 01:55:00,
2013-06-22 21:56:00,74.1,66.4,30.02,SW,215,1.0,3.0,77,0.00,,---,0.00,VWS V14.01,2013-06-23 01:56:00,
2013-06-22 21:57:00,74.1,66.4,30.02,South,184,0.0,3.0,77,0.00,,---,0.00,VWS V14.01,2013-06-23 01:57:00,
2013-06-22 21:58:00,74.0,66.3,30.02,SSE,160,1.0,3.0,77,0.00,,---,0.00,VWS V14.01,2013-06-23 01:58:00,
2013-06-22 21:59:00,74.0,66.3,30.02,SSE,159,0.0,3.0,77,0.00,,---,0.00,VWS V14.01,2013-06-23 01:59:00,
2013-06-22 22:00:00,73.9,66.2,30.02,SSE,153,0.0,3.0,77,0.00,,---,0.00,VWS V14.01,2013-06-23 02:00:00,
2013-06-22 22:01:00,73.9,66.2,30.02,SSE,157,1.0,1.0,77,0.00,,---,0.00,VWS V14.01,2013-06-23 02:01:00,
2013-06-22 22:02:00,73.8,66.5,30.02,SW,224,1.0,1.0,78,0.00,,---,0.00,VWS V14.01,2013-06-23 02:02:00,
2013-06-22 22:03:00,73.8,66.5,30.02,SW,224,0.0,1.0,78,0.00,,---,0.00,VWS V14.01,2013-06-23 02:03:00,
2013-06-22 22:04:00,73.7,66.4,30.02,SW,224,0.0,1.0,78,0.00,,---,0.00,VWS V14.01,2013-06-23 02:04:00,
2013-06-22 22:05:00,73.6,66.3,30.02,SSW,213,0.0,1.0,78,0.00,,---,0.00,VWS V14.01,2013-06-23 02:05:00,
2013-06-22 22:06:00,73.6,66.3,30.02,SSW,212,0.0,1.0,78,0.00,,---,0.00,VWS V14.01,2013-06-23 02:06:00,
2013-06-22 22:07:00,73.4,66.1,30.02,SSW,208,1.0,1.0,78,0.00,,---,0.00,VWS V14.01,2013-06-23 02:07:00,
2013-06-22 22:08:00,73.3,66.4,30.02,SSW,205,0.0,1.0,79,0.00,,---,0.00,VWS V14.01,2013-06-23 02:08:00,
2013-06-22 22:09:00,73.3,66.4,30.02,SSW,205,0.0,1.0,79,0.00,,---,0.00,VWS V14.01,2013-06-23 02:09:00,
2013-06-22 22:10:00,73.2,66.3,30.02,SE,146,1.0,1.0,79,0.00,,---,0.00,VWS V14.01,2013-06-23 02:10:00,
2013-06-22 22:11:00,73.1,66.2,30.02,SE,146,0.0,1.0,79,0.00,,---,0.00,VWS V14.01,2013-06-23 02:11:00,
2013-06-22 22:12:00,73.1,66.2,30.02,SE,146,0.0,1.0,79,0.00,,---,0.00,VWS V14.01,2013-06-23 02:12:00,
2013-06-22 22:13:00,73.0,66.1,30.02,SE,146,0.0,1.0,79,0.00,,---,0.00,VWS V14.01,2013-06-23 02:13:00,
2013-06-22 22:14:00,72.9,66.0,30.02,SE,146,0.0,1.0,79,0.00,,---,0.00,VWS V14.01,2013-06-23 02:14:00,
2013-06-22 22:15:00,72.9,66.4,30.02,SE,146,0.0,1.0,80,0.00,,---,0.00,VWS V14.01,2013-06-23 02:15:00,
2013-06-22 22:16:00,72.8,66.3,30.02,SSE,148,0.0,1.0,80,0.00,,---,0.00,VWS V14.01,2013-06-23 02:16:00,
2013-06-22 22:17:00,72.6,66.1,30.02,SSE,148,0.0,1.0,80,0.00,,---,0.00,VWS V14.01,2013-06-23 02:17:00,
2013-06-22 22:18:00,72.5,66.0,30.02,ESE,115,0.0,1.0,80,0.00,,---,0.00,VWS V14.01,2013-06-23 02:18:00,
2013-06-22 22:19:00,72.5,66.0,30.02,ESE,115,0.0,1.0,80,0.00,,---,0.00,VWS V14.01,2013-06-23 02:19:00,
2013-06-22 22:20:00,72.4,66.2,30.02,ESE,115,0.0,1.0,81,0.00,,---,0.00,VWS V14.01,2013-06-23 02:20:00,
2013-06-22 22:21:00,72.3,66.2,30.02,ESE,115,0.0,1.0,81,0.00,,---,0.00,VWS V14.01,2013-06-23 02:21:00,
2013-06-22 22:22:00,72.2,66.1,30.02,SW,214,0.0,1.0,81,0.00,,---,0.00,VWS V14.01,2013-06-23 02:22:00,
2013-06-22 22:23:00,72.1,65.9,30.02,SW,214,0.0,1.0,81,0.00,,---,0.00,VWS V14.01,2013-06-23 02:23:00,
2013-06-22 22:24:00,72.0,65.9,30.02,SW,214,0.0,1.0,81,0.00,,---,0.00,VWS V14.01,2013-06-23 02:24:00,
2013-06-22 22:25:00,71.9,66.1,30.02,SW,214,0.0,1.0,82,0.00,,---,0.00,VWS V14.01,2013-06-23 02:25:00,
2013-06-22 22:26:00,71.8,66.0,30.02,SW,214,0.0,1.0,82,0.00,,---,0.00,VWS V14.01,2013-06-23 02:26:00,
2013-06-22 22:27:00,71.8,66.0,30.02,SW,214,0.0,1.0,82,0.00,,---,0.00,VWS V14.01,2013-06-23 02:27:00,
2013-06-22 22:28:00,71.8,66.0,30.02,SW,214,0.0,1.0,82,0.00,,---,0.00,VWS V14.01,2013-06-23 02:28:00,
2013-06-22 22:29:00,71.7,65.9,30.02,SW,214,0.0,1.0,82,0.00,,---,0.00,VWS V14.01,2013-06-23 02:29:00,
2013-06-22 22:30:00,71.7,66.3,30.03,SW,214,0.0,1.0,83,0.00,,---,0.00,VWS V14.01,2013-06-23 02:30:00,
2013-06-22 22:31:00,71.7,66.3,30.03,SW,214,0.0,0.0,83,0.00,,---,0.00,VWS V14.01,2013-06-23 02:31:00,
2013-06-22 22:32:00,71.6,66.2,30.03,SW,214,0.0,0.0,83,0.00,,---,0.00,VWS V14.01,2013-06-23 02:32:00,
2013-06-22 22:33:00,71.6,65.8,30.03,SW,214,0.0,0.0,82,0.00,,---,0.00,VWS V14.01,2013-06-23 02:33:00,
2013-06-22 22:34:00,71.5,66.1,30.03,SW,214,0.0,0.0,83,0.00,,---,0.00,VWS V14.01,2013-06-23 02:34:00,
2013-06-22 22:35:00,71.4,66.0,30.03,SW,214,0.0,0.0,83,0.00,,---,0.00,VWS V14.01,2013-06-23 02:35:00,
2013-06-22 22:36:00,71.3,65.9,30.03,South,190,0.0,0.0,83,0.00,,---,0.00,VWS V14.01,2013-06-23 02:36:00,
2013-06-22 22:37:00,71.2,66.1,30.03,South,190,0.0,0.0,84,0.00,,---,0.00,VWS V14.01,2013-06-23 02:37:00,
2013-06-22 22:38:00,71.1,66.0,30.03,South,190,0.0,0.0,84,0.00,,---,0.00,VWS V14.01,2013-06-23 02:38:00,
2013-06-22 22:39:00,71.1,66.0,30.03,South,190,0.0,0.0,84,0.00,,---,0.00,VWS V14.01,2013-06-23 02:39:00,
2013-06-22 22:40:00,71.1,66.0,30.03,South,190,0.0,0.0,84,0.00,,---,0.00,VWS V14.01,2013-06-23 02:40:00,
2013-06-22 22:41:00,71.1,66.0,30.03,South,190,0.0,0.0,84,0.00,,---,0.00,VWS V14.01,2013-06-23 02:41:00,
2013-06-22 22:42:00,71.0,65.9,30.03,South,190,0.0,0.0,84,0.00,,---,0.00,VWS V14.01,2013-06-23 02:42:00,
2013-06-22 22:43:00,71.0,65.9,30.03,South,190,0.0,0.0,84,0.00,,---,0.00,VWS V14.01,2013-06-23 02:43:00,
2013-06-22 22:44:00,70.9,65.8,30.03,South,190,0.0,1.0,84,0.00,,---,0.00,VWS V14.01,2013-06-23 02:44:00,
2013-06-22 22:45:00,70.9,65.8,30.03,South,190,0.0,1.0,84,0.00,,---,0.00,VWS V14.01,2013-06-23 02:45:00,
2013-06-22 22:46:00,70.8,65.7,30.03,South,190,0.0,1.0,84,0.00,,---,0.00,VWS V14.01,2013-06-23 02:46:00,
2013-06-22 22:47:00,70.7,66.0,30.03,South,190,0.0,1.0,85,0.00,,---,0.00,VWS V14.01,2013-06-23 02:47:00,
2013-06-22 22:48:00,70.7,66.0,30.03,South,190,0.0,1.0,85,0.00,,---,0.00,VWS V14.01,2013-06-23 02:48:00,
2013-06-22 22:49:00,70.6,65.9,30.03,South,190,0.0,1.0,85,0.00,,---,0.00,VWS V14.01,2013-06-23 02:49:00,
2013-06-22 22:50:00,70.6,65.9,30.03,South,190,0.0,1.0,85,0.00,,---,0.00,VWS V14.01,2013-06-23 02:50:00,
2013-06-22 22:51:00,70.5,65.8,30.03,South,188,0.0,1.0,85,0.00,,---,0.00,VWS V14.01,2013-06-23 02:51:00,
2013-06-22 22:52:00,70.5,65.8,30.03,South,188,0.0,1.0,85,0.00,,---,0.00,VWS V14.01,2013-06-23 02:52:00,
2013-06-22 22:53:00,70.5,65.8,30.03,South,188,1.0,1.0,85,0.00,,---,0.00,VWS V14.01,2013-06-23 02:53:00,
2013-06-22 22:54:00,70.5,65.8,30.03,SSW,197,0.0,1.0,85,0.00,,---,0.00,VWS V14.01,2013-06-23 02:54:00,
2013-06-22 22:55:00,70.5,66.1,30.03,SSW,197,0.0,1.0,86,0.00,,---,0.00,VWS V14.01,2013-06-23 02:55:00,
2013-06-22 22:56:00,70.5,66.1,30.03,SSW,197,0.0,1.0,86,0.00,,---,0.00,VWS V14.01,2013-06-23 02:56:00,
2013-06-22 22:57:00,70.4,66.0,30.03,SSW,197,0.0,1.0,86,0.00,,---,0.00,VWS V14.01,2013-06-23 02:57:00,
2013-06-22 22:58:00,70.4,66.0,30.03,SSW,197,0.0,1.0,86,0.00,,---,0.00,VWS V14.01,2013-06-23 02:58:00,
2013-06-22 22:59:00,70.3,65.9,30.03,SSW,197,0.0,1.0,86,0.00,,---,0.00,VWS V14.01,2013-06-23 02:59:00,
2013-06-22 23:00:00,70.3,65.9,30.03,SSW,197,0.0,1.0,86,0.00,,---,0.00,VWS V14.01,2013-06-23 03:00:00,
2013-06-22 23:01:00,70.2,65.8,30.03,SSW,197,0.0,0.0,86,0.00,,---,0.00,VWS V14.01,2013-06-23 03:01:00,
2013-06-22 23:02:00,70.1,65.7,30.03,SSW,197,0.0,0.0,86,0.00,,---,0.00,VWS V14.01,2013-06-23 03:02:00,
2013-06-22 23:03:00,70.1,65.7,30.03,SSW,197,0.0,0.0,86,0.00,,---,0.00,VWS V14.01,2013-06-23 03:03:00,
2013-06-22 23:04:00,70.1,65.7,30.03,SSW,197,0.0,0.0,86,0.00,,---,0.00,VWS V14.01,2013-06-23 03:04:00,
2013-06-22 23:05:00,70.1,66.1,30.03,SE,138,1.0,1.0,87,0.00,,---,0.00,VWS V14.01,2013-06-23 03:05:00,
2013-06-22 23:06:00,70.1,66.1,30.03,SSE,155,0.0,1.0,87,0.00,,---,0.00,VWS V14.01,2013-06-23 03:06:00,
2013-06-22 23:07:00,70.1,66.1,30.03,SSE,155,0.0,1.0,87,0.00,,---,0.00,VWS V14.01,2013-06-23 03:07:00,
2013-06-22 23:08:00,70.1,65.7,30.04,SSE,155,0.0,1.0,86,0.00,,---,0.00,VWS V14.01,2013-06-23 03:08:00,
2013-06-22 23:09:00,70.1,65.7,30.04,SSE,155,0.0,1.0,86,0.00,,---,0.00,VWS V14.01,2013-06-23 03:09:00,
2013-06-22 23:10:00,70.1,65.7,30.04,SSE,155,0.0,1.0,86,0.00,,---,0.00,VWS V14.01,2013-06-23 03:10:00,
2013-06-22 23:11:00,70.1,65.7,30.03,SSE,155,0.0,1.0,86,0.00,,---,0.00,VWS V14.01,2013-06-23 03:11:00,
2013-06-22 23:12:00,70.0,65.6,30.03,SSE,155,0.0,1.0,86,0.00,,---,0.00,VWS V14.01,2013-06-23 03:12:00,
2013-06-22 23:13:00,70.0,66.0,30.03,SSE,155,0.0,1.0,87,0.00,,---,0.00,VWS V14.01,2013-06-23 03:13:00,
2013-06-22 23:14:00,70.0,66.0,30.03,SSE,155,0.0,1.0,87,0.00,,---,0.00,VWS V14.01,2013-06-23 03:14:00,
2013-06-22 23:15:00,70.0,66.0,30.03,SSE,155,0.0,1.0,87,0.00,,---,0.00,VWS V14.01,2013-06-23 03:15:00,
2013-06-22 23:16:00,69.9,65.9,30.03,SSE,155,0.0,1.0,87,0.00,,---,0.00,VWS V14.01,2013-06-23 03:16:00,
2013-06-22 23:17:00,69.9,65.9,30.03,SSE,155,0.0,1.0,87,0.00,,---,0.00,VWS V14.01,2013-06-23 03:17:00,
2013-06-22 23:18:00,69.9,65.9,30.03,SSE,155,0.0,1.0,87,0.00,,---,0.00,VWS V14.01,2013-06-23 03:18:00,
2013-06-22 23:19:00,69.9,65.9,30.03,SSE,155,0.0,1.0,87,0.00,,---,0.00,VWS V14.01,2013-06-23 03:19:00,
2013-06-22 23:20:00,69.9,65.9,30.03,SSE,155,0.0,1.0,87,0.00,,---,0.00,VWS V14.01,2013-06-23 03:20:00,
2013-06-22 23:21:00,69.8,65.8,30.03,SSE,155,0.0,1.0,87,0.00,,---,0.00,VWS V14.01,2013-06-23 03:21:00,
2013-06-22 23:22:00,69.8,65.8,30.03,SSE,155,0.0,1.0,87,0.00,,---,0.00,VWS V14.01,2013-06-23 03:22:00,
2013-06-22 23:23:00,69.8,65.8,30.03,SSE,155,0.0,1.0,87,0.00,,---,0.00,VWS V14.01,2013-06-23 03:23:00,
2013-06-22 23:24:00,69.7,65.7,30.03,SSE,155,0.0,1.0,87,0.00,,---,0.00,VWS V14.01,2013-06-23 03:24:00,
2013-06-22 23:25:00,69.6,65.6,30.03,SSE,155,0.0,1.0,87,0.00,,---,0.00,VWS V14.01,2013-06-23 03:25:00,
2013-06-22 23:26:00,69.6,65.6,30.03,SSE,155,0.0,1.0,87,0.00,,---,0.00,VWS V14.01,2013-06-23 03:26:00,
2013-06-22 23:27:00,69.5,65.5,30.03,SSE,155,0.0,1.0,87,0.00,,---,0.00,VWS V14.01,2013-06-23 03:27:00,
2013-06-22 23:28:00,69.4,65.4,30.03,SSE,155,0.0,1.0,87,0.00,,---,0.00,VWS V14.01,2013-06-23 03:28:00,
2013-06-22 23:29:00,69.4,65.7,30.03,SSE,155,0.0,1.0,88,0.00,,---,0.00,VWS V14.01,2013-06-23 03:29:00,
2013-06-22 23:30:00,69.4,65.7,30.02,SSE,155,0.0,1.0,88,0.00,,---,0.00,VWS V14.01,2013-06-23 03:30:00,
2013-06-22 23:31:00,69.4,65.7,30.02,SSE,155,0.0,0.0,88,0.00,,---,0.00,VWS V14.01,2013-06-23 03:31:00,
2013-06-22 23:32:00,69.4,65.7,30.02,SSE,155,0.0,0.0,88,0.00,,---,0.00,VWS V14.01,2013-06-23 03:32:00,
2013-06-22 23:33:00,69.4,65.7,30.02,SSE,155,0.0,0.0,88,0.00,,---,0.00,VWS V14.01,2013-06-23 03:33:00,
2013-06-22 23:34:00,69.4,65.7,30.02,SSE,155,0.0,0.0,88,0.00,,---,0.00,VWS V14.01,2013-06-23 03:34:00,
2013-06-22 23:35:00,69.3,65.6,30.02,SSE,155,0.0,0.0,88,0.00,,---,0.00,VWS V14.01,2013-06-23 03:35:00,
2013-06-22 23:36:00,69.2,65.5,30.02,SSE,155,0.0,0.0,88,0.00,,---,0.00,VWS V14.01,2013-06-23 03:36:00,
2013-06-22 23:37:00,69.2,65.5,30.02,SSE,155,0.0,0.0,88,0.00,,---,0.00,VWS V14.01,2013-06-23 03:37:00,
2013-06-22 23:38:00,69.1,65.4,30.02,SSE,155,0.0,0.0,88,0.00,,---,0.00,VWS V14.01,2013-06-23 03:38:00,
2013-06-22 23:39:00,69.0,65.3,30.02,SSE,155,0.0,0.0,88,0.00,,---,0.00,VWS V14.01,2013-06-23 03:39:00,
2013-06-22 23:40:00,69.0,65.3,30.02,SSE,155,0.0,0.0,88,0.00,,---,0.00,VWS V14.01,2013-06-23 03:40:00,
2013-06-22 23:41:00,68.9,65.2,30.02,SSE,153,0.0,0.0,88,0.00,,---,0.00,VWS V14.01,2013-06-23 03:41:00,
2013-06-22 23:42:00,68.9,65.5,30.02,SSE,153,0.0,0.0,89,0.00,,---,0.00,VWS V14.01,2013-06-23 03:42:00,
2013-06-22 23:43:00,68.9,65.5,30.02,SSE,150,0.0,0.0,89,0.00,,---,0.00,VWS V14.01,2013-06-23 03:43:00,
2013-06-22 23:44:00,68.9,65.5,30.02,SE,141,1.0,1.0,89,0.00,,---,0.00,VWS V14.01,2013-06-23 03:44:00,
2013-06-22 23:45:00,68.9,65.5,30.02,SE,141,2.0,2.0,89,0.00,,---,0.00,VWS V14.01,2013-06-23 03:45:00,
2013-06-22 23:46:00,68.9,65.5,30.02,SE,141,0.0,2.0,89,0.00,,---,0.00,VWS V14.01,2013-06-23 03:46:00,
2013-06-22 23:47:00,68.9,65.5,30.02,SE,141,0.0,2.0,89,0.00,,---,0.00,VWS V14.01,2013-06-23 03:47:00,
2013-06-22 23:48:00,68.8,65.4,30.02,SE,141,0.0,2.0,89,0.00,,---,0.00,VWS V14.01,2013-06-23 03:48:00,
2013-06-22 23:49:00,68.8,65.4,30.02,ESE,118,0.0,2.0,89,0.00,,---,0.00,VWS V14.01,2013-06-23 03:49:00,
2013-06-22 23:50:00,68.8,65.4,30.02,ESE,119,0.0,2.0,89,0.00,,---,0.00,VWS V14.01,2013-06-23 03:50:00,
2013-06-22 23:51:00,68.8,65.4,30.02,ESE,119,0.0,2.0,89,0.00,,---,0.00,VWS V14.01,2013-06-23 03:51:00,
2013-06-22 23:52:00,68.8,65.4,30.02,ESE,119,0.0,2.0,89,0.00,,---,0.00,VWS V14.01,2013-06-23 03:52:00,
2013-06-22 23:53:00,68.8,65.4,30.02,SE,142,0.0,2.0,89,0.00,,---,0.00,VWS V14.01,2013-06-23 03:53:00,
2013-06-22 23:54:00,68.8,65.4,30.02,SE,142,0.0,2.0,89,0.00,,---,0.00,VWS V14.01,2013-06-23 03:54:00,
2013-06-22 23:55:00,68.8,65.4,30.02,SE,143,0.0,2.0,89,0.00,,---,0.00,VWS V14.01,2013-06-23 03:55:00,
2013-06-22 23:56:00,68.8,65.4,30.02,SE,143,0.0,2.0,89,0.00,,---,0.00,VWS V14.01,2013-06-23 03:56:00,
2013-06-22 23:57:00,68.8,65.4,30.02,ESE,122,1.0,2.0,89,0.00,,---,0.00,VWS V14.01,2013-06-23 03:57:00,
2013-06-22 23:58:00,68.9,65.5,30.01,SE,134,0.0,2.0,89,0.00,,---,0.00,VWS V14.01,2013-06-23 03:58:00,
2013-06-22 23:59:00,68.9,65.5,30.02,SE,134,0.0,2.0,89,0.00,,---,0.00,VWS V14.01,2013-06-23 03:59:00,